PK757 Escorted to Stansted Airport (7th of February, 2017)

Aircraft A333 Reg No. 4R-ALN Age 2 years old
Model A330 Jet engines 2 First flight 28-01-15
Registered 09-02-17 Rollout 01-15 Delivered 26-03-15
Construction No. 1604 Line No. N/A Series 343E
ADSHEX 77058E Airline name SriLankan Airlines Owner N/A
Airfield based Colombo-Bandaranaike~ ~4R First tracked 2015-03-26 09:13:01

Flight history for 4R-ALN

Route Flight No Date Playback
???? UL869 2017-09-23 23:01:00
Bandaranaike Intl Colombo (CMB) - Capital Intl (PEK) UL868 2017-09-23 17:35:00
King Khaled Intl (RUH) - Bandaranaike Intl Colombo (CMB) UL266 2017-09-23 00:18:00
Bandaranaike Intl Colombo (CMB) - King Khaled Intl (RUH) UL265 2017-09-22 19:26:00
Cochin (COK) - Bandaranaike Intl Colombo (CMB) UL168 2017-09-22 13:30:00
Bandaranaike Intl Colombo (CMB) - Cochin (COK) UL167 2017-09-22 11:02:00
Dubai Intl (DXB) - Bandaranaike Intl Colombo (CMB) UL226 2017-09-22 09:39:00
Bandaranaike Intl Colombo (CMB) - Dubai Intl (DXB) UL225 2017-09-21 19:13:00
Narita Intl (NRT) - Bandaranaike Intl Colombo (CMB) UL455 2017-09-21 13:50:00
Bandaranaike Intl Colombo (CMB) - Narita Intl (NRT) UL454 2017-09-20 22:21:00
Suvarnabhumi Intl (BKK) - Bandaranaike Intl Colombo (CMB) UL405 2017-09-20 11:18:00
Bandaranaike Intl Colombo (CMB) - Suvarnabhumi Intl (BKK) UL404 2017-09-20 05:57:00
Kuwait Intl (KWI) - Bandaranaike Intl Colombo (CMB) UL230 2017-09-20 00:18:00
Bandaranaike Intl Colombo (CMB) - Kuwait Intl (KWI) UL229 2017-09-19 18:05:00
???? UL867 2017-09-19 13:25:00
Bandaranaike Intl Colombo (CMB) - Pudong (PVG) UL866 2017-09-18 15:32:00
King Abdulaziz Intl (JED) - Bandaranaike Intl Colombo (CMB) UL282 2017-09-17 22:25:00
Bandaranaike Intl Colombo (CMB) - King Abdulaziz Intl (JED) UL281 2017-09-17 17:23:00
Hamad International Airport (DOH) - Bandaranaike Intl Colombo (CMB) UL218 2017-09-17 09:40:00
Bandaranaike Intl Colombo (CMB) - Hamad International Airport (DOH) UL217 2017-09-16 19:41:00
Time Lat Lon Altitude Heading Speed Vertical Rate
2017-02-07 14:57:09 GMT 51.88900 0.21952 0 348 0 0
2017-02-07 14:56:39 GMT 51.88900 0.21952 0 348 0 0
2017-02-07 14:56:27 GMT 51.88897 0.21952 0 348 5 0
2017-02-07 14:56:06 GMT 51.88833 0.21969 0 331 9 0
2017-02-07 14:55:08 GMT 51.88822 0.22463 0 309 18 0
2017-02-07 14:54:58 GMT 51.88763 0.22580 0 309 20 0
2017-02-07 14:54:55 GMT 51.88751 0.22602 0 309 21 0
2017-02-07 14:54:24 GMT 51.88590 0.22917 0 309 12 0
2017-02-07 14:54:22 GMT 51.88581 0.22934 0 309 12 0
2017-02-07 14:54:11 GMT 51.88546 0.23008 0 315 12 0
2017-02-07 14:53:58 GMT 51.88502 0.23073 0 25 11 0
2017-02-07 14:53:50 GMT 51.88470 0.23046 0 42 10 0
2017-02-07 14:53:42 GMT 51.88449 0.23004 0 16 11 0
2017-02-07 14:53:30 GMT 51.88394 0.23003 0 298 12 0
2017-02-07 14:53:21 GMT 51.88372 0.23079 0 292 15 0
2017-02-07 14:53:10 GMT 51.88341 0.23178 0 267 14 0
2017-02-07 14:52:55 GMT 51.88408 0.23342 0 222 39 0
2017-02-07 14:52:48 GMT 51.88513 0.23500 0 222 69 0
2017-02-07 14:52:24 GMT 51.89484 0.24956 325 224 140 -832
2017-02-07 14:52:20 GMT 51.89620 0.25174 375 224 140 -768
2017-02-07 14:52:12 GMT 51.89983 0.25716 475 223 140 -768
2017-02-07 14:52:08 GMT 51.90197 0.26030 525 223 140 -768
2017-02-07 14:52:01 GMT 51.90505 0.26493 625 223 140 -768
2017-02-07 14:51:50 GMT 51.91017 0.27260 750 223 139 -640
2017-02-07 14:51:45 GMT 51.91306 0.27702 825 223 139 -640
2017-02-07 14:51:43 GMT 51.91357 0.27772 825 224 138 -768
2017-02-07 14:51:40 GMT 51.91557 0.28076 875 223 138 -704
2017-02-07 14:51:34 GMT 51.91782 0.28412 950 223 139 -768
2017-02-07 14:51:32 GMT 51.91850 0.28511 975 223 139 -832
2017-02-07 14:51:29 GMT 51.92052 0.28816 1,025 223 139 -768
2017-02-07 14:51:23 GMT 51.92313 0.29213 1,100 224 140 -768
2017-02-07 14:51:21 GMT 51.92451 0.29420 1,125 223 140 -704
2017-02-07 14:51:18 GMT 51.92548 0.29569 1,150 223 141 -768
2017-02-07 14:51:13 GMT 51.92789 0.29930 1,225 224 143 -768
2017-02-07 14:51:08 GMT 51.93065 0.30346 1,300 224 146 -704
2017-02-07 14:51:06 GMT 51.93091 0.30380 1,300 224 146 -704
2017-02-07 14:51:02 GMT 51.93315 0.30724 1,350 223 151 -704
2017-02-07 14:50:58 GMT 51.93540 0.31060 1,400 223 153 -1024
2017-02-07 14:50:56 GMT 51.93642 0.31217 1,425 223 154 -1024
2017-02-07 14:50:50 GMT 51.93964 0.31696 1,525 223 159 -960
2017-02-07 14:50:47 GMT 51.94157 0.31982 1,600 223 162 -1024
2017-02-07 14:50:44 GMT 51.94253 0.32135 1,625 223 162 -1024
2017-02-07 14:50:41 GMT 51.94464 0.32448 1,675 223 163 -960
2017-02-07 14:50:37 GMT 51.94662 0.32739 1,750 223 166 -1024
2017-02-07 14:50:33 GMT 51.94862 0.33038 1,800 223 166 -1024
2017-02-07 14:50:31 GMT 51.94997 0.33249 1,850 224 165 -960
2017-02-07 14:50:27 GMT 51.95242 0.33615 1,925 223 163 -832
2017-02-07 14:50:23 GMT 51.95448 0.33924 1,975 223 161 -448
2017-02-07 14:50:20 GMT 51.95613 0.34180 2,000 223 161 -192
2017-02-07 14:50:17 GMT 51.95779 0.34419 2,000 224 160 64
2017-02-07 14:50:15 GMT 51.95924 0.34645 2,000 224 160 128
2017-02-07 14:50:12 GMT 51.96091 0.34897 2,000 223 161 128
2017-02-07 14:50:09 GMT 51.96217 0.35086 1,975 224 161 0
2017-02-07 14:50:06 GMT 51.96378 0.35332 1,975 224 161 0
2017-02-07 14:50:03 GMT 51.96579 0.35637 1,975 224 161 64
2017-02-07 14:50:01 GMT 51.96689 0.35812 1,975 224 161 128
2017-02-07 14:49:59 GMT 51.96812 0.36003 1,975 224 161 128
2017-02-07 14:49:55 GMT 51.96975 0.36255 1,975 225 161 64
2017-02-07 14:49:50 GMT 51.97220 0.36652 1,950 226 163 0
2017-02-07 14:49:48 GMT 51.97353 0.36865 1,975 226 163 0
2017-02-07 14:49:45 GMT 51.97549 0.37193 1,975 228 163 0
2017-02-07 14:49:40 GMT 51.97737 0.37514 1,975 229 162 0
2017-02-07 14:49:38 GMT 51.97888 0.37777 1,975 229 162 -64
2017-02-07 14:49:35 GMT 51.98048 0.38071 1,975 229 162 -64
2017-02-07 14:49:33 GMT 51.98177 0.38307 1,975 229 162 -128
2017-02-07 14:49:28 GMT 51.98341 0.38605 1,975 230 160 384
2017-02-07 14:49:23 GMT 51.98591 0.39064 1,975 237 158 896
2017-02-07 14:49:18 GMT 51.98814 0.39661 1,975 254 154 512
2017-02-07 14:49:16 GMT 51.98854 0.39833 1,975 259 153 192
2017-02-07 14:49:14 GMT 51.98926 0.40320 1,975 260 152 -64
2017-02-07 14:49:09 GMT 51.98978 0.40733 1,975 260 152 0
2017-02-07 14:49:07 GMT 51.98991 0.40838 1,975 260 152 0
2017-02-07 14:49:05 GMT 51.99014 0.41058 1,975 260 152 -64
2017-02-07 14:49:02 GMT 51.99138 0.42084 2,000 260 154 -64
2017-02-07 14:48:57 GMT 51.99138 0.42084 2,000 260 155 -64
2017-02-07 14:48:55 GMT 51.99145 0.42133 2,000 260 155 -64
2017-02-07 14:48:50 GMT 51.99216 0.42755 2,000 260 159 -320
2017-02-07 14:48:47 GMT 51.99261 0.43161 2,025 260 160 -448
2017-02-07 14:48:45 GMT 51.99280 0.43333 2,025 261 161 -448
2017-02-07 14:48:42 GMT 51.99331 0.43765 2,075 261 163 -448
2017-02-07 14:48:38 GMT 51.99387 0.44314 2,100 262 166 -256
2017-02-07 14:48:36 GMT 51.99410 0.44526 2,100 263 166 -192
2017-02-07 14:48:34 GMT 51.99429 0.44746 2,125 263 167 -192
2017-02-07 14:48:30 GMT 51.99458 0.45128 2,150 265 168 -256
2017-02-07 14:48:27 GMT 51.99485 0.45515 2,175 267 169 -320
2017-02-07 14:48:25 GMT 51.99494 0.45844 2,200 270 171 -320
2017-02-07 14:48:23 GMT 51.99495 0.46211 2,225 271 172 -640
2017-02-07 14:48:21 GMT 51.99494 0.46284 2,225 271 172 -640
2017-02-07 14:48:17 GMT 51.99489 0.47053 2,300 271 173 -1024
2017-02-07 14:48:15 GMT 51.99490 0.47256 2,350 271 173 -960
2017-02-07 14:48:12 GMT 51.99485 0.47665 2,400 271 174 -640
2017-02-07 14:48:10 GMT 51.99486 0.47722 2,400 271 174 -768
2017-02-07 14:48:06 GMT 51.99481 0.48256 2,450 272 175 -704
2017-02-07 14:48:03 GMT 51.99475 0.48662 2,475 272 176 -896
2017-02-07 14:48:01 GMT 51.99468 0.49110 2,550 272 176 -1152
2017-02-07 14:47:58 GMT 51.99463 0.49362 2,575 272 176 -1152
2017-02-07 14:47:55 GMT 51.99457 0.49705 2,625 272 177 -1152
2017-02-07 14:47:53 GMT 51.99454 0.50057 2,675 272 177 -1088
2017-02-07 14:47:51 GMT 51.99447 0.50247 2,700 272 177 -1088
2017-02-07 14:47:48 GMT 51.99445 0.50621 2,775 272 178 -1024
2017-02-07 14:47:46 GMT 51.99440 0.50888 2,800 272 179 -1024
2017-02-07 14:47:44 GMT 51.99433 0.51306 2,850 272 180 -960
2017-02-07 14:47:41 GMT 51.99424 0.51636 2,900 272 181 -1088
2017-02-07 14:47:39 GMT 51.99422 0.51971 2,950 272 185 -1216
2017-02-07 14:47:37 GMT 51.99415 0.52350 3,000 272 182 -1216
2017-02-07 14:47:35 GMT 51.99412 0.52490 3,025 272 182 -1280
2017-02-07 14:47:31 GMT 51.99399 0.53116 3,125 272 184 -1408
2017-02-07 14:47:29 GMT 51.99396 0.53237 3,150 272 184 -1408
2017-02-07 14:47:27 GMT 51.99390 0.53673 3,225 272 185 -1280
2017-02-07 14:47:24 GMT 51.99385 0.53963 3,275 272 185 -1216
2017-02-07 14:47:22 GMT 51.99377 0.54343 3,325 272 186 -1088
2017-02-07 14:47:20 GMT 51.99373 0.54555 3,375 272 188 -1024
2017-02-07 14:47:16 GMT 51.99359 0.55198 3,450 272 189 -1152
2017-02-07 14:47:14 GMT 51.99354 0.55504 3,500 272 190 -1216
2017-02-07 14:47:12 GMT 51.99350 0.55732 3,525 272 190 -1280
2017-02-07 14:47:10 GMT 51.99339 0.56107 3,600 272 192 -1024
2017-02-07 14:47:07 GMT 51.99335 0.56465 3,650 272 192 -1088
2017-02-07 14:47:05 GMT 51.99330 0.56671 3,675 272 193 -1280
2017-02-07 14:47:03 GMT 51.99322 0.56878 3,700 272 193 -1344
2017-02-07 14:47:00 GMT 51.99312 0.57411 3,775 272 194 -1344
2017-02-07 14:46:58 GMT 51.99307 0.57610 3,825 272 195 -1280
2017-02-07 14:46:56 GMT 51.99298 0.58031 3,875 272 195 -1152
2017-02-07 14:46:54 GMT 51.99294 0.58267 3,900 272 196 -896
2017-02-07 14:46:52 GMT 51.99289 0.58495 3,950 273 220 -2112
2017-02-07 14:46:50 GMT 51.99284 0.58871 3,975 272 200 -128
2017-02-07 14:46:47 GMT 51.99275 0.59240 4,000 272 203 128
2017-02-07 14:46:45 GMT 51.99271 0.59554 3,975 272 206 64
2017-02-07 14:46:43 GMT 51.99262 0.59906 4,000 272 210 -128
2017-02-07 14:46:41 GMT 51.99252 0.60310 4,000 272 213 -384
2017-02-07 14:46:39 GMT 51.99248 0.60608 4,000 272 215 -576
2017-02-07 14:46:37 GMT 51.99239 0.61020 4,050 272 216 -768
2017-02-07 14:46:33 GMT 51.99229 0.61531 4,075 273 218 -896
2017-02-07 14:46:30 GMT 51.99216 0.61974 4,125 273 220 -960
2017-02-07 14:46:28 GMT 51.99202 0.62546 4,200 273 221 -1280
2017-02-07 14:46:26 GMT 51.99201 0.62677 4,200 273 221 -1472
2017-02-07 14:46:22 GMT 51.99182 0.63360 4,325 273 219 -2304
2017-02-07 14:46:20 GMT 51.99179 0.63530 4,350 273 218 -2496
2017-02-07 14:46:18 GMT 51.99170 0.63850 4,425 273 218 -2496
2017-02-07 14:46:16 GMT 51.99154 0.64372 4,575 273 217 -2496
2017-02-07 14:46:14 GMT 51.99140 0.64757 4,675 273 216 -2496
2017-02-07 14:46:12 GMT 51.99138 0.64911 4,725 273 216 -2432
2017-02-07 14:46:09 GMT 51.99121 0.65384 4,825 273 216 -2176
2017-02-07 14:46:06 GMT 51.99110 0.65804 4,925 273 216 -1920
2017-02-07 14:46:04 GMT 51.99101 0.66132 5,000 273 215 -1920
2017-02-07 14:46:01 GMT 51.99084 0.66695 5,125 273 215 -2048
2017-02-07 14:45:57 GMT 51.99066 0.67378 5,275 273 213 -2176
2017-02-07 14:45:54 GMT 51.99051 0.67856 5,375 273 212 -2176
2017-02-07 14:45:54 GMT 51.99051 0.67856 5,375 273 212 -2176
2017-02-07 14:45:52 GMT 51.99033 0.68327 5,475 273 212 -1792
2017-02-07 14:45:52 GMT 51.99033 0.68327 5,475 273 212 -1792
2017-02-07 14:45:50 GMT 51.99033 0.68398 5,500 273 212 -1792
2017-02-07 14:45:47 GMT 51.99019 0.68876 5,600 273 212 -1344
2017-02-07 14:45:45 GMT 51.99005 0.69298 5,650 274 212 -960
2017-02-07 14:45:43 GMT 51.98991 0.69618 5,700 274 212 -960
2017-02-07 14:45:40 GMT 51.98978 0.69992 5,725 273 212 -896
2017-02-07 14:45:38 GMT 51.98964 0.70381 5,775 271 214 -832
2017-02-07 14:45:35 GMT 51.98950 0.70961 5,800 271 214 -832
2017-02-07 14:45:33 GMT 51.98941 0.71266 5,825 269 214 -960
2017-02-07 14:45:32 GMT 51.98941 0.71266 5,825 269 214 -960
2017-02-07 14:45:30 GMT 51.98950 0.71655 5,850 262 216 -1280
2017-02-07 14:45:27 GMT 51.98968 0.72110 5,875 258 217 -1408
2017-02-07 14:45:24 GMT 51.99047 0.72753 5,925 251 219 -1344
2017-02-07 14:45:22 GMT 51.99120 0.73135 5,950 247 220 -1344
2017-02-07 14:45:20 GMT 51.99187 0.73381 5,950 242 222 -1344
2017-02-07 14:45:14 GMT 51.99463 0.74135 6,000 231 227 -1408
2017-02-07 14:45:12 GMT 51.99596 0.74432 6,025 227 229 -1408
2017-02-07 14:45:09 GMT 51.99834 0.74814 6,050 217 232 -1536
2017-02-07 14:45:06 GMT 51.99994 0.75028 6,050 202 238 -1856
2017-02-07 14:45:04 GMT 52.00341 0.75390 6,100 206 236 -1856
2017-02-07 14:45:02 GMT 52.00539 0.75562 6,150 200 238 -1920
2017-02-07 14:45:00 GMT 52.00648 0.75641 6,150 195 239 -1984
2017-02-07 14:44:58 GMT 52.00853 0.75759 6,200 193 240 -1984
2017-02-07 14:44:53 GMT 52.01445 0.75951 6,300 183 242 -1664
2017-02-07 14:44:51 GMT 52.01678 0.75981 6,350 179 244 -1216
2017-02-07 14:44:49 GMT 52.01852 0.75989 6,375 176 245 -1024
2017-02-07 14:44:47 GMT 52.02050 0.75978 6,400 177 245 -1088
2017-02-07 14:44:45 GMT 52.02351 0.75958 6,425 176 245 -1152
2017-02-07 14:44:42 GMT 52.02641 0.75931 6,475 176 245 -1280
2017-02-07 14:44:40 GMT 52.02864 0.75908 6,500 176 245 -1600
2017-02-07 14:44:38 GMT 52.03083 0.75884 6,550 176 245 -1600
2017-02-07 14:44:36 GMT 52.03325 0.75853 6,625 175 244 -1664
2017-02-07 14:44:34 GMT 52.03544 0.75829 6,675 175 244 -1664
2017-02-07 14:44:31 GMT 52.03981 0.75775 6,775 175 244 -1664
2017-02-07 14:44:29 GMT 52.04084 0.75759 6,800 175 244 -1664
2017-02-07 14:44:27 GMT 52.04270 0.75735 6,850 175 245 -1600
2017-02-07 14:44:24 GMT 52.04622 0.75691 6,925 167 249 -1920
2017-02-07 14:44:22 GMT 52.04865 0.75661 7,000 174 247 -1472
2017-02-07 14:44:20 GMT 52.05322 0.75592 7,075 172 248 -1600
2017-02-07 14:44:18 GMT 52.05415 0.75578 7,100 171 248 -1664
2017-02-07 14:44:15 GMT 52.05657 0.75523 7,150 169 249 -1856
2017-02-07 14:44:13 GMT 52.05936 0.75447 7,225 155 253 -1536
2017-02-07 14:44:12 GMT 52.06062 0.75405 7,250 162 251 -1856
2017-02-07 14:44:10 GMT 52.06220 0.75333 7,275 127 259 -1152
2017-02-07 14:44:08 GMT 52.06574 0.75139 7,350 153 254 -1472
2017-02-07 14:44:06 GMT 52.06622 0.75111 7,375 153 254 -1472
2017-02-07 14:44:04 GMT 52.06928 0.74880 7,425 147 256 -1344
2017-02-07 14:44:02 GMT 52.07112 0.74699 7,450 139 258 -1216
2017-02-07 14:44:00 GMT 52.07333 0.74472 7,500 139 258 -1216
2017-02-07 14:43:57 GMT 52.07701 0.73977 7,575 131 258 -1216
2017-02-07 14:43:55 GMT 52.07835 0.73738 7,625 129 258 -1216
2017-02-07 14:43:53 GMT 52.07945 0.73555 7,650 106 259 -512
2017-02-07 14:43:51 GMT 52.08064 0.73294 7,700 123 258 -1088
2017-02-07 14:43:49 GMT 52.08208 0.72957 7,750 119 257 -1024
2017-02-07 14:43:46 GMT 52.08413 0.72376 7,825 111 259 -768
2017-02-07 14:43:43 GMT 52.08572 0.71762 7,875 106 259 -512
2017-02-07 14:43:41 GMT 52.08609 0.71584 7,900 104 259 -384
2017-02-07 14:43:39 GMT 52.08705 0.70984 7,950 98 258 -64
2017-02-07 14:43:37 GMT 52.08725 0.70791 7,975 95 259 128
2017-02-07 14:43:35 GMT 52.08758 0.70399 7,975 92 258 320
2017-02-07 14:43:32 GMT 52.08786 0.69771 8,000 89 258 320
2017-02-07 14:43:29 GMT 52.08781 0.69284 8,000 87 258 128
2017-02-07 14:43:27 GMT 52.08776 0.68986 8,000 87 258 64
2017-02-07 14:43:25 GMT 52.08765 0.68382 8,000 87 258 -64
2017-02-07 14:43:23 GMT 52.08753 0.68092 8,000 87 258 -64
2017-02-07 14:43:21 GMT 52.08744 0.67723 8,000 87 258 0
2017-02-07 14:43:19 GMT 52.08734 0.67354 8,000 87 258 0
2017-02-07 14:43:17 GMT 52.08723 0.66902 8,000 87 258 64
2017-02-07 14:43:15 GMT 52.08702 0.66302 8,000 87 259 64
2017-02-07 14:43:13 GMT 52.08702 0.66193 8,000 86 259 64
2017-02-07 14:43:11 GMT 52.08682 0.65605 8,000 86 259 64
2017-02-07 14:43:09 GMT 52.08674 0.65408 8,000 86 259 0
2017-02-07 14:43:07 GMT 52.08650 0.64804 8,000 85 259 -64
2017-02-07 14:43:05 GMT 52.08632 0.64380 8,000 85 258 -64
2017-02-07 14:43:03 GMT 52.08618 0.64049 8,000 84 259 0
2017-02-07 14:43:00 GMT 52.08586 0.63462 8,025 83 258 192
2017-02-07 14:42:58 GMT 52.08567 0.63179 8,025 83 257 320
2017-02-07 14:42:54 GMT 52.08516 0.62442 8,025 79 257 704
2017-02-07 14:42:52 GMT 52.08465 0.61947 8,000 76 257 832
2017-02-07 14:42:50 GMT 52.08444 0.61783 8,000 48 250 896
2017-02-07 14:42:48 GMT 52.08339 0.61119 8,000 68 255 960
2017-02-07 14:42:46 GMT 52.08298 0.60959 8,000 66 255 960
2017-02-07 14:42:44 GMT 52.08202 0.60593 8,000 60 253 896
2017-02-07 14:42:42 GMT 52.08101 0.60237 8,000 54 252 896
2017-02-07 14:42:40 GMT 52.07911 0.59774 8,000 52 251 896
2017-02-07 14:42:38 GMT 52.07845 0.59624 8,000 50 250 896
2017-02-07 14:42:36 GMT 52.07659 0.59240 8,000 44 249 896
2017-02-07 14:42:34 GMT 52.07496 0.58965 8,000 40 248 896
2017-02-07 14:42:32 GMT 52.07414 0.58838 8,000 32 246 832
2017-02-07 14:42:30 GMT 52.07236 0.58594 8,000 34 247 896
2017-02-07 14:42:28 GMT 52.07048 0.58373 8,000 30 246 832
2017-02-07 14:42:26 GMT 52.06761 0.58086 8,000 24 244 768
2017-02-07 14:42:24 GMT 52.06514 0.57898 8,000 18 243 704
2017-02-07 14:42:22 GMT 52.06403 0.57823 8,000 14 241 704
2017-02-07 14:42:20 GMT 52.06090 0.57655 8,000 10 241 640
2017-02-07 14:42:18 GMT 52.05972 0.57602 8,000 8 240 640
2017-02-07 14:42:16 GMT 52.05690 0.57506 8,000 4 239 576
2017-02-07 14:42:14 GMT 52.05448 0.57466 8,000 358 237 512
2017-02-07 14:42:12 GMT 52.05354 0.57457 8,000 356 236 512
2017-02-07 14:42:10 GMT 52.05066 0.57443 8,000 326 230 0
2017-02-07 14:42:08 GMT 52.04805 0.57482 8,000 350 234 512
2017-02-07 14:42:06 GMT 52.04638 0.57513 8,000 328 231 0
2017-02-07 14:42:04 GMT 52.04419 0.57592 8,000 343 233 320
2017-02-07 14:42:02 GMT 52.04214 0.57686 7,975 337 232 128
2017-02-07 14:42:00 GMT 52.03944 0.57851 8,000 333 232 0
2017-02-07 14:41:58 GMT 52.03848 0.57915 8,000 333 232 0
2017-02-07 14:41:56 GMT 52.03528 0.58174 8,000 328 231 0
2017-02-07 14:41:54 GMT 52.03445 0.58258 8,000 326 231 0
2017-02-07 14:41:52 GMT 52.03303 0.58395 8,000 327 230 0
2017-02-07 14:41:50 GMT 52.03023 0.58698 8,000 326 231 0
2017-02-07 14:41:48 GMT 52.02850 0.58895 8,000 325 230 0
2017-02-07 14:41:46 GMT 52.02669 0.59099 8,000 325 231 0
2017-02-07 14:41:44 GMT 52.02497 0.59303 8,000 324 231 0
2017-02-07 14:41:44 GMT 52.02443 0.59357 8,000 324 231 0
2017-02-07 14:41:41 GMT 52.02219 0.59624 8,000 323 231 0
2017-02-07 14:41:39 GMT 52.02086 0.59792 8,000 322 230 0
2017-02-07 14:41:37 GMT 52.01894 0.60028 8,000 322 230 0
2017-02-07 14:41:33 GMT 52.01601 0.60402 8,000 321 230 -64
2017-02-07 14:41:30 GMT 52.01337 0.60754 8,000 321 230 -128
2017-02-07 14:41:28 GMT 52.01133 0.61037 8,000 321 230 -64
2017-02-07 14:41:28 GMT 52.01165 0.60990 8,000 321 230 -64
2017-02-07 14:41:26 GMT 52.01088 0.61096 8,000 321 230 -64
2017-02-07 14:41:24 GMT 52.00821 0.61453 8,000 321 230 0
2017-02-07 14:41:21 GMT 52.00653 0.61680 8,000 323 230 64
2017-02-07 14:41:18 GMT 52.00350 0.62081 8,000 324 230 0
2017-02-07 14:41:16 GMT 52.00188 0.62277 8,000 328 230 -128
2017-02-07 14:41:16 GMT 52.00223 0.62225 8,000 326 230 -64
2017-02-07 14:41:14 GMT 52.00095 0.62378 8,000 330 231 -192
2017-02-07 14:41:12 GMT 51.99884 0.62592 8,000 348 237 -320
2017-02-07 14:41:10 GMT 51.99710 0.62759 8,000 335 231 0
2017-02-07 14:41:08 GMT 51.99367 0.63034 8,000 341 234 128
2017-02-07 14:41:08 GMT 51.99424 0.62991 8,000 339 233 128
2017-02-07 14:41:06 GMT 51.99266 0.63101 8,000 343 235 128
2017-02-07 14:41:04 GMT 51.99070 0.63218 7,975 347 235 -128
2017-02-07 14:41:02 GMT 51.98786 0.63352 7,975 351 237 -512
2017-02-07 14:41:00 GMT 51.98680 0.63385 7,975 353 238 -640
2017-02-07 14:40:58 GMT 51.98451 0.63446 7,975 358 239 -704
2017-02-07 14:40:56 GMT 51.98163 0.63485 8,000 0 240 -576
2017-02-07 14:40:55 GMT 51.98094 0.63492 8,000 1 240 -448
2017-02-07 14:40:54 GMT 51.97921 0.63493 8,000 2 239 -320
2017-02-07 14:40:53 GMT 51.97861 0.63492 8,000 2 239 -320
2017-02-07 14:40:51 GMT 51.97591 0.63469 8,025 2 239 64
2017-02-07 14:40:49 GMT 51.97412 0.63454 8,025 2 239 128
2017-02-07 14:40:47 GMT 51.97174 0.63431 8,000 354 235 384
2017-02-07 14:40:45 GMT 51.96890 0.63423 8,000 359 237 448
2017-02-07 14:40:43 GMT 51.96767 0.63416 8,000 354 235 384
2017-02-07 14:40:43 GMT 51.96767 0.63416 8,000 356 236 384
2017-02-07 14:40:43 GMT 51.96767 0.63416 8,000 356 236 384
2017-02-07 14:40:41 GMT 51.96552 0.63431 8,000 352 235 384
2017-02-07 14:40:39 GMT 51.96286 0.63484 8,000 348 234 320
2017-02-07 14:40:37 GMT 51.95970 0.63587 8,000 343 233 256
2017-02-07 14:40:35 GMT 51.95807 0.63666 8,000 341 232 256
2017-02-07 14:40:33 GMT 51.95654 0.63736 8,000 337 231 192
2017-02-07 14:40:31 GMT 51.95457 0.63858 8,000 333 231 128
2017-02-07 14:40:29 GMT 51.95219 0.64049 8,000 330 230 64
2017-02-07 14:40:27 GMT 51.95118 0.64137 8,000 326 229 0
2017-02-07 14:40:25 GMT 51.94926 0.64316 8,000 325 229 0
2017-02-07 14:40:23 GMT 51.94711 0.64575 8,000 319 228 -64
2017-02-07 14:40:21 GMT 51.94503 0.64843 8,000 314 228 -64
2017-02-07 14:40:19 GMT 51.94427 0.64964 8,000 312 228 -64
2017-02-07 14:40:17 GMT 51.94289 0.65204 8,000 309 227 -128
2017-02-07 14:40:15 GMT 51.94116 0.65521 8,000 305 228 -192
2017-02-07 14:40:12 GMT 51.93997 0.65781 8,000 302 227 -256
2017-02-07 14:40:10 GMT 51.93851 0.66154 8,000 298 228 -320
2017-02-07 14:40:08 GMT 51.93745 0.66467 8,000 295 227 -384
2017-02-07 14:40:08 GMT 51.93745 0.66467 8,000 295 227 -384
2017-02-07 14:40:05 GMT 51.93603 0.66971 8,000 287 226 -448
2017-02-07 14:40:03 GMT 51.93545 0.67244 8,000 284 227 -448
2017-02-07 14:40:01 GMT 51.93475 0.67596 8,000 279 227 -512
2017-02-07 14:40:01 GMT 51.93493 0.67527 8,000 280 226 -448
2017-02-07 14:39:59 GMT 51.93447 0.67825 8,000 279 227 -512
2017-02-07 14:39:57 GMT 51.93397 0.68352 8,000 273 227 -512
2017-02-07 14:39:55 GMT 51.93384 0.68710 8,000 269 228 -576
2017-02-07 14:39:53 GMT 51.93377 0.68861 8,000 265 227 -640
2017-02-07 14:39:50 GMT 51.93388 0.69313 8,000 262 228 -640
2017-02-07 14:39:48 GMT 51.93420 0.69702 8,000 247 231 -704
2017-02-07 14:39:46 GMT 51.93479 0.70179 8,000 241 234 -704
2017-02-07 14:39:43 GMT 51.93545 0.70540 8,000 241 234 -704
2017-02-07 14:39:40 GMT 51.93712 0.71184 8,000 241 234 -704
2017-02-07 14:39:40 GMT 51.93668 0.71030 8,000 243 233 -704
2017-02-07 14:39:38 GMT 51.93759 0.71342 8,000 236 234 -768
2017-02-07 14:39:36 GMT 51.93894 0.71717 8,000 234 235 -768
2017-02-07 14:39:34 GMT 51.94029 0.72039 8,000 231 236 -768
2017-02-07 14:39:32 GMT 51.94093 0.72182 8,000 228 236 -704
2017-02-07 14:39:30 GMT 51.94276 0.72533 8,000 227 236 -704
2017-02-07 14:39:28 GMT 51.94490 0.72902 8,000 223 237 -576
2017-02-07 14:39:26 GMT 51.94611 0.73090 8,000 220 239 -576
2017-02-07 14:39:24 GMT 51.94769 0.73318 8,000 217 239 -576
2017-02-07 14:39:22 GMT 51.95006 0.73608 8,000 201 244 -768
2017-02-07 14:39:19 GMT 51.95146 0.73765 8,000 210 242 -768
2017-02-07 14:39:17 GMT 51.95337 0.73954 8,000 206 242 -768
2017-02-07 14:39:17 GMT 51.95383 0.73993 8,000 206 242 -768
2017-02-07 14:39:15 GMT 51.95668 0.74219 8,000 187 247 -640
2017-02-07 14:39:13 GMT 51.95879 0.74356 8,000 197 245 -704
2017-02-07 14:39:10 GMT 51.96161 0.74503 8,000 193 246 -704
2017-02-07 14:39:08 GMT 51.96497 0.74616 8,000 187 247 -640
2017-02-07 14:39:05 GMT 51.96822 0.74676 8,000 179 250 -576
2017-02-07 14:39:03 GMT 51.96941 0.74684 8,000 177 250 -576
2017-02-07 14:39:01 GMT 51.97266 0.74669 8,000 173 250 -512
2017-02-07 14:38:59 GMT 51.97506 0.74636 8,000 167 252 -448
2017-02-07 14:38:57 GMT 51.97623 0.74608 8,000 165 252 -384
2017-02-07 14:38:54 GMT 51.97911 0.74501 8,000 157 254 -256
2017-02-07 14:38:52 GMT 51.98145 0.74379 8,000 157 254 -256
2017-02-07 14:38:50 GMT 51.98373 0.74234 8,000 152 254 -192
2017-02-07 14:38:48 GMT 51.98602 0.74051 8,000 148 255 -192
2017-02-07 14:38:46 GMT 51.98824 0.73860 8,000 142 256 -128
2017-02-07 14:38:43 GMT 51.99129 0.73509 8,000 136 257 -64
2017-02-07 14:38:41 GMT 51.99353 0.73181 8,000 132 257 0
2017-02-07 14:38:39 GMT 51.99486 0.72968 8,000 128 259 128
2017-02-07 14:38:36 GMT 51.99692 0.72563 8,000 124 259 192
2017-02-07 14:38:34 GMT 51.99834 0.72243 8,000 118 259 384
2017-02-07 14:38:32 GMT 51.99953 0.71930 8,000 116 259 384
2017-02-07 14:38:30 GMT 52.00067 0.71579 8,000 109 259 512
2017-02-07 14:38:28 GMT 52.00202 0.71042 8,000 100 258 704
2017-02-07 14:38:26 GMT 52.00271 0.70666 8,000 100 258 704
2017-02-07 14:38:22 GMT 52.00350 0.70030 8,000 91 259 960
2017-02-07 14:38:20 GMT 52.00369 0.69630 8,000 86 258 1088
2017-02-07 14:38:18 GMT 52.00365 0.69321 8,000 71 257 1024
2017-02-07 14:38:16 GMT 52.00355 0.68924 7,975 74 258 1088
2017-02-07 14:38:16 GMT 52.00341 0.68837 7,975 76 258 1088
2017-02-07 14:38:14 GMT 52.00281 0.68366 7,975 71 257 1024
2017-02-07 14:38:11 GMT 52.00191 0.67894 7,975 65 256 832
2017-02-07 14:38:09 GMT 52.00076 0.67467 7,975 61 256 704
2017-02-07 14:38:07 GMT 52.00020 0.67299 7,975 57 255 576
2017-02-07 14:38:05 GMT 51.99847 0.66818 8,000 54 255 448
2017-02-07 14:38:03 GMT 51.99778 0.66656 8,000 49 253 128
2017-02-07 14:38:01 GMT 51.99559 0.66170 8,000 49 253 128
2017-02-07 14:37:57 GMT 51.99326 0.65704 8,025 47 252 256
2017-02-07 14:37:55 GMT 51.99152 0.65376 8,025 47 251 384
2017-02-07 14:37:53 GMT 51.98982 0.65063 8,025 45 251 704
2017-02-07 14:37:49 GMT 51.98735 0.64654 8,000 41 250 960
2017-02-07 14:37:47 GMT 51.98524 0.64331 8,000 35 249 1024
2017-02-07 14:37:45 GMT 51.98291 0.64041 7,975 31 248 896
2017-02-07 14:37:44 GMT 51.98291 0.64041 7,975 31 248 896
2017-02-07 14:37:42 GMT 51.98037 0.63776 7,975 25 246 640
2017-02-07 14:37:42 GMT 51.98037 0.63776 7,975 18 244 320
2017-02-07 14:37:39 GMT 51.97746 0.63538 7,975 19 244 320
2017-02-07 14:37:36 GMT 51.97385 0.63320 8,000 15 243 192
2017-02-07 14:37:34 GMT 51.97222 0.63234 8,000 14 242 128
2017-02-07 14:37:32 GMT 51.96886 0.63095 8,000 13 243 64
2017-02-07 14:37:30 GMT 51.96835 0.63072 8,000 13 242 64
2017-02-07 14:37:28 GMT 51.96606 0.62981 8,000 13 242 0
2017-02-07 14:37:25 GMT 51.96153 0.62805 8,000 13 242 0
2017-02-07 14:37:23 GMT 51.96040 0.62763 8,000 13 242 0
2017-02-07 14:37:21 GMT 51.95714 0.62637 8,000 13 242 0
2017-02-07 14:37:18 GMT 51.95448 0.62528 8,000 13 242 64
2017-02-07 14:37:16 GMT 51.95183 0.62426 8,000 13 242 64
2017-02-07 14:37:14 GMT 51.94955 0.62340 8,000 13 242 0
2017-02-07 14:37:12 GMT 51.94830 0.62286 8,000 13 242 0
2017-02-07 14:37:10 GMT 51.94508 0.62159 8,000 13 242 0
2017-02-07 14:37:10 GMT 51.94559 0.62183 8,000 13 242 0
2017-02-07 14:37:08 GMT 51.94249 0.62058 8,000 13 242 0
2017-02-07 14:37:06 GMT 51.94038 0.61981 8,000 13 242 0
2017-02-07 14:37:02 GMT 51.93708 0.61845 8,000 13 243 0
2017-02-07 14:37:00 GMT 51.93581 0.61798 8,000 13 243 0
2017-02-07 14:36:59 GMT 51.93310 0.61699 8,000 13 243 0
2017-02-07 14:36:58 GMT 51.93256 0.61672 8,000 13 243 0
2017-02-07 14:36:56 GMT 51.93105 0.61615 8,000 13 243 0
2017-02-07 14:36:56 GMT 51.93150 0.61638 8,000 13 243 0
2017-02-07 14:36:54 GMT 51.92842 0.61516 8,000 13 242 0
2017-02-07 14:36:51 GMT 51.92581 0.61414 8,000 13 242 0
2017-02-07 14:36:51 GMT 51.92581 0.61414 8,000 13 242 0
2017-02-07 14:36:50 GMT 51.92468 0.61371 8,000 13 242 0
2017-02-07 14:36:48 GMT 51.92088 0.61225 8,000 13 242 0
2017-02-07 14:36:45 GMT 51.91855 0.61134 8,000 13 242 0
2017-02-07 14:36:43 GMT 51.91571 0.61028 8,000 13 242 0
2017-02-07 14:36:43 GMT 51.91571 0.61028 8,000 13 242 0
2017-02-07 14:36:43 GMT 51.91515 0.61006 8,000 13 243 0
2017-02-07 14:36:41 GMT 51.91454 0.60982 8,000 13 242 0
2017-02-07 14:36:39 GMT 51.91168 0.60875 8,000 13 243 0
2017-02-07 14:36:35 GMT 51.90761 0.60715 8,000 13 243 0
2017-02-07 14:36:33 GMT 51.90546 0.60631 8,000 13 243 0
2017-02-07 14:36:30 GMT 51.90188 0.60488 8,000 13 243 0
2017-02-07 14:36:28 GMT 51.90006 0.60417 8,000 14 243 0
2017-02-07 14:36:26 GMT 51.89786 0.60326 8,000 14 243 64
2017-02-07 14:36:25 GMT 51.89571 0.60242 8,000 14 243 64
2017-02-07 14:36:24 GMT 51.89625 0.60265 8,000 14 243 64
2017-02-07 14:36:22 GMT 51.89257 0.60112 8,000 13 243 0
2017-02-07 14:36:20 GMT 51.89094 0.60051 8,000 13 243 -64
2017-02-07 14:36:20 GMT 51.89094 0.60051 8,000 13 243 -64
2017-02-07 14:36:18 GMT 51.88916 0.59979 8,000 13 243 -64
2017-02-07 14:36:14 GMT 51.88391 0.59769 8,000 13 244 0
2017-02-07 14:36:12 GMT 51.88266 0.59720 8,000 13 244 0
2017-02-07 14:36:10 GMT 51.88042 0.59630 8,000 13 244 0
2017-02-07 14:36:10 GMT 51.88042 0.59630 8,000 13 244 0
2017-02-07 14:36:08 GMT 51.87763 0.59517 8,000 14 243 -64
2017-02-07 14:36:05 GMT 51.87392 0.59363 8,000 14 243 0
2017-02-07 14:36:02 GMT 51.87065 0.59235 8,000 13 244 64
2017-02-07 14:36:00 GMT 51.86850 0.59151 8,000 13 243 64
2017-02-07 14:35:57 GMT 51.86632 0.59059 8,000 13 243 0
2017-02-07 14:35:55 GMT 51.86362 0.58948 8,000 13 243 0
2017-02-07 14:35:53 GMT 51.86189 0.58884 8,000 13 243 -64
2017-02-07 14:35:51 GMT 51.85961 0.58792 8,000 13 243 -64
2017-02-07 14:35:49 GMT 51.85607 0.58647 8,000 13 243 0
2017-02-07 14:35:47 GMT 51.85469 0.58591 8,000 13 244 0
2017-02-07 14:35:43 GMT 51.85025 0.58420 8,000 13 245 -192
2017-02-07 14:35:41 GMT 51.84681 0.58281 8,000 14 244 -192
2017-02-07 14:35:38 GMT 51.84509 0.58212 8,025 14 244 -192
2017-02-07 14:35:37 GMT 51.84448 0.58189 8,025 14 244 -192
2017-02-07 14:35:37 GMT 51.84448 0.58189 8,025 14 244 -192
2017-02-07 14:35:35 GMT 51.84119 0.58049 8,025 19 246 0
2017-02-07 14:35:32 GMT 51.83852 0.57938 8,025 17 245 0
2017-02-07 14:35:30 GMT 51.83693 0.57856 8,000 19 246 0
2017-02-07 14:35:30 GMT 51.83693 0.57856 8,000 18 245 0
2017-02-07 14:35:28 GMT 51.83391 0.57694 8,000 34 252 -832
2017-02-07 14:35:26 GMT 51.83210 0.57579 7,975 25 249 -384
2017-02-07 14:35:24 GMT 51.82996 0.57419 7,975 29 250 -640
2017-02-07 14:35:22 GMT 51.82754 0.57182 7,975 36 253 -896
2017-02-07 14:35:20 GMT 51.82596 0.57022 7,975 41 255 -832
2017-02-07 14:35:17 GMT 51.82310 0.56654 8,000 44 255 -640
2017-02-07 14:35:15 GMT 51.82176 0.56450 8,000 45 255 -512
2017-02-07 14:35:13 GMT 51.81963 0.56112 8,000 46 256 -192
2017-02-07 14:35:10 GMT 51.81734 0.55718 8,000 47 255 0
2017-02-07 14:35:07 GMT 51.81500 0.55303 8,000 47 255 0
2017-02-07 14:35:06 GMT 51.81413 0.55153 8,000 47 255 0
2017-02-07 14:35:05 GMT 51.81331 0.55006 8,000 47 255 0
2017-02-07 14:35:02 GMT 51.81116 0.54627 8,000 47 254 -64
2017-02-07 14:34:59 GMT 51.80855 0.54167 8,000 47 254 -64
2017-02-07 14:34:57 GMT 51.80738 0.53955 8,000 47 254 -64
2017-02-07 14:34:55 GMT 51.80459 0.53467 8,000 47 254 -64
2017-02-07 14:34:55 GMT 51.80459 0.53467 8,000 47 254 -64
2017-02-07 14:34:54 GMT 51.80374 0.53313 8,000 47 254 -64
2017-02-07 14:34:53 GMT 51.80374 0.53313 8,000 47 254 -64
2017-02-07 14:34:51 GMT 51.80254 0.53101 8,000 47 254 -64
2017-02-07 14:34:50 GMT 51.80214 0.53024 8,000 47 254 -64
2017-02-07 14:34:48 GMT 51.80017 0.52682 8,000 47 254 -64
2017-02-07 14:34:46 GMT 51.79830 0.52345 8,000 47 254 0
2017-02-07 14:34:44 GMT 51.79644 0.52025 8,000 47 255 -64
2017-02-07 14:34:41 GMT 51.79395 0.51584 8,025 47 255 -64
2017-02-07 14:34:39 GMT 51.79239 0.51316 8,025 47 254 -128
2017-02-07 14:34:37 GMT 51.79111 0.51094 8,025 47 254 -128
2017-02-07 14:34:35 GMT 51.78988 0.50873 8,025 47 255 -128
2017-02-07 14:34:33 GMT 51.78777 0.50507 8,025 47 256 -192
2017-02-07 14:34:31 GMT 51.78603 0.50196 8,025 47 256 -192
2017-02-07 14:34:28 GMT 51.78310 0.49691 8,050 47 256 -384
2017-02-07 14:34:27 GMT 51.78346 0.49758 8,025 47 256 -384
2017-02-07 14:34:25 GMT 51.78108 0.49335 8,050 47 257 -704
2017-02-07 14:34:25 GMT 51.78108 0.49335 8,050 47 257 -640
2017-02-07 14:34:22 GMT 51.77889 0.48958 8,100 47 257 -832
2017-02-07 14:34:19 GMT 51.77637 0.48518 8,125 47 257 -896
2017-02-07 14:34:16 GMT 51.77426 0.48154 8,175 47 257 -960
2017-02-07 14:34:14 GMT 51.77271 0.47880 8,200 47 258 -960
2017-02-07 14:34:12 GMT 51.77032 0.47462 8,250 47 258 -960
2017-02-07 14:34:09 GMT 51.76856 0.47157 8,275 47 258 -960
2017-02-07 14:34:07 GMT 51.76702 0.46883 8,325 47 258 -1024
2017-02-07 14:34:05 GMT 51.76511 0.46551 8,350 47 258 -1024
2017-02-07 14:34:03 GMT 51.76341 0.46254 8,400 47 258 -1024
2017-02-07 14:34:01 GMT 51.76172 0.45964 8,425 47 258 -1024
2017-02-07 14:33:57 GMT 51.75924 0.45532 8,475 47 258 -1024
2017-02-07 14:33:55 GMT 51.75636 0.45029 8,550 47 258 -1024
2017-02-07 14:33:55 GMT 51.75636 0.45029 8,550 47 258 -1024
2017-02-07 14:33:53 GMT 51.75599 0.44960 8,550 47 258 -1024
2017-02-07 14:33:51 GMT 51.75403 0.44617 8,600 47 258 -1024
2017-02-07 14:33:49 GMT 51.75240 0.44342 8,625 47 258 -1024
2017-02-07 14:33:47 GMT 51.75050 0.44005 8,675 47 258 -1024
2017-02-07 14:33:45 GMT 51.74914 0.43778 8,700 47 258 -1088
2017-02-07 14:33:43 GMT 51.74747 0.43480 8,725 47 258 -1088
2017-02-07 14:33:43 GMT 51.74747 0.43480 8,725 47 258 -1152
2017-02-07 14:33:41 GMT 51.74616 0.43259 8,775 47 258 -1152
2017-02-07 14:33:39 GMT 51.74439 0.42946 8,800 47 258 -1152
2017-02-07 14:33:39 GMT 51.74405 0.42891 8,825 47 258 -1152
2017-02-07 14:33:37 GMT 51.74263 0.42641 8,850 47 258 -1152
2017-02-07 14:33:35 GMT 51.74011 0.42201 8,900 47 258 -1088
2017-02-07 14:33:35 GMT 51.74011 0.42201 8,900 47 258 -1088
2017-02-07 14:33:33 GMT 51.73874 0.41971 8,950 47 258 -1024
2017-02-07 14:33:33 GMT 51.73874 0.41971 8,950 47 258 -1024
2017-02-07 14:33:31 GMT 51.73797 0.41832 8,950 46 258 -1024
2017-02-07 14:33:29 GMT 51.73544 0.41399 9,025 46 258 -960
2017-02-07 14:33:29 GMT 51.73544 0.41399 9,025 46 259 -896
2017-02-07 14:33:29 GMT 51.73581 0.41458 9,000 46 259 -896
2017-02-07 14:33:27 GMT 51.73421 0.41184 9,050 46 259 -896
2017-02-07 14:33:25 GMT 51.73210 0.40828 9,075 45 259 -768
2017-02-07 14:33:23 GMT 51.73100 0.40635 9,100 45 259 -704
2017-02-07 14:33:21 GMT 51.72936 0.40360 9,125 44 259 -640
2017-02-07 14:33:21 GMT 51.72936 0.40360 9,125 41 259 -448
2017-02-07 14:33:19 GMT 51.72675 0.39940 9,175 43 259 -576
2017-02-07 14:33:17 GMT 51.72629 0.39879 9,175 40 259 -320
2017-02-07 14:33:17 GMT 51.72629 0.39879 9,175 40 259 -320
2017-02-07 14:33:15 GMT 51.72312 0.39429 9,250 26 256 -256
2017-02-07 14:33:13 GMT 51.72162 0.39246 9,275 32 258 -256
2017-02-07 14:33:11 GMT 51.72015 0.39083 9,300 28 256 -256
2017-02-07 14:33:09 GMT 51.71805 0.38875 9,325 18 254 -448
2017-02-07 14:33:07 GMT 51.71576 0.38697 9,375 14 253 -576
2017-02-07 14:33:05 GMT 51.71469 0.38620 9,375 18 254 -448
2017-02-07 14:33:02 GMT 51.71037 0.38376 9,475 8 251 -832
2017-02-07 14:33:00 GMT 51.70813 0.38300 9,500 5 251 -896
2017-02-07 14:33:00 GMT 51.70813 0.38300 9,500 7 251 -896
2017-02-07 14:32:56 GMT 51.70334 0.38200 9,600 3 250 -1024
2017-02-07 14:32:54 GMT 51.70092 0.38170 9,650 2 250 -1088
2017-02-07 14:32:52 GMT 51.69923 0.38163 9,675 2 250 -1152
2017-02-07 14:32:50 GMT 51.69603 0.38139 9,725 2 250 -1216
2017-02-07 14:32:50 GMT 51.69603 0.38139 9,725 2 250 -1216
2017-02-07 14:32:47 GMT 51.69260 0.38118 9,800 1 250 -1152
2017-02-07 14:32:45 GMT 51.69076 0.38111 9,825 1 250 -1088
2017-02-07 14:32:43 GMT 51.68834 0.38096 9,850 1 250 -768
2017-02-07 14:32:41 GMT 51.68601 0.38081 9,900 1 250 -896
2017-02-07 14:32:39 GMT 51.68381 0.38066 9,925 1 250 -704
2017-02-07 14:32:39 GMT 51.68381 0.38066 9,925 1 250 -704
2017-02-07 14:32:37 GMT 51.68070 0.38051 9,950 1 251 -448
2017-02-07 14:32:37 GMT 51.68166 0.38059 9,950 1 251 -576
2017-02-07 14:32:35 GMT 51.67773 0.38032 9,975 1 251 -384
2017-02-07 14:32:35 GMT 51.67831 0.38036 9,975 1 251 -384
2017-02-07 14:32:32 GMT 51.67536 0.38025 10,000 1 252 -192
2017-02-07 14:32:32 GMT 51.67471 0.38017 10,000 1 252 -192
2017-02-07 14:32:30 GMT 51.67242 0.38010 10,000 1 252 -64
2017-02-07 14:32:28 GMT 51.67117 0.38002 10,025 1 251 -64
2017-02-07 14:32:28 GMT 51.67117 0.38002 10,025 0 251 0
2017-02-07 14:32:25 GMT 51.66637 0.37979 10,025 359 251 256
2017-02-07 14:32:23 GMT 51.66568 0.37987 10,025 359 251 256
2017-02-07 14:32:20 GMT 51.66190 0.37987 10,000 354 249 384
2017-02-07 14:32:18 GMT 51.65893 0.38032 10,000 351 248 320
2017-02-07 14:32:15 GMT 51.65602 0.38096 10,000 343 247 192
2017-02-07 14:32:13 GMT 51.65427 0.38162 10,000 343 247 192
2017-02-07 14:32:11 GMT 51.65176 0.38284 10,000 337 245 192
2017-02-07 14:32:09 GMT 51.64966 0.38414 10,000 331 245 256
2017-02-07 14:32:07 GMT 51.64761 0.38559 10,000 326 244 192
2017-02-07 14:32:07 GMT 51.64761 0.38559 10,000 329 244 256
2017-02-07 14:32:03 GMT 51.64284 0.39031 9,975 318 244 -128
2017-02-07 14:32:01 GMT 51.64142 0.39202 9,975 314 243 -256
2017-02-07 14:31:59 GMT 51.63940 0.39521 9,975 311 243 -320
2017-02-07 14:31:57 GMT 51.63803 0.39751 9,975 308 242 -320
2017-02-07 14:31:55 GMT 51.63723 0.39909 10,000 304 241 -192
2017-02-07 14:31:52 GMT 51.63486 0.40428 10,000 302 241 -64
2017-02-07 14:31:50 GMT 51.63337 0.40817 10,000 301 241 -64
2017-02-07 14:31:48 GMT 51.63225 0.41115 10,000 301 241 -64
2017-02-07 14:31:45 GMT 51.63104 0.41435 10,000 301 240 -64
2017-02-07 14:31:45 GMT 51.63132 0.41367 10,000 301 240 -64
2017-02-07 14:31:43 GMT 51.62997 0.41733 10,000 301 240 -64
2017-02-07 14:31:41 GMT 51.62860 0.42112 10,000 301 240 0
2017-02-07 14:31:41 GMT 51.62860 0.42112 10,000 301 240 0
2017-02-07 14:31:39 GMT 51.62750 0.42409 10,000 301 240 0
2017-02-07 14:31:37 GMT 51.62631 0.42728 10,000 301 240 0
2017-02-07 14:31:35 GMT 51.62485 0.43121 10,000 301 239 -64
2017-02-07 14:31:33 GMT 51.62424 0.43289 10,000 301 239 -64
2017-02-07 14:31:31 GMT 51.62251 0.43752 10,000 301 238 -64
2017-02-07 14:31:29 GMT 51.62151 0.44027 10,000 301 238 -64
2017-02-07 14:31:27 GMT 51.62032 0.44354 10,025 301 238 -128
2017-02-07 14:31:27 GMT 51.62103 0.44151 10,000 301 238 -128
2017-02-07 14:31:25 GMT 51.61940 0.44606 10,025 301 238 -128
2017-02-07 14:31:23 GMT 51.61830 0.44910 10,025 301 238 -128
2017-02-07 14:31:21 GMT 51.61711 0.45230 10,025 301 238 -128
2017-02-07 14:31:21 GMT 51.61711 0.45230 10,025 301 238 -128
2017-02-07 14:31:19 GMT 51.61601 0.45526 10,025 301 238 -128
2017-02-07 14:31:17 GMT 51.61510 0.45771 10,025 301 238 -128
2017-02-07 14:31:15 GMT 51.61382 0.46128 10,025 301 239 -192
2017-02-07 14:31:13 GMT 51.61267 0.46425 10,025 301 239 -320
2017-02-07 14:31:11 GMT 51.61191 0.46631 10,050 301 239 -384
2017-02-07 14:31:09 GMT 51.61065 0.46974 10,050 302 239 -704
2017-02-07 14:31:07 GMT 51.60951 0.47286 10,075 302 239 -896
2017-02-07 14:31:04 GMT 51.60739 0.47836 10,125 302 240 -896
2017-02-07 14:31:01 GMT 51.60603 0.48199 10,175 301 241 -832
2017-02-07 14:30:59 GMT 51.60448 0.48614 10,200 300 241 -832
2017-02-07 14:30:57 GMT 51.60390 0.48767 10,225 300 241 -832
2017-02-07 14:30:56 GMT 51.60274 0.49088 10,250 298 241 -896
2017-02-07 14:30:55 GMT 51.60274 0.49088 10,250 299 242 -896
2017-02-07 14:30:53 GMT 51.60092 0.49614 10,300 292 242 -1152
2017-02-07 14:30:49 GMT 51.59901 0.50270 10,350 289 241 -1280
2017-02-07 14:30:49 GMT 51.59926 0.50173 10,350 290 242 -1216
2017-02-07 14:30:47 GMT 51.59878 0.50369 10,350 289 241 -1280
2017-02-07 14:30:45 GMT 51.59775 0.50790 10,400 287 241 -1344
2017-02-07 14:30:42 GMT 51.59638 0.51532 10,500 284 241 -1216
2017-02-07 14:30:39 GMT 51.59587 0.51873 10,525 283 241 -1088
2017-02-07 14:30:37 GMT 51.59519 0.52338 10,575 283 241 -1088
2017-02-07 14:30:36 GMT 51.59537 0.52237 10,575 283 241 -1088
2017-02-07 14:30:34 GMT 51.59464 0.52765 10,625 283 240 -1152
2017-02-07 14:30:31 GMT 51.59390 0.53284 10,675 283 240 -1216
2017-02-07 14:30:29 GMT 51.59335 0.53692 10,725 283 240 -1216
2017-02-07 14:30:27 GMT 51.59299 0.53937 10,750 283 240 -1152
2017-02-07 14:30:24 GMT 51.59239 0.54390 10,800 283 240 -960
2017-02-07 14:30:22 GMT 51.59180 0.54817 10,850 283 240 -960
2017-02-07 14:30:18 GMT 51.59091 0.55466 10,900 283 241 -768
2017-02-07 14:30:16 GMT 51.59026 0.55916 10,950 283 242 -512
2017-02-07 14:30:15 GMT 51.59026 0.55916 10,950 283 242 -576
2017-02-07 14:30:13 GMT 51.58975 0.56297 10,975 283 243 -192
2017-02-07 14:30:11 GMT 51.58919 0.56679 10,975 283 244 0
2017-02-07 14:30:09 GMT 51.58868 0.57040 11,000 283 246 64
2017-02-07 14:30:07 GMT 51.58821 0.57388 11,000 283 246 0
2017-02-07 14:30:05 GMT 51.58754 0.57879 11,000 283 249 0
2017-02-07 14:30:03 GMT 51.58708 0.58183 11,000 283 250 0
2017-02-07 14:30:00 GMT 51.58608 0.58896 11,000 283 252 64
2017-02-07 14:29:58 GMT 51.58557 0.59252 11,000 283 253 64
2017-02-07 14:29:56 GMT 51.58533 0.59418 11,000 283 257 64
2017-02-07 14:29:54 GMT 51.58477 0.59815 11,000 283 258 64
2017-02-07 14:29:52 GMT 51.58402 0.60358 10,975 283 259 64
2017-02-07 14:29:50 GMT 51.58370 0.60570 11,000 283 261 0
2017-02-07 14:29:47 GMT 51.58292 0.61123 10,975 283 263 0
2017-02-07 14:29:45 GMT 51.58223 0.61612 11,000 283 265 0
2017-02-07 14:29:43 GMT 51.58182 0.61902 11,000 283 267 0
2017-02-07 14:29:43 GMT 51.58163 0.62006 11,000 283 267 0
2017-02-07 14:29:40 GMT 51.58100 0.62477 11,000 283 270 64
2017-02-07 14:29:37 GMT 51.58044 0.62882 11,000 283 271 64
2017-02-07 14:29:35 GMT 51.57979 0.63339 11,000 283 273 0
2017-02-07 14:29:35 GMT 51.57962 0.63453 11,000 283 274 0
2017-02-07 14:29:33 GMT 51.57912 0.63840 11,000 283 275 0
2017-02-07 14:29:31 GMT 51.57857 0.64226 11,000 282 277 -64
2017-02-07 14:29:29 GMT 51.57806 0.64619 11,000 282 278 -128
2017-02-07 14:29:29 GMT 51.57806 0.64619 11,000 282 278 -128
2017-02-07 14:29:27 GMT 51.57747 0.65050 11,000 282 281 -64
2017-02-07 14:29:25 GMT 51.57709 0.65369 11,000 282 281 -64
2017-02-07 14:29:23 GMT 51.57637 0.65925 11,000 281 284 64
2017-02-07 14:29:21 GMT 51.57596 0.66274 11,000 280 287 64
2017-02-07 14:29:19 GMT 51.57532 0.66816 11,000 279 288 0
2017-02-07 14:29:17 GMT 51.57509 0.67017 11,000 278 289 -64
2017-02-07 14:29:13 GMT 51.57426 0.68026 10,975 272 294 -384
2017-02-07 14:29:11 GMT 51.57420 0.68336 10,975 268 297 -448
2017-02-07 14:29:09 GMT 51.57413 0.68917 10,975 267 298 -512
2017-02-07 14:29:07 GMT 51.57417 0.69229 10,975 264 300 -512
2017-02-07 14:29:04 GMT 51.57462 0.69954 11,000 261 302 -384
2017-02-07 14:29:02 GMT 51.57491 0.70290 11,000 260 304 -256
2017-02-07 14:29:00 GMT 51.57541 0.70750 11,000 260 305 -192
2017-02-07 14:29:00 GMT 51.57541 0.70750 11,000 260 306 -128
2017-02-07 14:28:58 GMT 51.57620 0.71442 11,000 260 308 -64
2017-02-07 14:28:57 GMT 51.57611 0.71342 11,000 260 308 -64
2017-02-07 14:28:54 GMT 51.57704 0.72128 11,000 260 320 0
2017-02-07 14:28:54 GMT 51.57704 0.72128 11,000 260 311 128
2017-02-07 14:28:54 GMT 51.57704 0.72128 11,000 260 311 128
2017-02-07 14:28:54 GMT 51.57704 0.72128 11,000 260 311 128
2017-02-07 14:28:52 GMT 51.57760 0.72594 11,000 260 315 0
2017-02-07 14:28:50 GMT 51.57848 0.73304 11,000 260 317 0
2017-02-07 14:28:50 GMT 51.57820 0.73082 11,000 260 316 0
2017-02-07 14:28:49 GMT 51.57830 0.73189 11,000 260 316 0
2017-02-07 14:28:47 GMT 51.57890 0.73669 11,000 260 318 0
2017-02-07 14:28:45 GMT 51.57953 0.74202 11,000 260 323 0
2017-02-07 14:28:43 GMT 51.58008 0.74670 11,000 260 323 0
2017-02-07 14:28:39 GMT 51.58136 0.75776 11,000 260 328 -128
2017-02-07 14:28:37 GMT 51.58182 0.76147 11,000 260 329 -128
2017-02-07 14:28:36 GMT 51.58207 0.76370 11,000 260 330 -128
2017-02-07 14:28:36 GMT 51.58182 0.76147 11,000 260 333 -192
2017-02-07 14:28:34 GMT 51.58272 0.76927 11,025 260 332 -192
2017-02-07 14:28:32 GMT 51.58314 0.77286 11,025 260 334 -128
2017-02-07 14:28:29 GMT 51.58398 0.77995 11,025 260 337 -128
2017-02-07 14:28:27 GMT 51.58466 0.78545 11,025 260 339 -128
2017-02-07 14:28:25 GMT 51.58521 0.79012 11,025 260 341 -256
2017-02-07 14:28:22 GMT 51.58616 0.79857 11,050 260 344 -512
2017-02-07 14:28:19 GMT 51.58717 0.80690 11,075 260 346 -832
2017-02-07 14:28:16 GMT 51.58812 0.81482 11,125 260 348 -1088
2017-02-07 14:28:15 GMT 51.58812 0.81482 11,125 260 348 -1088
2017-02-07 14:28:13 GMT 51.58868 0.81963 11,150 260 349 -1216
2017-02-07 14:28:11 GMT 51.58928 0.82512 11,200 260 350 -1472
2017-02-07 14:28:08 GMT 51.59040 0.83443 11,300 260 352 -1728
2017-02-07 14:28:05 GMT 51.59139 0.84276 11,400 260 352 -1984
2017-02-07 14:28:03 GMT 51.59152 0.84412 11,400 260 352 -2048
2017-02-07 14:28:03 GMT 51.59152 0.84412 11,400 260 352 -2048
2017-02-07 14:28:01 GMT 51.59244 0.85218 11,525 260 353 -2048
2017-02-07 14:27:59 GMT 51.59291 0.85586 11,575 260 353 -2048
2017-02-07 14:27:56 GMT 51.59372 0.86280 11,650 260 354 -2048
2017-02-07 14:27:54 GMT 51.59468 0.87090 11,775 260 353 -2112
2017-02-07 14:27:52 GMT 51.59500 0.87371 11,800 260 353 -2112
2017-02-07 14:27:52 GMT 51.59500 0.87371 11,800 260 354 -2240
2017-02-07 14:27:50 GMT 51.59589 0.88142 11,925 260 354 -2240
2017-02-07 14:27:47 GMT 51.59687 0.89012 12,050 260 354 -2240
2017-02-07 14:27:45 GMT 51.59701 0.89165 12,075 261 354 -2112
2017-02-07 14:27:43 GMT 51.59775 0.89813 12,175 261 355 -2048
2017-02-07 14:27:41 GMT 51.59804 0.90073 12,200 261 355 -2048
2017-02-07 14:27:38 GMT 51.59929 0.91225 12,350 261 355 -2048
2017-02-07 14:27:36 GMT 51.59985 0.91759 12,425 261 355 -2176
2017-02-07 14:27:34 GMT 51.60041 0.92293 12,500 261 356 -2048
2017-02-07 14:27:32 GMT 51.60083 0.92697 12,575 261 356 -2176
2017-02-07 14:27:29 GMT 51.60178 0.93606 12,700 261 356 -2048
2017-02-07 14:27:27 GMT 51.60214 0.93955 12,750 261 357 -1984
2017-02-07 14:27:25 GMT 51.60283 0.94624 12,825 261 357 -2048
2017-02-07 14:27:22 GMT 51.60338 0.95128 12,900 261 357 -2176
2017-02-07 14:27:21 GMT 51.60393 0.95640 12,950 262 359 -2176
2017-02-07 14:27:20 GMT 51.60393 0.95640 12,950 261 357 -2176
2017-02-07 14:27:17 GMT 51.60489 0.96613 13,100 261 358 -2240
2017-02-07 14:27:15 GMT 51.60548 0.97170 13,175 261 358 -2240
2017-02-07 14:27:13 GMT 51.60608 0.97771 13,275 262 359 -2176
2017-02-07 14:27:11 GMT 51.60645 0.98127 13,325 262 359 -2176
2017-02-07 14:27:09 GMT 51.60688 0.98579 13,375 262 359 -2176
2017-02-07 14:27:07 GMT 51.60730 0.99014 13,450 262 359 -2176
2017-02-07 14:27:05 GMT 51.60795 0.99663 13,525 262 360 -2112
2017-02-07 14:27:05 GMT 51.60809 0.99812 13,550 262 360 -2048
2017-02-07 14:27:03 GMT 51.60846 1.00212 13,600 262 360 -2048
2017-02-07 14:27:01 GMT 51.60910 1.00889 13,700 262 361 -1920
2017-02-07 14:26:59 GMT 51.60951 1.01282 13,750 262 361 -1920
2017-02-07 14:26:57 GMT 51.61011 1.01935 13,825 262 362 -1792
2017-02-07 14:26:54 GMT 51.61093 1.02821 13,925 262 362 -1792
2017-02-07 14:26:51 GMT 51.61162 1.03524 14,025 262 363 -1920
2017-02-07 14:26:48 GMT 51.61233 1.04324 14,100 262 363 -2368
2017-02-07 14:26:48 GMT 51.61233 1.04324 14,100 262 363 -2496
2017-02-07 14:26:44 GMT 51.61335 1.05431 14,275 262 363 -2816
2017-02-07 14:26:42 GMT 51.61372 1.05850 14,350 262 362 -3136
2017-02-07 14:26:40 GMT 51.61414 1.06263 14,425 262 361 -3200
2017-02-07 14:26:37 GMT 51.61521 1.07430 14,675 262 360 -3264
2017-02-07 14:26:37 GMT 51.61510 1.07295 14,650 262 360 -3264
2017-02-07 14:26:37 GMT 51.61510 1.07295 14,650 262 360 -3264
2017-02-07 14:26:35 GMT 51.61535 1.07574 14,700 262 360 -3264
2017-02-07 14:26:33 GMT 51.61591 1.08208 14,825 262 357 -3520
2017-02-07 14:26:33 GMT 51.61582 1.08078 14,800 262 357 -3456
2017-02-07 14:26:31 GMT 51.61656 1.08920 14,975 262 356 -3520
2017-02-07 14:26:31 GMT 51.61656 1.08920 14,975 262 356 -3520
2017-02-07 14:26:29 GMT 51.61711 1.09470 15,100 262 355 -3520
2017-02-07 14:26:25 GMT 51.61789 1.10323 15,300 262 353 -3200
2017-02-07 14:26:23 GMT 51.61861 1.11099 15,450 262 353 -2880
2017-02-07 14:26:21 GMT 51.61894 1.11474 15,525 262 353 -2560
2017-02-07 14:26:20 GMT 51.61908 1.11618 15,575 262 353 -2560
2017-02-07 14:26:19 GMT 51.61949 1.12053 15,650 262 353 -2240
2017-02-07 14:26:17 GMT 51.61986 1.12432 15,700 262 353 -2176
2017-02-07 14:26:15 GMT 51.62045 1.13063 15,800 262 354 -1984
2017-02-07 14:26:12 GMT 51.62126 1.13907 15,900 262 354 -1920
2017-02-07 14:26:10 GMT 51.62151 1.14169 15,925 262 354 -1984
2017-02-07 14:26:08 GMT 51.62215 1.14830 16,025 262 354 -1920
2017-02-07 14:26:06 GMT 51.62242 1.15097 16,050 262 354 -1920
2017-02-07 14:26:04 GMT 51.62317 1.15868 16,150 262 355 -1856
2017-02-07 14:26:02 GMT 51.62347 1.16151 16,175 262 355 -1856
2017-02-07 14:26:00 GMT 51.62415 1.16829 16,275 262 356 -1792
2017-02-07 14:25:58 GMT 51.62466 1.17378 16,325 262 355 -1728
2017-02-07 14:25:55 GMT 51.62531 1.18080 16,425 263 356 -1600
2017-02-07 14:25:53 GMT 51.62604 1.18905 16,500 264 357 -1536
2017-02-07 14:25:53 GMT 51.62604 1.18905 16,500 264 358 -1472
2017-02-07 14:25:53 GMT 51.62604 1.18905 16,500 264 357 -1472
2017-02-07 14:25:51 GMT 51.62625 1.19141 16,525 264 358 -1472
2017-02-07 14:25:48 GMT 51.62699 1.20140 16,650 267 360 -1216
2017-02-07 14:25:47 GMT 51.62699 1.20140 16,650 266 360 -1280
2017-02-07 14:25:45 GMT 51.62736 1.20827 16,700 267 360 -1216
2017-02-07 14:25:42 GMT 51.62782 1.21918 16,800 269 363 -896
2017-02-07 14:25:40 GMT 51.62782 1.22030 16,800 269 363 -896
2017-02-07 14:25:38 GMT 51.62801 1.22673 16,850 270 365 -768
2017-02-07 14:25:36 GMT 51.62806 1.23421 16,900 271 368 -640
2017-02-07 14:25:33 GMT 51.62811 1.23787 16,900 272 370 -640
2017-02-07 14:25:31 GMT 51.62797 1.24893 16,975 272 373 -1024
2017-02-07 14:25:29 GMT 51.62787 1.25318 17,000 272 373 -1216
2017-02-07 14:25:26 GMT 51.62778 1.25734 17,025 272 374 -1408
2017-02-07 14:25:26 GMT 51.62778 1.25734 17,025 272 374 -1728
2017-02-07 14:25:24 GMT 51.62764 1.26439 17,075 272 375 -2048
2017-02-07 14:25:20 GMT 51.62732 1.27954 17,275 272 375 -2304
2017-02-07 14:25:18 GMT 51.62727 1.28242 17,325 272 375 -2304
2017-02-07 14:25:18 GMT 51.62727 1.28080 17,300 272 375 -2240
2017-02-07 14:25:18 GMT 51.62727 1.28080 17,300 272 375 -2304
2017-02-07 14:25:16 GMT 51.62713 1.28914 17,400 272 376 -2240
2017-02-07 14:25:13 GMT 51.62699 1.29456 17,475 272 376 -2176
2017-02-07 14:25:09 GMT 51.62668 1.30908 17,675 272 377 -2048
2017-02-07 14:25:07 GMT 51.62663 1.31175 17,700 272 378 -1984
2017-02-07 14:25:05 GMT 51.62649 1.31903 17,800 272 378 -1984
2017-02-07 14:25:03 GMT 51.62638 1.32271 17,850 272 378 -1984
2017-02-07 14:24:58 GMT 51.62601 1.34026 18,050 273 379 -1920
2017-02-07 14:24:58 GMT 51.62601 1.34026 18,050 273 385 -2304
2017-02-07 14:24:56 GMT 51.62585 1.34620 18,125 273 380 -1856
2017-02-07 14:24:54 GMT 51.62578 1.35025 18,175 273 382 -1792
2017-02-07 14:24:54 GMT 51.62578 1.35025 18,175 273 381 -1856
2017-02-07 14:24:52 GMT 51.62572 1.35317 18,200 273 381 -1792
2017-02-07 14:24:49 GMT 51.62545 1.36276 18,300 273 383 -1792
2017-02-07 14:24:47 GMT 51.62531 1.36833 18,375 273 384 -2048
2017-02-07 14:24:45 GMT 51.62517 1.37375 18,425 273 383 -1856
2017-02-07 14:24:42 GMT 51.62494 1.38279 18,525 273 384 -2048
2017-02-07 14:24:40 GMT 51.62476 1.38843 18,600 273 385 -2304
2017-02-07 14:24:36 GMT 51.62443 1.40144 18,775 272 385 -2560
2017-02-07 14:24:34 GMT 51.62429 1.40755 18,875 269 383 -2880
2017-02-07 14:24:32 GMT 51.62416 1.41501 18,975 271 384 -2816
2017-02-07 14:24:27 GMT 51.62412 1.42600 19,150 269 383 -2880
2017-02-07 14:24:25 GMT 51.62420 1.43143 19,250 269 383 -2880
2017-02-07 14:24:23 GMT 51.62424 1.43722 19,350 268 382 -2880
2017-02-07 14:24:21 GMT 51.62438 1.44211 19,425 268 382 -2880
2017-02-07 14:24:18 GMT 51.62466 1.45435 19,625 268 381 -2624
2017-02-07 14:24:16 GMT 51.62471 1.45569 19,650 268 381 -2624
2017-02-07 14:24:14 GMT 51.62489 1.46259 19,750 268 381 -2496
2017-02-07 14:24:14 GMT 51.62489 1.46259 19,750 268 381 -2496
2017-02-07 14:24:12 GMT 51.62508 1.46816 19,850 268 381 -2432
2017-02-07 14:24:10 GMT 51.62521 1.47284 19,925 268 381 -2432
2017-02-07 14:24:06 GMT 51.62555 1.48552 20,100 268 382 -2560
2017-02-07 14:24:03 GMT 51.62573 1.49361 20,225 268 381 -2688
2017-02-07 14:24:01 GMT 51.62592 1.49880 20,300 267 381 -2944
2017-02-07 14:23:59 GMT 51.62611 1.50474 20,400 267 381 -3008
2017-02-07 14:23:59 GMT 51.62611 1.50474 20,400 267 381 -3008
2017-02-07 14:23:57 GMT 51.62640 1.51307 20,575 266 380 -3072
2017-02-07 14:23:55 GMT 51.62653 1.51611 20,625 265 379 -2560
2017-02-07 14:23:53 GMT 51.62686 1.52346 20,750 265 379 -2752
2017-02-07 14:23:51 GMT 51.62727 1.53069 20,875 265 379 -2176
2017-02-07 14:23:50 GMT 51.62746 1.53393 20,925 265 379 -2176
2017-02-07 14:23:49 GMT 51.62746 1.53393 20,925 265 379 -2176
2017-02-07 14:23:49 GMT 51.62736 1.53236 20,900 264 381 -1792
2017-02-07 14:23:47 GMT 51.62774 1.53847 20,975 265 379 -2176
2017-02-07 14:23:45 GMT 51.62801 1.54297 21,025 264 381 -1472
2017-02-07 14:23:43 GMT 51.62874 1.55278 21,100 263 384 -1152
2017-02-07 14:23:41 GMT 51.62911 1.55739 21,125 263 389 -1792
2017-02-07 14:23:39 GMT 51.62974 1.56509 21,175 262 387 -1472
2017-02-07 14:23:37 GMT 51.62974 1.56509 21,175 263 386 -1280
2017-02-07 14:23:35 GMT 51.63039 1.57242 21,225 262 387 -1536
2017-02-07 14:23:32 GMT 51.63137 1.58348 21,350 263 389 -1792
2017-02-07 14:23:30 GMT 51.63183 1.58890 21,400 263 389 -1792
2017-02-07 14:23:28 GMT 51.63225 1.59348 21,450 263 390 -1856
2017-02-07 14:23:28 GMT 51.63249 1.59673 21,475 263 390 -1856
2017-02-07 14:23:26 GMT 51.63249 1.59673 21,475 263 390 -1856
2017-02-07 14:23:26 GMT 51.63263 1.59799 21,500 263 390 -1856
2017-02-07 14:23:24 GMT 51.63313 1.60386 21,550 263 391 -1984
2017-02-07 14:23:22 GMT 51.63388 1.61224 21,650 263 392 -2176
2017-02-07 14:23:20 GMT 51.63414 1.61499 21,700 263 392 -2368
2017-02-07 14:23:18 GMT 51.63506 1.62553 21,850 263 393 -2624
2017-02-07 14:23:14 GMT 51.63565 1.63258 21,950 263 392 -3072
2017-02-07 14:23:14 GMT 51.63565 1.63258 21,950 263 393 -2944
2017-02-07 14:23:10 GMT 51.63686 1.64703 22,200 263 392 -3072
2017-02-07 14:23:08 GMT 51.63732 1.65268 22,300 263 392 -3136
2017-02-07 14:23:06 GMT 51.63779 1.65817 22,400 263 391 -3136
2017-02-07 14:23:03 GMT 51.63826 1.66389 22,525 263 391 -2944
2017-02-07 14:23:01 GMT 51.63877 1.67000 22,625 263 391 -2560
2017-02-07 14:22:59 GMT 51.63931 1.67735 22,750 263 391 -2560
2017-02-07 14:22:57 GMT 51.63961 1.68068 22,800 263 390 -2368
2017-02-07 14:22:55 GMT 51.64023 1.68855 22,925 263 390 -2304
2017-02-07 14:22:53 GMT 51.64049 1.69235 22,975 263 390 -2240
2017-02-07 14:22:50 GMT 51.64160 1.70652 23,150 263 391 -1728
2017-02-07 14:22:46 GMT 51.64215 1.71387 23,225 264 392 -1536
2017-02-07 14:22:44 GMT 51.64272 1.72127 23,300 264 393 -2240
2017-02-07 14:22:42 GMT 51.64307 1.72567 23,350 264 392 -1984
2017-02-07 14:22:39 GMT 51.64370 1.73401 23,425 264 393 -2112
2017-02-07 14:22:39 GMT 51.64361 1.73271 23,425 264 393 -2240
2017-02-07 14:22:37 GMT 51.64421 1.74081 23,525 264 393 -2496
2017-02-07 14:22:37 GMT 51.64421 1.74081 23,525 264 393 -2496
2017-02-07 14:22:35 GMT 51.64449 1.74416 23,550 264 393 -2496
2017-02-07 14:22:33 GMT 51.64526 1.75462 23,700 264 393 -2496
2017-02-07 14:22:31 GMT 51.64558 1.75878 23,775 263 394 -2432
2017-02-07 14:22:28 GMT 51.64613 1.76598 23,875 263 394 -2432
2017-02-07 14:22:26 GMT 51.64677 1.77383 24,000 263 394 -2432
2017-02-07 14:22:24 GMT 51.64710 1.77834 24,050 263 394 -2432
2017-02-07 14:22:23 GMT 51.64746 1.78283 24,125 263 394 -2496
2017-02-07 14:22:23 GMT 51.64746 1.78283 24,125 263 394 -2432
2017-02-07 14:22:22 GMT 51.64771 1.78574 24,175 263 394 -2432
2017-02-07 14:22:20 GMT 51.64813 1.79108 24,250 263 394 -2496
2017-02-07 14:22:17 GMT 51.64879 1.79960 24,375 263 394 -2432
2017-02-07 14:22:15 GMT 51.64925 1.80547 24,450 263 394 -2368
2017-02-07 14:22:13 GMT 51.64966 1.81052 24,525 263 394 -2240
2017-02-07 14:22:11 GMT 51.65025 1.81764 24,625 263 394 -1920
2017-02-07 14:22:09 GMT 51.65066 1.82306 24,700 263 394 -1536
2017-02-07 14:22:07 GMT 51.65112 1.82870 24,775 263 397 -64
2017-02-07 14:22:04 GMT 51.65180 1.83716 24,850 263 395 -832
2017-02-07 14:22:03 GMT 51.65180 1.83716 24,850 263 395 -1216
2017-02-07 14:22:01 GMT 51.65250 1.84644 24,925 263 395 -832
2017-02-07 14:21:59 GMT 51.65300 1.85231 24,950 263 396 -576
2017-02-07 14:21:57 GMT 51.65341 1.85788 24,975 263 396 -256
2017-02-07 14:21:57 GMT 51.65329 1.85638 24,975 263 396 -384
2017-02-07 14:21:57 GMT 51.65350 1.85906 25,000 263 396 -256
2017-02-07 14:21:55 GMT 51.65404 1.86577 25,000 263 409 -768
2017-02-07 14:21:53 GMT 51.65418 1.86745 25,000 263 397 -64
2017-02-07 14:21:51 GMT 51.65478 1.87488 25,025 263 398 -64
2017-02-07 14:21:51 GMT 51.65450 1.87180 25,025 263 397 -64
2017-02-07 14:21:49 GMT 51.65501 1.87790 25,025 263 399 -128
2017-02-07 14:21:47 GMT 51.65584 1.88824 25,025 263 399 -128
2017-02-07 14:21:47 GMT 51.65595 1.88980 25,025 263 402 -128
2017-02-07 14:21:45 GMT 51.65620 1.89284 25,025 263 403 -128
2017-02-07 14:21:43 GMT 51.65671 1.89893 25,025 263 401 -128
2017-02-07 14:21:41 GMT 51.65692 1.90193 25,025 263 405 -192
2017-02-07 14:21:39 GMT 51.65772 1.91169 25,025 263 406 -256
2017-02-07 14:21:37 GMT 51.65832 1.91948 25,025 263 405 -192
2017-02-07 14:21:34 GMT 51.65868 1.92372 25,050 263 407 -384
2017-02-07 14:21:32 GMT 51.65944 1.93329 25,050 263 408 -512
2017-02-07 14:21:32 GMT 51.65944 1.93329 25,050 263 408 -448
2017-02-07 14:21:30 GMT 51.66000 1.94013 25,075 263 409 -576
2017-02-07 14:21:28 GMT 51.66037 1.94443 25,075 263 409 -704
2017-02-07 14:21:26 GMT 51.66096 1.95200 25,125 263 410 -832
2017-02-07 14:21:24 GMT 51.66130 1.95633 25,150 263 410 -1088
2017-02-07 14:21:21 GMT 51.66202 1.96529 25,200 263 410 -1280
2017-02-07 14:21:19 GMT 51.66228 1.96838 25,200 263 410 -1280
2017-02-07 14:21:19 GMT 51.66243 1.97012 25,225 263 411 -1664
2017-02-07 14:21:17 GMT 51.66289 1.97583 25,250 263 410 -1472
2017-02-07 14:21:15 GMT 51.66353 1.98348 25,325 263 411 -1728
2017-02-07 14:21:13 GMT 51.66389 1.98801 25,350 263 411 -1920
2017-02-07 14:21:10 GMT 51.66461 1.99722 25,450 263 411 -2112
2017-02-07 14:21:08 GMT 51.66536 2.00642 25,550 263 411 -2688
2017-02-07 14:21:05 GMT 51.66609 2.01569 25,675 263 411 -3136
2017-02-07 14:21:05 GMT 51.66586 2.01228 25,650 263 411 -2816
2017-02-07 14:21:03 GMT 51.66656 2.02141 25,775 263 411 -3264
2017-02-07 14:21:02 GMT 51.66656 2.02141 25,775 263 411 -3264
2017-02-07 14:21:01 GMT 51.66707 2.02721 25,875 263 411 -3264
2017-02-07 14:20:59 GMT 51.66733 2.03047 25,950 263 409 -3776
2017-02-07 14:20:57 GMT 51.66782 2.03628 26,050 262 409 -3840
2017-02-07 14:20:54 GMT 51.66861 2.04552 26,275 262 407 -3776
2017-02-07 14:20:52 GMT 51.66917 2.05170 26,400 260 407 -3328
2017-02-07 14:20:50 GMT 51.66962 2.05622 26,475 261 407 -3456
2017-02-07 14:20:48 GMT 51.67042 2.06390 26,625 260 407 -3008
2017-02-07 14:20:46 GMT 51.67108 2.06922 26,725 257 407 -2240
2017-02-07 14:20:44 GMT 51.67187 2.07558 26,800 257 407 -2304
2017-02-07 14:20:42 GMT 51.67275 2.08183 26,875 257 407 -2240
2017-02-07 14:20:40 GMT 51.67342 2.08629 26,925 254 408 -2304
2017-02-07 14:20:39 GMT 51.67442 2.09245 27,000 254 408 -2304
2017-02-07 14:20:38 GMT 51.67442 2.09245 27,000 254 408 -2304
2017-02-07 14:20:36 GMT 51.67596 2.10121 27,100 253 408 -2368
2017-02-07 14:20:33 GMT 51.67754 2.10945 27,200 252 409 -2432
2017-02-07 14:20:31 GMT 51.67820 2.11258 27,250 251 409 -2368
2017-02-07 14:20:29 GMT 51.67932 2.11769 27,325 250 409 -2368
2017-02-07 14:20:26 GMT 51.68133 2.12652 27,425 249 409 -1856
2017-02-07 14:20:24 GMT 51.68341 2.13524 27,550 249 409 -1856
2017-02-07 14:20:22 GMT 51.68490 2.14142 27,625 249 409 -1856
2017-02-07 14:20:19 GMT 51.68692 2.14983 27,750 249 410 -1472
2017-02-07 14:20:18 GMT 51.68692 2.14983 27,750 249 410 -1536
2017-02-07 14:20:16 GMT 51.68797 2.15428 27,775 249 410 -1344
2017-02-07 14:20:14 GMT 51.68974 2.16164 27,850 249 410 -1152
2017-02-07 14:20:12 GMT 51.69072 2.16572 27,875 249 410 -960
2017-02-07 14:20:10 GMT 51.69241 2.17270 27,925 249 410 -384
2017-02-07 14:20:08 GMT 51.69440 2.18094 27,950 249 410 -384
2017-02-07 14:20:05 GMT 51.69658 2.18999 27,975 249 410 -128
2017-02-07 14:20:03 GMT 51.69731 2.19311 27,975 249 410 -64
2017-02-07 14:20:01 GMT 51.69952 2.20238 28,000 249 409 0
2017-02-07 14:20:00 GMT 51.69952 2.20238 28,000 249 409 0
2017-02-07 14:19:58 GMT 51.70056 2.20655 28,000 249 409 0
2017-02-07 14:19:56 GMT 51.70294 2.21649 28,000 249 409 -64
2017-02-07 14:19:54 GMT 51.70408 2.22122 28,000 249 409 -128
2017-02-07 14:19:52 GMT 51.70538 2.22664 28,000 249 409 -64
2017-02-07 14:19:51 GMT 51.70538 2.22664 28,000 249 409 -128
2017-02-07 14:19:49 GMT 51.70645 2.23099 28,000 249 409 -128
2017-02-07 14:19:47 GMT 51.70799 2.23747 28,000 249 408 -192
2017-02-07 14:19:45 GMT 51.70967 2.24440 28,000 249 408 -256
2017-02-07 14:19:43 GMT 51.71141 2.25160 28,000 249 408 -384
2017-02-07 14:19:40 GMT 51.71344 2.25990 28,025 249 408 -256
2017-02-07 14:19:40 GMT 51.71379 2.26148 28,025 249 408 -256
2017-02-07 14:19:38 GMT 51.71416 2.26296 28,025 249 408 -256
2017-02-07 14:19:36 GMT 51.71558 2.26890 28,050 249 408 -256
2017-02-07 14:19:34 GMT 51.71704 2.27476 28,050 249 408 -320
2017-02-07 14:19:32 GMT 51.71851 2.28096 28,050 249 408 -512
2017-02-07 14:19:30 GMT 51.71995 2.28691 28,075 249 408 -512
2017-02-07 14:19:28 GMT 51.72070 2.29006 28,075 249 409 -576
2017-02-07 14:19:26 GMT 51.72212 2.29585 28,100 249 410 -704
2017-02-07 14:19:24 GMT 51.72424 2.30454 28,125 249 410 -896
2017-02-07 14:19:21 GMT 51.72610 2.31232 28,150 249 413 -1152
2017-02-07 14:19:19 GMT 51.72752 2.31812 28,200 249 413 -1280
2017-02-07 14:19:19 GMT 51.72752 2.31812 28,200 249 414 -1536
2017-02-07 14:19:17 GMT 51.72852 2.32224 28,225 249 414 -1600
2017-02-07 14:19:15 GMT 51.72996 2.32819 28,275 249 415 -1728
2017-02-07 14:19:12 GMT 51.73302 2.34090 28,400 249 419 -1728
2017-02-07 14:19:10 GMT 51.73338 2.34254 28,425 249 417 -1600
2017-02-07 14:19:08 GMT 51.73471 2.34803 28,475 249 419 -1664
2017-02-07 14:19:06 GMT 51.73650 2.35530 28,550 249 419 -1664
2017-02-07 14:19:04 GMT 51.73755 2.35976 28,575 249 420 -1728
2017-02-07 14:19:02 GMT 51.73932 2.36717 28,650 249 421 -1920
2017-02-07 14:19:00 GMT 51.74109 2.37450 28,725 250 421 -2048
2017-02-07 14:18:57 GMT 51.74313 2.38314 28,850 250 422 -2048
2017-02-07 14:18:55 GMT 51.74393 2.38640 28,875 250 423 -1920
2017-02-07 14:18:53 GMT 51.74523 2.39197 28,950 250 425 -1728
2017-02-07 14:18:51 GMT 51.74735 2.40081 29,050 250 426 -1728
2017-02-07 14:18:49 GMT 51.74840 2.40519 29,100 250 426 -1728
2017-02-07 14:18:49 GMT 51.74867 2.40645 29,100 250 426 -1728
2017-02-07 14:18:47 GMT 51.74975 2.41089 29,150 250 426 -1792
2017-02-07 14:18:45 GMT 51.75082 2.41554 29,200 250 428 -2176
2017-02-07 14:18:45 GMT 51.75156 2.41862 29,175 250 426 -1856
2017-02-07 14:18:43 GMT 51.75231 2.42172 29,250 250 428 -2240
2017-02-07 14:18:41 GMT 51.75458 2.43139 29,375 250 428 -2304
2017-02-07 14:18:39 GMT 51.75577 2.43644 29,450 250 429 -2368
2017-02-07 14:18:38 GMT 51.75577 2.43644 29,450 250 430 -2304
2017-02-07 14:18:36 GMT 51.75762 2.44423 29,550 250 429 -2368
2017-02-07 14:18:34 GMT 51.75943 2.45201 29,650 250 429 -2368
2017-02-07 14:18:32 GMT 51.76050 2.45651 29,725 250 430 -2304
2017-02-07 14:18:30 GMT 51.76259 2.46547 29,825 250 431 -2240
2017-02-07 14:18:28 GMT 51.76334 2.46864 29,875 250 431 -2240
2017-02-07 14:18:26 GMT 51.76483 2.47505 29,950 250 432 -2176
2017-02-07 14:18:24 GMT 51.76579 2.47920 30,000 250 434 -2048
2017-02-07 14:18:21 GMT 51.76813 2.48900 30,125 250 432 -2176
2017-02-07 14:18:19 GMT 51.77032 2.49847 30,250 250 434 -2048
2017-02-07 14:18:17 GMT 51.77070 2.50008 30,275 250 434 -2048
2017-02-07 14:18:15 GMT 51.77248 2.50778 30,350 250 436 -1856
2017-02-07 14:18:13 GMT 51.77363 2.51259 30,400 250 436 -1792
2017-02-07 14:18:11 GMT 51.77573 2.52166 30,500 250 437 -1728
2017-02-07 14:18:08 GMT 51.77768 2.52998 30,575 250 440 -1856
2017-02-07 14:18:06 GMT 51.77838 2.53294 30,600 250 441 -1984
2017-02-07 14:18:04 GMT 51.78017 2.54051 30,675 250 441 -2176
2017-02-07 14:18:02 GMT 51.78192 2.54799 30,775 250 442 -2496
2017-02-07 14:17:59 GMT 51.78397 2.55699 30,875 250 441 -3008
2017-02-07 14:17:56 GMT 51.78625 2.56676 31,050 250 441 -3328
2017-02-07 14:17:54 GMT 51.78731 2.57147 31,125 250 439 -3648
2017-02-07 14:17:52 GMT 51.78873 2.57748 31,250 250 440 -3840
2017-02-07 14:17:50 GMT 51.78973 2.58186 31,350 250 439 -3840
2017-02-07 14:17:48 GMT 51.79183 2.59087 31,525 250 439 -3648
2017-02-07 14:17:46 GMT 51.79365 2.59888 31,700 250 438 -3392
2017-02-07 14:17:44 GMT 51.79445 2.60220 31,775 250 437 -3328
2017-02-07 14:17:44 GMT 51.79445 2.60220 31,775 250 438 -3328
2017-02-07 14:17:42 GMT 51.79541 2.60651 31,850 250 437 -3328
2017-02-07 14:17:40 GMT 51.79715 2.61393 32,000 250 437 -3328
2017-02-07 14:17:38 GMT 51.79914 2.62253 32,150 250 437 -2944
2017-02-07 14:17:36 GMT 51.80090 2.63011 32,275 250 437 -2816
2017-02-07 14:17:34 GMT 51.80241 2.63642 32,400 250 438 -2688
2017-02-07 14:17:32 GMT 51.80374 2.64229 32,475 250 438 -2816
2017-02-07 14:17:29 GMT 51.80491 2.64717 32,550 250 438 -2624
2017-02-07 14:17:27 GMT 51.80640 2.65358 32,650 250 438 -2752
2017-02-07 14:17:24 GMT 51.80910 2.66495 32,825 250 438 -2880
2017-02-07 14:17:22 GMT 51.81102 2.67317 32,950 250 438 -2880
2017-02-07 14:17:22 GMT 51.80983 2.66805 32,875 250 438 -2880
2017-02-07 14:17:20 GMT 51.81139 2.67473 32,975 250 437 -2880
2017-02-07 14:17:17 GMT 51.81422 2.68697 33,175 250 437 -3008
2017-02-07 14:17:15 GMT 51.81506 2.69035 33,250 250 437 -3008
2017-02-07 14:17:13 GMT 51.81739 2.70050 33,425 250 437 -2944
2017-02-07 14:17:11 GMT 51.81802 2.70316 33,450 250 437 -2944
2017-02-07 14:17:09 GMT 51.81944 2.70920 33,550 250 437 -2816
2017-02-07 14:17:07 GMT 51.82091 2.71563 33,675 250 437 -2624
2017-02-07 14:17:05 GMT 51.82260 2.72283 33,775 250 438 -2368
2017-02-07 14:17:05 GMT 51.82292 2.72424 33,800 250 438 -2368
2017-02-07 14:17:03 GMT 51.82375 2.72773 33,850 250 438 -2368
2017-02-07 14:17:03 GMT 51.82375 2.72773 33,850 250 438 -2368
2017-02-07 14:17:01 GMT 51.82581 2.73671 33,975 250 438 -2304
2017-02-07 14:16:58 GMT 51.82690 2.74146 34,025 250 438 -2368
2017-02-07 14:16:54 GMT 51.83000 2.75528 34,200 250 439 -2752
2017-02-07 14:16:54 GMT 51.83000 2.75528 34,200 250 439 -2752
2017-02-07 14:16:52 GMT 51.83221 2.76455 34,350 250 438 -3392
2017-02-07 14:16:50 GMT 51.83331 2.76939 34,450 250 437 -3584
2017-02-07 14:16:50 GMT 51.83331 2.76939 34,450 250 438 -3264
2017-02-07 14:16:47 GMT 51.83466 2.77535 34,550 250 437 -3584
2017-02-07 14:16:44 GMT 51.83741 2.78748 34,800 251 436 -3840
2017-02-07 14:16:41 GMT 51.83949 2.79661 34,975 251 434 -3776
2017-02-07 14:16:41 GMT 51.83977 2.79788 35,000 251 434 -3712
2017-02-07 14:16:39 GMT 51.84110 2.80389 35,150 251 434 -3584
2017-02-07 14:16:39 GMT 51.84110 2.80389 35,150 251 434 -3520
2017-02-07 14:16:37 GMT 51.84150 2.80563 35,175 251 434 -3520
2017-02-07 14:16:34 GMT 51.84471 2.81985 35,450 251 433 -3008
2017-02-07 14:16:32 GMT 51.84609 2.82594 35,525 251 433 -2560
2017-02-07 14:16:30 GMT 51.84700 2.82997 35,600 251 433 -2560
2017-02-07 14:16:28 GMT 51.84911 2.83937 35,725 250 433 -2048
2017-02-07 14:16:27 GMT 51.84878 2.83789 35,700 250 433 -2176
2017-02-07 14:16:26 GMT 51.84911 2.83937 35,725 250 438 -1408
2017-02-07 14:16:24 GMT 51.85091 2.84729 35,825 250 434 -1728
2017-02-07 14:16:22 GMT 51.85235 2.85362 35,875 250 434 -1664
2017-02-07 14:16:19 GMT 51.85478 2.86446 35,975 250 436 -1408
2017-02-07 14:16:16 GMT 51.85583 2.86899 36,000 250 437 -1280
2017-02-07 14:16:15 GMT 51.85677 2.87315 36,025 250 437 -1280
2017-02-07 14:16:13 GMT 51.85844 2.88050 36,075 250 440 -1536
2017-02-07 14:16:10 GMT 51.86096 2.89146 36,175 250 441 -2368
2017-02-07 14:16:10 GMT 51.86068 2.89017 36,150 250 441 -2496
2017-02-07 14:16:08 GMT 51.86245 2.89803 36,225 250 441 -2304
2017-02-07 14:16:05 GMT 51.86426 2.90588 36,325 250 441 -2496
2017-02-07 14:16:03 GMT 51.86595 2.91338 36,450 250 441 -2688
2017-02-07 14:16:03 GMT 51.86595 2.91338 36,450 250 441 -2624
2017-02-07 14:16:01 GMT 51.86673 2.91687 36,500 250 435 -3072
2017-02-07 14:15:59 GMT 51.86827 2.92351 36,575 250 441 -3008
2017-02-07 14:15:57 GMT 51.86967 2.92969 36,700 250 439 -3456
2017-02-07 14:15:55 GMT 51.87167 2.93847 36,825 250 439 -3456
2017-02-07 14:15:52 GMT 51.87309 2.94456 36,950 250 439 -3456
2017-02-07 14:15:50 GMT 51.87447 2.95057 37,050 250 438 -3456
2017-02-07 14:15:50 GMT 51.87447 2.95057 37,050 250 438 -3456
2017-02-07 14:15:48 GMT 51.87670 2.96036 37,250 250 436 -3264
2017-02-07 14:15:47 GMT 51.87670 2.96036 37,250 250 436 -3328
2017-02-07 14:15:45 GMT 51.87845 2.96809 37,375 250 435 -3200
2017-02-07 14:15:45 GMT 51.87877 2.96950 37,400 250 435 -3008
2017-02-07 14:15:43 GMT 51.88075 2.97821 37,550 250 435 -3008
2017-02-07 14:15:41 GMT 51.88075 2.97821 37,550 250 435 -2880
2017-02-07 14:15:39 GMT 51.88243 2.98554 37,675 250 435 -2816
2017-02-07 14:15:36 GMT 51.88431 2.99392 37,800 251 434 -2560
2017-02-07 14:15:34 GMT 51.88601 3.00140 37,925 251 434 -2688
2017-02-07 14:15:32 GMT 51.88701 3.00587 37,975 251 434 -2752
2017-02-07 14:15:30 GMT 51.88861 3.01308 38,075 251 434 -2240
2017-02-07 14:15:27 GMT 51.89020 3.02010 38,175 251 434 -2240
2017-02-07 14:15:27 GMT 51.89090 3.02332 38,225 251 435 -1728
2017-02-07 14:15:25 GMT 51.89236 3.02970 38,275 251 435 -1728
2017-02-07 14:15:25 GMT 51.89200 3.02800 38,275 251 434 -1856
2017-02-07 14:15:23 GMT 51.89304 3.03276 38,325 251 434 -1792
2017-02-07 14:15:20 GMT 51.89550 3.04376 38,425 251 435 -1728
2017-02-07 14:15:18 GMT 51.89658 3.04848 38,475 251 435 -1728
2017-02-07 14:15:18 GMT 51.89658 3.04848 38,475 251 435 -1728
2017-02-07 14:15:16 GMT 51.89795 3.05466 38,525 251 436 -1728
2017-02-07 14:15:16 GMT 51.89758 3.05313 38,525 251 436 -1728
2017-02-07 14:15:14 GMT 51.89941 3.06129 38,600 251 436 -1664
2017-02-07 14:15:12 GMT 51.90157 3.07091 38,675 251 437 -1664
2017-02-07 14:15:09 GMT 51.90289 3.07709 38,725 250 438 -1728
2017-02-07 14:15:07 GMT 51.90514 3.08700 38,825 250 439 -1728
2017-02-07 14:15:05 GMT 51.90591 3.09044 38,850 250 439 -1728
2017-02-07 14:15:05 GMT 51.90591 3.09044 38,850 250 439 -1728
2017-02-07 14:15:03 GMT 51.90775 3.09838 38,925 249 440 -1664
2017-02-07 14:15:00 GMT 51.90961 3.10607 39,000 248 442 -1600
2017-02-07 14:14:58 GMT 51.91105 3.11196 39,050 248 441 -1664
2017-02-07 14:14:56 GMT 51.91214 3.11638 39,075 248 441 -1600
2017-02-07 14:14:54 GMT 51.91417 3.12436 39,150 248 442 -1600
2017-02-07 14:14:54 GMT 51.91417 3.12436 39,150 248 442 -1600
2017-02-07 14:14:52 GMT 51.91571 3.13016 39,200 247 443 -1600
2017-02-07 14:14:52 GMT 51.91571 3.13016 39,200 247 443 -1600
2017-02-07 14:14:50 GMT 51.91658 3.13362 39,225 247 443 -1664
2017-02-07 14:14:48 GMT 51.91897 3.14248 39,275 246 443 -1920
2017-02-07 14:14:46 GMT 51.92024 3.14712 39,325 245 444 -2112
2017-02-07 14:14:44 GMT 51.92190 3.15323 39,375 245 444 -2368
2017-02-07 14:14:42 GMT 51.92317 3.15773 39,425 245 444 -2368
2017-02-07 14:14:40 GMT 51.92532 3.16513 39,525 244 444 -2432
2017-02-07 14:14:38 GMT 51.92762 3.17285 39,625 244 443 -2432
2017-02-07 14:14:36 GMT 51.92939 3.17858 39,700 239 445 0
2017-02-07 14:14:36 GMT 51.92939 3.17858 39,700 244 443 -2304
2017-02-07 14:14:33 GMT 51.93205 3.18710 39,800 243 442 -1792
2017-02-07 14:14:30 GMT 51.93484 3.19584 39,900 242 442 -960
2017-02-07 14:14:27 GMT 51.93741 3.20358 39,950 242 442 -448
2017-02-07 14:14:25 GMT 51.93993 3.21106 39,975 241 442 -128
2017-02-07 14:14:25 GMT 51.93933 3.20938 39,975 241 442 -320
2017-02-07 14:14:23 GMT 51.94190 3.21686 40,000 240 442 -128
2017-02-07 14:14:21 GMT 51.94275 3.21939 40,000 241 442 -128
2017-02-07 14:14:19 GMT 51.94537 3.22685 40,000 239 442 -64
2017-02-07 14:14:19 GMT 51.94537 3.22685 40,000 240 442 -128
2017-02-07 14:14:17 GMT 51.94699 3.23124 40,000 240 442 -128
2017-02-07 14:14:15 GMT 51.94963 3.23853 40,000 239 442 -64
2017-02-07 14:14:13 GMT 51.95281 3.24693 40,000 239 443 -64
2017-02-07 14:14:11 GMT 51.95393 3.24997 40,000 239 443 -64
2017-02-07 14:14:08 GMT 51.95770 3.25980 40,000 239 443 -64
2017-02-07 14:14:06 GMT 51.95933 3.26396 40,000 239 443 -64
2017-02-07 14:14:04 GMT 51.96175 3.27032 40,000 239 443 -64
2017-02-07 14:14:01 GMT 51.96575 3.28083 40,000 239 444 0
2017-02-07 14:13:59 GMT 51.96684 3.28369 40,000 239 444 64
2017-02-07 14:13:57 GMT 51.96895 3.28926 40,000 239 444 64
2017-02-07 14:13:56 GMT 51.97119 3.29514 40,000 239 444 64
2017-02-07 14:13:55 GMT 51.97119 3.29514 40,000 239 444 64
2017-02-07 14:13:53 GMT 51.97278 3.29935 40,000 239 444 0
2017-02-07 14:13:51 GMT 51.97572 3.30704 40,000 239 444 0
2017-02-07 14:13:50 GMT 51.97674 3.30979 40,000 239 444 64
2017-02-07 14:13:48 GMT 51.97842 3.31421 40,000 239 446 0
2017-02-07 14:13:46 GMT 51.98093 3.32085 40,000 239 445 0
2017-02-07 14:13:44 GMT 51.98410 3.32916 40,000 239 445 0
2017-02-07 14:13:42 GMT 51.98630 3.33496 40,000 239 446 0
2017-02-07 14:13:40 GMT 51.98754 3.33827 40,000 239 447 0
2017-02-07 14:13:37 GMT 51.98977 3.34416 40,000 239 448 0
2017-02-07 14:13:35 GMT 51.99330 3.35342 40,000 239 447 64
2017-02-07 14:13:33 GMT 51.99490 3.35770 40,000 239 447 0
2017-02-07 14:13:31 GMT 51.99751 3.36456 40,000 239 447 0
2017-02-07 14:13:28 GMT 51.99985 3.37074 40,000 239 447 0
2017-02-07 14:13:26 GMT 52.00205 3.37654 40,000 239 447 -64
2017-02-07 14:13:24 GMT 52.00471 3.38355 40,000 239 447 -64
2017-02-07 14:13:22 GMT 52.00621 3.38745 40,000 239 447 0
2017-02-07 14:13:20 GMT 52.00868 3.39401 40,000 239 447 0
2017-02-07 14:13:18 GMT 52.01091 3.39988 40,000 239 447 0
2017-02-07 14:13:18 GMT 52.01091 3.39988 40,000 239 447 0
2017-02-07 14:13:16 GMT 52.01427 3.40874 40,000 239 447 0
2017-02-07 14:13:14 GMT 52.01523 3.41126 40,000 239 447 0
2017-02-07 14:13:12 GMT 52.01756 3.41745 40,000 239 447 0
2017-02-07 14:13:10 GMT 52.02090 3.42628 40,000 239 448 0
2017-02-07 14:13:08 GMT 52.02203 3.42923 40,000 239 448 0
2017-02-07 14:13:05 GMT 52.02498 3.43712 40,000 239 448 0
2017-02-07 14:13:03 GMT 52.02772 3.44444 40,000 239 448 0
2017-02-07 14:13:00 GMT 52.03166 3.45482 40,000 239 448 0
2017-02-07 14:12:57 GMT 52.03455 3.46252 40,000 239 448 0
2017-02-07 14:12:55 GMT 52.03679 3.46840 40,000 239 448 0
2017-02-07 14:12:53 GMT 52.03848 3.47282 40,000 239 448 -64
2017-02-07 14:12:51 GMT 52.04010 3.47709 40,000 239 448 -64
2017-02-07 14:12:49 GMT 52.04320 3.48534 40,000 239 448 0
2017-02-07 14:12:46 GMT 52.04549 3.49136 40,000 239 448 0
2017-02-07 14:12:44 GMT 52.04718 3.49586 40,000 239 448 0
2017-02-07 14:12:42 GMT 52.05080 3.50542 40,000 239 448 0
2017-02-07 14:12:40 GMT 52.05243 3.50974 40,000 239 447 0
2017-02-07 14:12:38 GMT 52.05405 3.51402 40,000 239 448 0
2017-02-07 14:12:36 GMT 52.05741 3.52292 40,000 239 448 0
2017-02-07 14:12:34 GMT 52.05955 3.52865 40,000 239 448 -64
2017-02-07 14:12:32 GMT 52.06059 3.53149 40,000 239 448 -64
2017-02-07 14:12:30 GMT 52.06224 3.53577 40,000 239 448 0
2017-02-07 14:12:28 GMT 52.06598 3.54576 40,000 239 448 0
2017-02-07 14:12:25 GMT 52.06906 3.55408 40,000 239 448 0
2017-02-07 14:12:23 GMT 52.06970 3.55572 40,000 239 448 0
2017-02-07 14:12:21 GMT 52.07346 3.56567 40,000 239 447 0
2017-02-07 14:12:19 GMT 52.07454 3.56867 40,000 239 447 0
2017-02-07 14:12:17 GMT 52.07682 3.57464 40,000 239 447 0
2017-02-07 14:12:16 GMT 52.07789 3.57754 40,000 239 447 0
2017-02-07 14:12:15 GMT 52.07918 3.58093 40,000 239 447 0
2017-02-07 14:12:13 GMT 52.08151 3.58711 40,000 239 447 0
2017-02-07 14:12:11 GMT 52.08380 3.59322 40,000 239 448 0
2017-02-07 14:12:08 GMT 52.08660 3.60069 40,000 239 447 0
2017-02-07 14:12:06 GMT 52.08935 3.60791 40,000 239 447 0
2017-02-07 14:12:04 GMT 52.09093 3.61223 40,000 239 447 0
2017-02-07 14:12:02 GMT 52.09428 3.62122 40,000 239 447 0
2017-02-07 14:12:00 GMT 52.09531 3.62392 40,000 239 447 64
2017-02-07 14:11:58 GMT 52.09735 3.62933 40,000 239 447 0
2017-02-07 14:11:56 GMT 52.09987 3.63600 40,000 239 447 0
2017-02-07 14:11:54 GMT 52.10220 3.64220 40,000 239 446 -64
2017-02-07 14:11:52 GMT 52.10376 3.64639 40,000 239 446 -64
2017-02-07 14:11:50 GMT 52.10648 3.65374 40,000 239 446 0
2017-02-07 14:11:50 GMT 52.10601 3.65248 40,000 239 446 0
2017-02-07 14:11:48 GMT 52.10885 3.66002 40,000 239 446 0
2017-02-07 14:11:48 GMT 52.10885 3.66002 40,000 239 446 0
2017-02-07 14:11:45 GMT 52.11140 3.66684 40,000 239 446 0
2017-02-07 14:11:43 GMT 52.11262 3.67006 40,000 239 446 0
2017-02-07 14:11:41 GMT 52.11649 3.68042 40,000 239 446 0
2017-02-07 14:11:39 GMT 52.11800 3.68446 40,000 239 446 0
2017-02-07 14:11:37 GMT 52.12006 3.68996 40,000 239 446 -64
2017-02-07 14:11:35 GMT 52.12207 3.69537 40,000 239 446 0
2017-02-07 14:11:31 GMT 52.12715 3.70888 40,000 239 446 64
2017-02-07 14:11:29 GMT 52.12880 3.71323 40,000 239 446 64
2017-02-07 14:11:26 GMT 52.13241 3.72295 40,000 239 446 0
2017-02-07 14:11:24 GMT 52.13446 3.72837 40,000 239 446 0
2017-02-07 14:11:22 GMT 52.13655 3.73402 40,000 239 446 0
2017-02-07 14:11:20 GMT 52.13773 3.73718 40,000 239 446 0
2017-02-07 14:11:18 GMT 52.14097 3.74587 40,000 239 446 0
2017-02-07 14:11:16 GMT 52.14316 3.75160 40,000 239 446 0
2017-02-07 14:11:14 GMT 52.14507 3.75685 40,000 239 446 0
2017-02-07 14:11:12 GMT 52.14619 3.75977 40,000 239 445 0
2017-02-07 14:11:10 GMT 52.14982 3.76949 40,000 239 445 0
2017-02-07 14:11:08 GMT 52.15196 3.77529 40,000 239 445 0
2017-02-07 14:11:06 GMT 52.15260 3.77693 40,000 239 445 0
2017-02-07 14:11:04 GMT 52.15526 3.78408 40,000 239 445 0
2017-02-07 14:11:04 GMT 52.15526 3.78408 40,000 239 445 0
2017-02-07 14:11:02 GMT 52.15691 3.78853 40,000 239 445 0
2017-02-07 14:11:00 GMT 52.16020 3.79742 40,000 239 445 0
2017-02-07 14:10:58 GMT 52.16206 3.80237 40,000 239 445 0
2017-02-07 14:10:56 GMT 52.16487 3.80989 40,000 239 445 0
2017-02-07 14:10:54 GMT 52.16588 3.81264 40,000 239 445 0
2017-02-07 14:10:52 GMT 52.16913 3.82133 40,000 239 444 0
2017-02-07 14:10:50 GMT 52.17142 3.82752 40,000 239 444 0
2017-02-07 14:10:47 GMT 52.17384 3.83400 40,000 239 444 0
2017-02-07 14:10:45 GMT 52.17477 3.83650 40,000 239 444 0
2017-02-07 14:10:44 GMT 52.17752 3.84380 40,000 239 444 -64
2017-02-07 14:10:43 GMT 52.17691 3.84215 40,000 239 444 -64
2017-02-07 14:10:40 GMT 52.18161 3.85479 40,000 239 443 0
2017-02-07 14:10:40 GMT 52.18208 3.85612 40,000 239 443 0
2017-02-07 14:10:38 GMT 52.18380 3.86067 40,000 239 442 0
2017-02-07 14:10:35 GMT 52.18639 3.86772 40,000 239 442 0
2017-02-07 14:10:32 GMT 52.19013 3.87763 40,000 239 442 0
2017-02-07 14:10:30 GMT 52.19115 3.88054 40,000 239 442 0
2017-02-07 14:10:30 GMT 52.19115 3.88054 40,000 239 442 0
2017-02-07 14:10:28 GMT 52.19339 3.88649 40,000 239 442 0
2017-02-07 14:10:26 GMT 52.19604 3.89356 40,000 239 442 0
2017-02-07 14:10:24 GMT 52.19814 3.89928 40,000 239 442 0
2017-02-07 14:10:22 GMT 52.19971 3.90358 40,000 239 442 0
2017-02-07 14:10:20 GMT 52.20280 3.91184 40,000 239 442 0
2017-02-07 14:10:18 GMT 52.20494 3.91765 40,000 239 442 0
2017-02-07 14:10:15 GMT 52.20703 3.92330 40,000 239 442 0
2017-02-07 14:10:13 GMT 52.20960 3.93013 40,000 239 442 0
2017-02-07 14:10:11 GMT 52.21184 3.93623 40,000 239 442 0
2017-02-07 14:10:09 GMT 52.21350 3.94072 40,000 239 442 0
2017-02-07 14:10:07 GMT 52.21513 3.94801 40,000 239 442 0
2017-02-07 14:10:05 GMT 52.21816 3.95325 40,000 239 442 0
2017-02-07 14:10:03 GMT 52.22003 3.95828 40,000 239 442 0
2017-02-07 14:10:00 GMT 52.22314 3.96669 40,000 239 442 -64
2017-02-07 14:10:00 GMT 52.22314 3.96669 40,000 239 442 0
2017-02-07 14:09:58 GMT 52.22630 3.97530 40,000 239 442 0
2017-02-07 14:09:58 GMT 52.22575 3.97368 40,000 239 442 0
2017-02-07 14:09:58 GMT 52.22630 3.97530 40,000 239 442 -64
2017-02-07 14:09:56 GMT 52.22747 3.97838 40,000 239 442 -64
2017-02-07 14:09:54 GMT 52.23061 3.98689 40,000 239 442 -64
2017-02-07 14:09:52 GMT 52.23267 3.99254 40,000 239 442 0
2017-02-07 14:09:49 GMT 52.23477 3.99811 40,000 239 442 0
2017-02-07 14:09:47 GMT 52.23664 4.00318 40,000 239 442 64
2017-02-07 14:09:45 GMT 52.23949 4.01085 40,000 239 442 0
2017-02-07 14:09:43 GMT 52.24104 4.01512 40,000 239 442 0
2017-02-07 14:09:41 GMT 52.24423 4.02366 40,000 239 442 -64
2017-02-07 14:09:38 GMT 52.24641 4.02963 40,000 239 442 -64
2017-02-07 14:09:36 GMT 52.24856 4.03543 40,000 239 442 0
2017-02-07 14:09:36 GMT 52.24856 4.03543 40,000 239 442 64
2017-02-07 14:09:34 GMT 52.25084 4.04156 40,000 239 442 64
2017-02-07 14:09:32 GMT 52.25240 4.04579 40,000 239 442 64
2017-02-07 14:09:30 GMT 52.25597 4.05541 40,000 239 442 0
2017-02-07 14:09:30 GMT 52.25597 4.05541 40,000 239 442 0
2017-02-07 14:09:28 GMT 52.25803 4.06105 40,000 239 442 0
2017-02-07 14:09:26 GMT 52.25908 4.06376 40,000 239 442 0
2017-02-07 14:09:24 GMT 52.26182 4.07122 40,000 240 443 -64
2017-02-07 14:09:22 GMT 52.26302 4.07448 40,000 240 443 -64
2017-02-07 14:09:19 GMT 52.26760 4.08691 40,000 240 443 0
2017-02-07 14:09:17 GMT 52.26865 4.08974 40,000 240 443 0
2017-02-07 14:09:15 GMT 52.27066 4.09515 40,000 240 443 0
2017-02-07 14:09:15 GMT 52.27066 4.09515 40,000 240 443 0
2017-02-07 14:09:12 GMT 52.27388 4.10386 40,000 240 443 64
2017-02-07 14:09:10 GMT 52.27707 4.11263 40,000 240 443 64
2017-02-07 14:09:08 GMT 52.27821 4.11564 40,000 240 444 -64
2017-02-07 14:09:08 GMT 52.27918 4.11835 40,000 239 443 -64
2017-02-07 14:09:08 GMT 52.27821 4.11564 40,000 239 443 0
2017-02-07 14:09:06 GMT 52.28063 4.12231 40,000 239 443 -64
2017-02-07 14:09:04 GMT 52.28310 4.12890 40,000 240 444 -64
2017-02-07 14:09:04 GMT 52.28263 4.12772 40,000 239 444 -64
2017-02-07 14:09:04 GMT 52.28221 4.12654 40,000 240 444 -64
2017-02-07 14:09:01 GMT 52.28524 4.13478 40,000 240 444 -64
2017-02-07 14:08:59 GMT 52.28851 4.14368 40,000 240 444 0
2017-02-07 14:08:57 GMT 52.28948 4.14624 40,000 240 444 0
2017-02-07 14:08:55 GMT 52.29115 4.15087 40,000 240 444 0
2017-02-07 14:08:53 GMT 52.29451 4.15993 40,000 240 444 0
2017-02-07 14:08:51 GMT 52.29557 4.16288 40,000 240 444 0
2017-02-07 14:08:49 GMT 52.29790 4.16923 40,000 240 445 0
2017-02-07 14:08:47 GMT 52.30019 4.17542 40,000 240 446 -64
2017-02-07 14:08:45 GMT 52.30339 4.18414 40,000 240 446 -64
2017-02-07 14:08:43 GMT 52.30437 4.18681 40,000 240 446 -64
2017-02-07 14:08:42 GMT 52.30609 4.19160 40,000 240 448 -64
2017-02-07 14:08:42 GMT 52.30495 4.18839 40,000 240 446 -64
2017-02-07 14:08:40 GMT 52.30782 4.19623 40,000 240 446 -64
2017-02-07 14:08:38 GMT 52.31010 4.20243 40,000 240 447 0
2017-02-07 14:08:35 GMT 52.31266 4.20941 40,000 240 447 0
2017-02-07 14:08:32 GMT 52.31584 4.21814 40,000 239 448 0
2017-02-07 14:08:30 GMT 52.31786 4.22356 40,000 240 449 0
2017-02-07 14:08:30 GMT 52.31786 4.22356 40,000 239 448 0
2017-02-07 14:08:28 GMT 52.32019 4.22989 40,000 239 448 0
2017-02-07 14:08:28 GMT 52.32019 4.22989 40,000 239 448 0
2017-02-07 14:08:26 GMT 52.32341 4.23868 40,000 240 448 -64
2017-02-07 14:08:24 GMT 52.32431 4.24110 40,000 240 448 -64
2017-02-07 14:08:22 GMT 52.32751 4.24983 40,000 240 448 -64
2017-02-07 14:08:20 GMT 52.32866 4.25293 40,000 240 449 0
2017-02-07 14:08:18 GMT 52.33142 4.26042 40,000 240 449 64
2017-02-07 14:08:18 GMT 52.33026 4.25735 40,000 240 449 0
2017-02-07 14:08:16 GMT 52.33296 4.26468 40,000 240 449 64
2017-02-07 14:08:14 GMT 52.33502 4.27025 40,000 240 449 64
2017-02-07 14:08:12 GMT 52.33821 4.27902 40,000 240 450 -64
2017-02-07 14:08:09 GMT 52.34088 4.28635 40,000 240 450 -64
2017-02-07 14:08:06 GMT 52.34299 4.29207 40,000 240 450 -64
2017-02-07 14:08:04 GMT 52.34551 4.29901 40,000 240 450 -64
2017-02-07 14:08:02 GMT 52.34779 4.30527 40,000 240 450 128
2017-02-07 14:07:59 GMT 52.35173 4.31610 40,000 240 450 128
2017-02-07 14:07:57 GMT 52.35325 4.32022 40,000 240 450 64
2017-02-07 14:07:54 GMT 52.35693 4.33034 40,000 240 451 0
2017-02-07 14:07:52 GMT 52.35860 4.33479 40,000 240 451 0
2017-02-07 14:07:49 GMT 52.36182 4.34368 40,000 240 451 0
2017-02-07 14:07:47 GMT 52.36404 4.34975 40,000 240 451 64
2017-02-07 14:07:45 GMT 52.36679 4.35730 40,000 240 451 64
2017-02-07 14:07:43 GMT 52.36885 4.36302 40,000 240 451 64
2017-02-07 14:07:40 GMT 52.37239 4.37264 40,000 240 452 64
2017-02-07 14:07:37 GMT 52.37517 4.38042 40,000 240 451 0
2017-02-07 14:07:35 GMT 52.37620 4.38315 40,000 240 452 0
2017-02-07 14:07:33 GMT 52.37844 4.38935 40,000 240 452 0
2017-02-07 14:07:31 GMT 52.38117 4.39682 40,000 240 452 0
2017-02-07 14:07:29 GMT 52.38435 4.40560 40,000 240 451 0
2017-02-07 14:07:27 GMT 52.38611 4.41040 40,000 240 451 0
2017-02-07 14:07:25 GMT 52.38831 4.41643 40,000 240 451 0
2017-02-07 14:07:25 GMT 52.38776 4.41498 40,000 240 451 0
2017-02-07 14:07:22 GMT 52.39138 4.42498 40,000 240 451 0
2017-02-07 14:07:21 GMT 52.39138 4.42498 40,000 240 451 0
2017-02-07 14:07:21 GMT 52.39138 4.42498 40,000 240 451 0
2017-02-07 14:07:20 GMT 52.39243 4.42787 40,000 240 451 0
2017-02-07 14:07:18 GMT 52.39453 4.43367 40,000 240 451 0
2017-02-07 14:07:16 GMT 52.39720 4.44107 40,000 240 451 0
2017-02-07 14:07:16 GMT 52.39720 4.44107 40,000 240 451 0
2017-02-07 14:07:14 GMT 52.39893 4.44580 40,000 240 451 0
2017-02-07 14:07:12 GMT 52.40112 4.45198 40,000 240 451 0
2017-02-07 14:07:10 GMT 52.40318 4.45755 40,000 240 451 0
2017-02-07 14:07:08 GMT 52.40618 4.46586 40,000 240 451 -64
2017-02-07 14:07:08 GMT 52.40618 4.46586 40,000 240 451 -64
2017-02-07 14:07:06 GMT 52.40828 4.47167 40,000 240 451 0
2017-02-07 14:07:04 GMT 52.41042 4.47764 40,000 240 451 0
2017-02-07 14:07:04 GMT 52.41042 4.47764 40,000 240 451 0
2017-02-07 14:07:02 GMT 52.41367 4.48662 40,000 240 450 64
2017-02-07 14:07:00 GMT 52.41479 4.48972 40,000 240 450 64
2017-02-07 14:06:58 GMT 52.41680 4.49529 40,000 240 450 64
2017-02-07 14:06:56 GMT 52.41828 4.49937 40,000 240 451 0
2017-02-07 14:06:54 GMT 52.42131 4.50769 40,000 240 451 0
2017-02-07 14:06:52 GMT 52.42241 4.51073 40,000 240 451 -64
2017-02-07 14:06:50 GMT 52.42559 4.51954 40,000 240 451 -64
2017-02-07 14:06:48 GMT 52.42612 4.52103 40,000 240 451 -64
2017-02-07 14:06:46 GMT 52.42899 4.52896 40,000 240 452 0
2017-02-07 14:06:46 GMT 52.42841 4.52728 40,000 240 451 64
2017-02-07 14:06:45 GMT 52.43060 4.53346 40,000 240 451 64
2017-02-07 14:06:44 GMT 52.43060 4.53346 40,000 240 451 64
2017-02-07 14:06:42 GMT 52.43337 4.54112 40,000 240 451 64
2017-02-07 14:06:39 GMT 52.43625 4.54897 40,000 240 451 0
2017-02-07 14:06:37 GMT 52.43956 4.55823 40,000 240 452 0
2017-02-07 14:06:35 GMT 52.44054 4.56090 40,000 240 452 -64
2017-02-07 14:06:33 GMT 52.44282 4.56718 40,000 240 452 0
2017-02-07 14:06:31 GMT 52.44575 4.57527 40,000 240 452 0
2017-02-07 14:06:29 GMT 52.44731 4.57954 40,000 240 452 0
2017-02-07 14:06:27 GMT 52.44942 4.58534 40,000 240 452 0
2017-02-07 14:06:26 GMT 52.44942 4.58534 40,000 240 452 0
2017-02-07 14:06:24 GMT 52.45212 4.59274 40,000 240 452 0
2017-02-07 14:06:22 GMT 52.45525 4.60147 40,000 240 452 0
2017-02-07 14:06:20 GMT 52.45757 4.60774 40,000 240 452 0
2017-02-07 14:06:19 GMT 52.45757 4.60774 40,000 240 452 0
2017-02-07 14:06:17 GMT 52.46022 4.61502 40,000 240 452 -64
2017-02-07 14:06:15 GMT 52.46274 4.62196 40,000 240 452 0
2017-02-07 14:06:13 GMT 52.46381 4.62501 40,000 240 452 64
2017-02-07 14:06:11 GMT 52.46654 4.63257 40,000 240 452 0
2017-02-07 14:06:09 GMT 52.46874 4.63852 40,000 240 452 0
2017-02-07 14:06:09 GMT 52.46874 4.63852 40,000 240 453 -64
2017-02-07 14:06:07 GMT 52.47084 4.64439 40,000 240 452 -64
2017-02-07 14:06:07 GMT 52.47084 4.64439 40,000 240 452 -64
2017-02-07 14:06:05 GMT 52.47182 4.64722 40,000 240 452 -64
2017-02-07 14:06:02 GMT 52.47551 4.65744 40,000 240 453 0
2017-02-07 14:06:02 GMT 52.47501 4.65607 40,000 240 453 -64
2017-02-07 14:06:00 GMT 52.47917 4.66766 40,000 240 453 0
2017-02-07 14:05:58 GMT 52.48123 4.67331 40,000 240 453 0
2017-02-07 14:05:58 GMT 52.48025 4.67060 40,000 240 453 0
2017-02-07 14:05:56 GMT 52.48234 4.67641 40,000 240 452 64
2017-02-07 14:05:56 GMT 52.48234 4.67641 40,000 240 453 64
2017-02-07 14:05:54 GMT 52.48462 4.68276 40,000 240 452 64
2017-02-07 14:05:52 GMT 52.48681 4.68889 40,000 240 452 64
2017-02-07 14:05:50 GMT 52.48918 4.69540 40,000 240 453 -64
2017-02-07 14:05:50 GMT 52.48960 4.69658 40,000 240 453 0
2017-02-07 14:05:47 GMT 52.49286 4.70560 40,000 240 453 -64
2017-02-07 14:05:47 GMT 52.49286 4.70560 40,000 240 453 -64
2017-02-07 14:05:45 GMT 52.49375 4.70811 40,000 240 453 -64
2017-02-07 14:05:42 GMT 52.49698 4.71718 40,000 240 453 -64
2017-02-07 14:05:40 GMT 52.49918 4.72328 40,000 240 453 0
2017-02-07 14:05:38 GMT 52.50238 4.73229 40,000 240 453 64
2017-02-07 14:05:38 GMT 52.50238 4.73229 40,000 240 453 64
2017-02-07 14:05:34 GMT 52.50655 4.74382 40,000 240 453 0
2017-02-07 14:05:31 GMT 52.50911 4.75090 40,000 240 454 0
2017-02-07 14:05:29 GMT 52.51126 4.75693 40,000 240 455 0
2017-02-07 14:05:27 GMT 52.51405 4.76479 40,000 240 454 0
2017-02-07 14:05:24 GMT 52.51620 4.77066 40,000 240 455 0
2017-02-07 14:05:22 GMT 52.51851 4.77709 40,000 240 455 0
2017-02-07 14:05:22 GMT 52.51851 4.77709 40,000 240 455 -64
2017-02-07 14:05:20 GMT 52.52046 4.78256 40,000 240 455 0
2017-02-07 14:05:20 GMT 52.52046 4.78256 40,000 240 455 0
2017-02-07 14:05:18 GMT 52.52280 4.78902 40,000 240 455 0
2017-02-07 14:05:16 GMT 52.52549 4.79663 40,000 240 455 0
2017-02-07 14:05:14 GMT 52.52717 4.80118 40,000 240 455 0
2017-02-07 14:05:12 GMT 52.53021 4.80972 40,000 240 455 0
2017-02-07 14:05:10 GMT 52.53169 4.81382 40,000 240 455 0
2017-02-07 14:05:07 GMT 52.53442 4.82147 40,000 240 455 0
2017-02-07 14:05:07 GMT 52.53442 4.82147 40,000 240 455 -64
2017-02-07 14:05:05 GMT 52.53625 4.82661 40,000 240 455 -64
2017-02-07 14:05:03 GMT 52.53891 4.83391 40,000 240 455 -64
2017-02-07 14:05:00 GMT 52.54193 4.84246 40,000 240 456 -64
2017-02-07 14:04:58 GMT 52.54398 4.84811 40,000 240 455 -64
2017-02-07 14:04:58 GMT 52.54398 4.84811 40,000 240 455 -64
2017-02-07 14:04:56 GMT 52.54724 4.85718 40,000 240 456 -64
2017-02-07 14:04:54 GMT 52.54900 4.86216 40,000 240 456 0
2017-02-07 14:04:52 GMT 52.54999 4.86496 40,000 240 456 0
2017-02-07 14:04:50 GMT 52.55305 4.87361 40,000 240 456 64
2017-02-07 14:04:48 GMT 52.55456 4.87770 40,000 240 456 64
2017-02-07 14:04:46 GMT 52.55649 4.88319 40,000 240 456 0
2017-02-07 14:04:44 GMT 52.55980 4.89253 40,000 240 456 -64
2017-02-07 14:04:44 GMT 52.55980 4.89253 40,000 240 456 -64
2017-02-07 14:04:42 GMT 52.56093 4.89563 40,000 240 456 -64
2017-02-07 14:04:39 GMT 52.56464 4.90608 40,000 240 456 -64
2017-02-07 14:04:39 GMT 52.56464 4.90608 40,000 240 456 -64
2017-02-07 14:04:37 GMT 52.56748 4.91395 40,000 240 456 0
2017-02-07 14:04:35 GMT 52.56800 4.91552 40,000 240 456 0
2017-02-07 14:04:33 GMT 52.57146 4.92516 40,000 240 456 64
2017-02-07 14:04:31 GMT 52.57191 4.92643 40,000 240 456 64
2017-02-07 14:04:28 GMT 52.57590 4.93759 40,000 240 456 64
2017-02-07 14:04:26 GMT 52.57796 4.94339 40,000 240 456 0
2017-02-07 14:04:24 GMT 52.58029 4.94989 40,000 240 456 0
2017-02-07 14:04:22 GMT 52.58322 4.95821 40,000 240 456 0
2017-02-07 14:04:20 GMT 52.58418 4.96078 40,000 240 456 0
2017-02-07 14:04:17 GMT 52.58741 4.96990 40,000 240 456 0
2017-02-07 14:04:17 GMT 52.58741 4.96990 40,000 240 456 0
2017-02-07 14:04:15 GMT 52.58946 4.97571 40,000 240 457 0
2017-02-07 14:04:13 GMT 52.59206 4.98306 40,000 240 457 0
2017-02-07 14:04:11 GMT 52.59485 4.99077 40,000 240 456 0
2017-02-07 14:04:07 GMT 52.59846 5.00099 40,000 240 456 0
2017-02-07 14:04:05 GMT 52.60057 5.00694 40,000 240 456 0
2017-02-07 14:04:05 GMT 52.60012 5.00561 40,000 240 456 0
2017-02-07 14:04:03 GMT 52.60226 5.01173 40,000 240 457 0
2017-02-07 14:04:01 GMT 52.60547 5.02075 40,000 240 457 0
2017-02-07 14:04:00 GMT 52.60547 5.02075 40,000 240 457 0
2017-02-07 14:04:00 GMT 52.60547 5.02075 40,000 240 457 0
2017-02-07 14:03:58 GMT 52.60859 5.02954 40,000 240 457 0
2017-02-07 14:03:56 GMT 52.61082 5.03582 40,000 240 457 0
2017-02-07 14:03:54 GMT 52.61292 5.04453 40,000 240 457 0
2017-02-07 14:03:52 GMT 52.61446 5.04602 40,000 240 457 0
2017-02-07 14:03:50 GMT 52.61595 5.05028 40,000 240 457 0
2017-02-07 14:03:49 GMT 52.61801 5.05600 40,000 240 457 0
2017-02-07 14:03:47 GMT 52.61971 5.06081 40,000 240 457 0
2017-02-07 14:03:45 GMT 52.62245 5.06867 40,000 240 457 64
2017-02-07 14:03:43 GMT 52.62358 5.07176 40,000 240 457 64
2017-02-07 14:03:41 GMT 52.62593 5.07835 40,000 240 457 0
2017-02-07 14:03:39 GMT 52.62768 5.08345 40,000 240 457 0
2017-02-07 14:03:37 GMT 52.63046 5.09125 40,000 240 457 -64
2017-02-07 14:03:36 GMT 52.63210 5.09585 40,000 240 457 -64
2017-02-07 14:03:35 GMT 52.63271 5.09766 40,000 240 457 0
2017-02-07 14:03:33 GMT 52.63481 5.10353 40,000 240 457 0
2017-02-07 14:03:31 GMT 52.63648 5.10825 40,000 240 457 0
2017-02-07 14:03:29 GMT 52.63862 5.11429 40,000 240 457 0
2017-02-07 14:03:27 GMT 52.64085 5.12054 40,000 240 457 0
2017-02-07 14:03:25 GMT 52.64328 5.12749 40,000 240 457 0
2017-02-07 14:03:25 GMT 52.64328 5.12749 40,000 240 457 0
2017-02-07 14:03:25 GMT 52.64328 5.12749 40,000 240 457 0
2017-02-07 14:03:23 GMT 52.64490 5.13203 40,000 240 457 0
2017-02-07 14:03:21 GMT 52.64800 5.14076 40,000 240 457 0
2017-02-07 14:03:19 GMT 52.64960 5.14534 40,000 240 457 0
2017-02-07 14:03:17 GMT 52.65184 5.15167 40,000 240 457 0
2017-02-07 14:03:15 GMT 52.65454 5.15942 40,000 240 457 0
2017-02-07 14:03:13 GMT 52.65561 5.16240 40,000 240 457 0
2017-02-07 14:03:11 GMT 52.65770 5.16836 40,000 240 456 0
2017-02-07 14:03:09 GMT 52.65999 5.17471 40,000 240 456 64
2017-02-07 14:03:06 GMT 52.66376 5.18555 40,000 241 456 0
2017-02-07 14:03:04 GMT 52.66571 5.19104 40,000 240 456 0
2017-02-07 14:03:02 GMT 52.66734 5.19559 40,000 240 456 0
2017-02-07 14:03:00 GMT 52.66933 5.20134 40,000 241 456 0
2017-02-07 14:02:58 GMT 52.67097 5.20592 40,000 241 456 0
2017-02-07 14:02:56 GMT 52.67376 5.21403 40,000 240 456 0
2017-02-07 14:02:54 GMT 52.67642 5.22141 40,000 240 456 0
2017-02-07 14:02:52 GMT 52.67784 5.22545 40,000 240 456 0
2017-02-07 14:02:50 GMT 52.67995 5.23161 40,000 240 456 0
2017-02-07 14:02:48 GMT 52.68247 5.23867 40,000 240 455 0
2017-02-07 14:02:46 GMT 52.68539 5.24696 40,000 240 455 -64
2017-02-07 14:02:43 GMT 52.68796 5.25429 40,000 241 456 0
2017-02-07 14:02:43 GMT 52.68847 5.25570 40,000 241 456 0
2017-02-07 14:02:41 GMT 52.68945 5.25845 40,000 241 456 0
2017-02-07 14:02:38 GMT 52.69280 5.26810 40,000 241 456 0
2017-02-07 14:02:35 GMT 52.69555 5.27579 40,000 240 455 -64
2017-02-07 14:02:32 GMT 52.69979 5.28796 40,000 240 455 0
2017-02-07 14:02:30 GMT 52.70146 5.29274 40,000 240 455 0
2017-02-07 14:02:27 GMT 52.70370 5.29902 40,000 240 455 0
2017-02-07 14:02:25 GMT 52.70705 5.30853 40,000 240 455 0
2017-02-07 14:02:23 GMT 52.70929 5.31487 40,000 240 455 -64
2017-02-07 14:02:21 GMT 52.71094 5.31959 40,000 241 454 -64
2017-02-07 14:02:21 GMT 52.71144 5.32097 40,000 241 454 -64
2017-02-07 14:02:21 GMT 52.71094 5.31959 40,000 241 454 -64
2017-02-07 14:02:19 GMT 52.71259 5.32421 40,000 241 454 -64
2017-02-07 14:02:17 GMT 52.71464 5.33010 40,000 240 455 0
2017-02-07 14:02:15 GMT 52.71641 5.33512 40,000 241 454 0
2017-02-07 14:02:13 GMT 52.71869 5.34163 40,000 240 455 64
2017-02-07 14:02:11 GMT 52.72232 5.35199 40,000 240 455 64
2017-02-07 14:02:11 GMT 52.72183 5.35072 40,000 240 455 64
2017-02-07 14:02:11 GMT 52.72232 5.35199 40,000 240 455 64
2017-02-07 14:02:09 GMT 52.72343 5.35515 40,000 241 454 0
2017-02-07 14:02:07 GMT 52.72492 5.35944 40,000 241 454 0
2017-02-07 14:02:04 GMT 52.72865 5.37004 40,000 241 455 -64
2017-02-07 14:02:02 GMT 52.73074 5.37608 40,000 241 455 -64
2017-02-07 14:01:59 GMT 52.73433 5.38643 40,000 241 454 0
2017-02-07 14:01:57 GMT 52.73593 5.39093 40,000 241 454 0
2017-02-07 14:01:54 GMT 52.73912 5.40002 40,000 241 454 0
2017-02-07 14:01:52 GMT 52.74229 5.40916 40,000 241 454 0
2017-02-07 14:01:50 GMT 52.74383 5.41351 40,000 241 454 0
2017-02-07 14:01:48 GMT 52.74606 5.41979 40,000 241 454 0
2017-02-07 14:01:46 GMT 52.74750 5.42395 40,000 241 454 0
2017-02-07 14:01:46 GMT 52.74655 5.42122 40,000 241 454 -64
2017-02-07 14:01:44 GMT 52.74955 5.42976 40,000 241 454 0
2017-02-07 14:01:42 GMT 52.75113 5.43434 40,000 241 454 0
2017-02-07 14:01:40 GMT 52.75474 5.44456 40,000 241 454 0
2017-02-07 14:01:38 GMT 52.75534 5.44632 40,000 241 454 -64
2017-02-07 14:01:36 GMT 52.75807 5.45408 40,000 241 455 0
2017-02-07 14:01:33 GMT 52.76147 5.46387 40,000 241 455 0
2017-02-07 14:01:31 GMT 52.76321 5.46890 40,000 241 455 0
2017-02-07 14:01:28 GMT 52.76645 5.47818 40,000 241 454 0
2017-02-07 14:01:25 GMT 52.76967 5.48744 40,000 240 454 0
2017-02-07 14:01:21 GMT 52.77448 5.50125 40,000 241 454 0
2017-02-07 14:01:19 GMT 52.77502 5.50282 40,000 241 454 0
2017-02-07 14:01:17 GMT 52.77762 5.51035 40,000 241 454 0
2017-02-07 14:01:15 GMT 52.78066 5.51888 40,000 241 454 0
2017-02-07 14:01:14 GMT 52.78207 5.52299 40,000 241 454 0
2017-02-07 14:01:14 GMT 52.78066 5.51888 40,000 241 454 0
2017-02-07 14:01:12 GMT 52.78386 5.52808 40,000 241 454 64
2017-02-07 14:01:10 GMT 52.78441 5.52963 40,000 241 454 64
2017-02-07 14:01:08 GMT 52.78706 5.53719 40,000 241 454 0
2017-02-07 14:01:06 GMT 52.78912 5.54314 40,000 241 454 0
2017-02-07 14:01:04 GMT 52.79229 5.55218 40,000 241 454 -64
2017-02-07 14:01:02 GMT 52.79343 5.55557 40,000 241 453 64
2017-02-07 14:01:00 GMT 52.79568 5.56199 40,000 241 454 0
2017-02-07 14:00:57 GMT 52.79973 5.57368 40,000 241 453 64
2017-02-07 14:00:57 GMT 52.79883 5.57106 40,000 241 453 64
2017-02-07 14:00:57 GMT 52.79883 5.57106 40,000 241 453 64
2017-02-07 14:00:56 GMT 52.80076 5.57666 40,000 241 454 64
2017-02-07 14:00:55 GMT 52.80015 5.57493 40,000 241 454 64
2017-02-07 14:00:53 GMT 52.80382 5.58548 40,000 241 454 0
2017-02-07 14:00:50 GMT 52.80653 5.59322 40,000 241 454 -64
2017-02-07 14:00:50 GMT 52.80711 5.59502 40,000 241 453 -64
2017-02-07 14:00:48 GMT 52.80816 5.59793 40,000 241 453 0
2017-02-07 14:00:46 GMT 52.81025 5.60413 40,000 241 453 0
2017-02-07 14:00:44 GMT 52.81220 5.60966 40,000 241 453 0
2017-02-07 14:00:41 GMT 52.81482 5.61715 40,000 241 453 0
2017-02-07 14:00:39 GMT 52.81728 5.62429 40,000 241 453 0
2017-02-07 14:00:37 GMT 52.81961 5.63103 40,000 241 453 0
2017-02-07 14:00:35 GMT 52.82158 5.63675 40,000 241 453 0
2017-02-07 14:00:33 GMT 52.82368 5.64278 40,000 241 453 0
2017-02-07 14:00:31 GMT 52.82661 5.65132 40,000 241 453 0
2017-02-07 14:00:29 GMT 52.82854 5.65681 40,000 241 453 0
2017-02-07 14:00:27 GMT 52.82962 5.65992 40,000 241 453 0
2017-02-07 14:00:25 GMT 52.83225 5.66757 40,000 241 453 0
2017-02-07 14:00:23 GMT 52.83376 5.67193 40,000 241 453 0
2017-02-07 14:00:20 GMT 52.83819 5.68472 40,000 241 453 0
2017-02-07 14:00:20 GMT 52.83705 5.68146 40,000 241 452 64
2017-02-07 14:00:18 GMT 52.83977 5.68935 40,000 241 453 64
2017-02-07 14:00:15 GMT 52.84314 5.69900 40,000 241 453 0
2017-02-07 14:00:15 GMT 52.84255 5.69725 40,000 241 453 0
2017-02-07 14:00:15 GMT 52.84255 5.69725 40,000 241 453 0
2017-02-07 14:00:13 GMT 52.84483 5.70389 40,000 241 453 0
2017-02-07 14:00:12 GMT 52.84483 5.70389 40,000 241 453 0
2017-02-07 14:00:10 GMT 52.84843 5.71430 40,000 241 453 0
2017-02-07 14:00:08 GMT 52.84955 5.71762 40,000 241 453 0
2017-02-07 14:00:06 GMT 52.85178 5.72411 40,000 241 452 0
2017-02-07 14:00:04 GMT 52.85358 5.72922 40,000 241 452 0
2017-02-07 14:00:04 GMT 52.85358 5.72922 40,000 241 452 0
2017-02-07 14:00:02 GMT 52.85559 5.73509 40,000 241 452 0
2017-02-07 14:00:00 GMT 52.85867 5.74404 40,000 241 452 0
2017-02-07 13:59:58 GMT 52.86058 5.74954 40,000 241 452 0
2017-02-07 13:59:56 GMT 52.86277 5.75589 40,000 241 452 0
2017-02-07 13:59:54 GMT 52.86440 5.76060 40,000 241 452 -64
2017-02-07 13:59:52 GMT 52.86640 5.76641 40,000 241 452 0
2017-02-07 13:59:50 GMT 52.86882 5.77339 40,000 241 452 0
2017-02-07 13:59:48 GMT 52.87096 5.77967 40,000 241 452 0
2017-02-07 13:59:46 GMT 52.87310 5.78587 40,000 241 452 0
2017-02-07 13:59:44 GMT 52.87418 5.78903 40,000 241 452 0
2017-02-07 13:59:42 GMT 52.87624 5.79498 40,000 241 451 0
2017-02-07 13:59:39 GMT 52.87938 5.80408 40,000 241 450 0
2017-02-07 13:59:37 GMT 52.88237 5.81284 40,000 241 451 -64
2017-02-07 13:59:35 GMT 52.88393 5.81726 40,000 241 450 -64
2017-02-07 13:59:33 GMT 52.88594 5.82321 40,000 241 450 -64
2017-02-07 13:59:31 GMT 52.88791 5.82893 40,000 241 450 0
2017-02-07 13:59:29 GMT 52.89061 5.83672 40,000 241 450 64
2017-02-07 13:59:28 GMT 52.89061 5.83672 40,000 241 450 0
2017-02-07 13:59:26 GMT 52.89382 5.84606 40,000 241 450 64
2017-02-07 13:59:24 GMT 52.89500 5.84953 40,000 241 450 0
2017-02-07 13:59:22 GMT 52.89773 5.85744 40,000 241 450 0
2017-02-07 13:59:20 GMT 52.89899 5.86113 40,000 241 450 0
2017-02-07 13:59:18 GMT 52.90100 5.86700 40,000 241 450 0
2017-02-07 13:59:16 GMT 52.90311 5.87311 40,000 241 450 0
2017-02-07 13:59:14 GMT 52.90583 5.88106 40,000 241 450 0
2017-02-07 13:59:11 GMT 52.90834 5.88844 40,000 241 450 -64
2017-02-07 13:59:09 GMT 52.90997 5.89322 40,000 241 450 -64
2017-02-07 13:59:06 GMT 52.91383 5.90444 40,000 241 450 0
2017-02-07 13:59:04 GMT 52.91579 5.91017 40,000 241 449 64
2017-02-07 13:59:01 GMT 52.91904 5.91965 40,000 241 449 0
2017-02-07 13:58:59 GMT 52.92063 5.92430 40,000 241 449 0
2017-02-07 13:58:56 GMT 52.92463 5.93607 40,000 241 449 -64
2017-02-07 13:58:53 GMT 52.92631 5.94093 40,000 241 449 -64
2017-02-07 13:58:51 GMT 52.92952 5.95024 40,000 241 449 0
2017-02-07 13:58:48 GMT 52.93250 5.95891 40,000 241 449 64
2017-02-07 13:58:46 GMT 52.93350 5.96184 40,000 241 449 64
2017-02-07 13:58:44 GMT 52.93593 5.96901 40,000 241 449 64
2017-02-07 13:58:42 GMT 52.93916 5.97837 40,000 241 449 0
2017-02-07 13:58:40 GMT 52.94128 5.98473 40,000 241 448 0
2017-02-07 13:58:37 GMT 52.94284 5.98928 40,000 241 448 -64
2017-02-07 13:58:35 GMT 52.94474 5.99477 40,000 241 448 0
2017-02-07 13:58:33 GMT 52.94726 6.00222 40,000 241 449 64
2017-02-07 13:58:31 GMT 52.94870 6.00646 40,000 241 449 64
2017-02-07 13:58:28 GMT 52.95247 6.01753 40,000 241 449 0
2017-02-07 13:58:25 GMT 52.95499 6.02490 40,000 241 449 -64
2017-02-07 13:58:23 GMT 52.95885 6.03620 40,000 241 449 0
2017-02-07 13:58:21 GMT 52.96028 6.04034 40,000 241 449 0
2017-02-07 13:58:18 GMT 52.96337 6.04939 40,000 241 448 -64
2017-02-07 13:58:15 GMT 52.96587 6.05675 40,000 241 448 0
2017-02-07 13:58:15 GMT 52.96587 6.05675 40,000 241 448 -64
2017-02-07 13:58:12 GMT 52.96861 6.06484 40,000 241 448 0
2017-02-07 13:58:12 GMT 52.96861 6.06484 40,000 241 448 0
2017-02-07 13:58:10 GMT 52.97119 6.07246 40,000 241 448 0
2017-02-07 13:58:08 GMT 52.97342 6.07897 40,000 241 448 0
2017-02-07 13:58:05 GMT 52.97617 6.08704 40,000 241 448 64
2017-02-07 13:58:05 GMT 52.97667 6.08856 40,000 241 448 64
2017-02-07 13:58:03 GMT 52.97873 6.09467 40,000 241 449 0
2017-02-07 13:58:01 GMT 52.98019 6.09894 40,000 241 449 0
2017-02-07 13:57:59 GMT 52.98244 6.10550 40,000 241 449 -64
2017-02-07 13:57:57 GMT 52.98463 6.11206 40,000 241 449 -64
2017-02-07 13:57:54 GMT 52.98771 6.12111 40,000 241 449 0
2017-02-07 13:57:52 GMT 52.98925 6.12558 40,000 241 449 0
2017-02-07 13:57:52 GMT 52.98925 6.12558 40,000 241 449 0
2017-02-07 13:57:50 GMT 52.99120 6.13139 40,000 241 449 0
2017-02-07 13:57:50 GMT 52.99120 6.13139 40,000 241 449 0
2017-02-07 13:57:47 GMT 52.99475 6.14197 40,000 241 449 0
2017-02-07 13:57:47 GMT 52.99372 6.13885 40,000 241 449 0
2017-02-07 13:57:44 GMT 52.99726 6.14928 40,000 241 449 -64
2017-02-07 13:57:41 GMT 53.00024 6.15807 40,000 241 449 -64
2017-02-07 13:57:40 GMT 53.00182 6.16286 40,000 241 449 0
2017-02-07 13:57:39 GMT 53.00345 6.16757 40,000 241 449 -64
2017-02-07 13:57:37 GMT 53.00496 6.17210 40,000 241 450 0
2017-02-07 13:57:37 GMT 53.00446 6.17050 40,000 241 450 0
2017-02-07 13:57:34 GMT 53.00754 6.17965 40,000 241 450 0
2017-02-07 13:57:32 GMT 53.01064 6.18881 40,000 241 450 0
2017-02-07 13:57:30 GMT 53.01164 6.19174 40,000 241 449 0
2017-02-07 13:57:28 GMT 53.01364 6.19754 40,000 241 449 0
2017-02-07 13:57:26 GMT 53.01654 6.20621 40,000 241 450 -64
2017-02-07 13:57:24 GMT 53.01806 6.21065 40,000 241 450 -64
2017-02-07 13:57:22 GMT 53.01956 6.21513 40,000 241 450 -64
2017-02-07 13:57:20 GMT 53.02281 6.22467 40,000 241 450 0
2017-02-07 13:57:18 GMT 53.02384 6.22784 40,000 241 450 64
2017-02-07 13:57:16 GMT 53.02492 6.23093 40,000 241 450 0
2017-02-07 13:57:14 GMT 53.02831 6.24094 40,000 241 450 0
2017-02-07 13:57:14 GMT 53.02876 6.24237 40,000 241 450 64
2017-02-07 13:57:12 GMT 53.03045 6.24737 40,000 241 450 0
2017-02-07 13:57:10 GMT 53.03146 6.25023 40,000 241 450 0
2017-02-07 13:57:08 GMT 53.03413 6.25813 40,000 241 450 -64
2017-02-07 13:57:08 GMT 53.03361 6.25656 40,000 241 450 0
2017-02-07 13:57:06 GMT 53.03572 6.26282 40,000 241 450 -64
2017-02-07 13:57:04 GMT 53.03769 6.26869 40,000 241 450 0
2017-02-07 13:57:01 GMT 53.04041 6.27672 40,000 241 450 0
2017-02-07 13:56:59 GMT 53.04332 6.28532 40,000 241 450 0
2017-02-07 13:56:59 GMT 53.04387 6.28693 40,000 241 450 0
2017-02-07 13:56:59 GMT 53.04387 6.28693 40,000 241 450 0
2017-02-07 13:56:57 GMT 53.04618 6.29375 40,000 241 450 -64
2017-02-07 13:56:55 GMT 53.04674 6.29540 40,000 241 450 -64
2017-02-07 13:56:53 GMT 53.04996 6.30493 40,000 241 451 0
2017-02-07 13:56:50 GMT 53.05197 6.31096 40,000 241 451 64
2017-02-07 13:56:48 GMT 53.05417 6.31744 40,000 241 451 128
2017-02-07 13:56:46 GMT 53.05605 6.32301 40,000 241 451 64
2017-02-07 13:56:44 GMT 53.05774 6.32805 40,000 241 451 64
2017-02-07 13:56:42 GMT 53.06145 6.33896 40,000 241 452 -64
2017-02-07 13:56:40 GMT 53.06336 6.34460 40,000 241 452 -64
2017-02-07 13:56:38 GMT 53.06378 6.34582 40,000 241 452 -64
2017-02-07 13:56:36 GMT 53.06639 6.35353 40,000 241 452 0
2017-02-07 13:56:34 GMT 53.06786 6.35796 40,000 241 452 0
2017-02-07 13:56:31 GMT 53.07272 6.37246 40,000 241 453 0
2017-02-07 13:56:29 GMT 53.07422 6.37680 40,000 241 453 0
2017-02-07 13:56:27 GMT 53.07605 6.38229 40,000 241 453 0
2017-02-07 13:56:25 GMT 53.07756 6.38682 40,000 241 453 0
2017-02-07 13:56:23 GMT 53.08003 6.39412 40,000 240 453 0
2017-02-07 13:56:23 GMT 53.08003 6.39412 40,000 241 453 0
2017-02-07 13:56:21 GMT 53.08165 6.39899 40,000 241 453 0
2017-02-07 13:56:19 GMT 53.08380 6.40534 40,000 241 453 0
2017-02-07 13:56:17 GMT 53.08529 6.40989 40,000 241 453 0
2017-02-07 13:56:15 GMT 53.08775 6.41727 40,000 241 453 0
2017-02-07 13:56:13 GMT 53.09056 6.42555 40,000 241 453 0
2017-02-07 13:56:11 GMT 53.09212 6.43013 40,000 241 453 0
2017-02-07 13:56:09 GMT 53.09477 6.43814 40,000 241 453 0
2017-02-07 13:56:06 GMT 53.09725 6.44558 40,000 241 453 0
2017-02-07 13:56:04 GMT 53.09889 6.45047 40,000 241 453 0
2017-02-07 13:56:01 GMT 53.10260 6.46153 40,000 241 453 64
2017-02-07 13:55:58 GMT 53.10645 6.47299 40,000 241 453 64
2017-02-07 13:55:56 GMT 53.10851 6.47919 40,000 241 453 0
2017-02-07 13:55:54 GMT 53.10851 6.47919 40,000 241 453 0
2017-02-07 13:55:52 GMT 53.11163 6.48840 40,000 240 453 0
2017-02-07 13:55:50 GMT 53.11382 6.49502 40,000 241 453 0
2017-02-07 13:55:48 GMT 53.11554 6.50011 40,000 241 453 64
2017-02-07 13:55:46 GMT 53.11820 6.50795 40,000 241 453 0
2017-02-07 13:55:46 GMT 53.11820 6.50795 40,000 241 453 0
2017-02-07 13:55:44 GMT 53.12015 6.51392 40,000 241 453 0
2017-02-07 13:55:41 GMT 53.12215 6.51982 40,000 240 453 0
2017-02-07 13:55:38 GMT 53.12526 6.52902 40,000 242 453 0
2017-02-07 13:55:36 GMT 53.12783 6.53670 40,000 242 453 0
2017-02-07 13:55:36 GMT 53.12783 6.53670 40,000 242 453 0
2017-02-07 13:55:34 GMT 53.13025 6.54397 40,000 242 453 0
2017-02-07 13:55:34 GMT 53.13080 6.54558 40,000 242 453 0
2017-02-07 13:55:31 GMT 53.13281 6.55162 40,000 242 453 -64
2017-02-07 13:55:29 GMT 53.13542 6.55947 40,000 242 453 -64
2017-02-07 13:55:27 GMT 53.13649 6.56264 40,000 242 453 0
2017-02-07 13:55:25 GMT 53.13950 6.57171 40,000 242 453 0
2017-02-07 13:55:23 GMT 53.14101 6.57626 40,000 242 453 0
2017-02-07 13:55:21 GMT 53.14348 6.58371 40,000 242 453 0
2017-02-07 13:55:21 GMT 53.14348 6.58371 40,000 242 453 0
2017-02-07 13:55:19 GMT 53.14545 6.58960 40,000 242 453 0
2017-02-07 13:55:17 GMT 53.14700 6.59423 40,000 242 453 0
2017-02-07 13:55:14 GMT 53.15002 6.60325 40,000 242 453 0
2017-02-07 13:55:12 GMT 53.15214 6.60957 40,000 242 453 0
2017-02-07 13:55:10 GMT 53.15369 6.61432 40,000 242 453 0
2017-02-07 13:55:08 GMT 53.15642 6.62241 40,000 242 453 0
2017-02-07 13:55:06 GMT 53.15828 6.62799 40,000 242 453 0
2017-02-07 13:55:04 GMT 53.16093 6.63607 40,000 242 453 0
2017-02-07 13:55:04 GMT 53.16133 6.63731 40,000 242 453 0
2017-02-07 13:55:02 GMT 53.16289 6.64196 40,000 242 453 0
2017-02-07 13:55:00 GMT 53.16550 6.64979 40,000 242 452 0
2017-02-07 13:54:58 GMT 53.16652 6.65295 40,000 242 453 -64
2017-02-07 13:54:56 GMT 53.16806 6.65756 40,000 242 452 -64
2017-02-07 13:54:54 GMT 53.17122 6.66709 40,000 242 452 0
2017-02-07 13:54:52 GMT 53.17355 6.67404 40,000 242 452 0
2017-02-07 13:54:51 GMT 53.17266 6.67137 40,000 242 452 0
2017-02-07 13:54:49 GMT 53.17557 6.68008 40,000 242 452 0
2017-02-07 13:54:47 GMT 53.17695 6.68429 40,000 242 452 0
2017-02-07 13:54:45 GMT 53.17960 6.69224 40,000 242 452 0
2017-02-07 13:54:42 GMT 53.18272 6.70158 40,000 242 452 0
2017-02-07 13:54:40 GMT 53.18491 6.70820 40,000 241 452 0
2017-02-07 13:54:38 GMT 53.18733 6.71547 40,000 242 452 0
2017-02-07 13:54:36 GMT 53.18896 6.72048 40,000 242 452 0
2017-02-07 13:54:34 GMT 53.19008 6.72379 40,000 242 452 0
2017-02-07 13:54:32 GMT 53.19209 6.72991 40,000 242 452 0
2017-02-07 13:54:30 GMT 53.19496 6.73858 40,000 242 452 0
2017-02-07 13:54:27 GMT 53.19738 6.74593 40,000 242 452 64
2017-02-07 13:54:25 GMT 53.19953 6.75231 40,000 242 452 64
2017-02-07 13:54:23 GMT 53.20267 6.76193 40,000 242 453 0
2017-02-07 13:54:21 GMT 53.20326 6.76365 40,000 242 453 0
2017-02-07 13:54:21 GMT 53.20326 6.76365 40,000 242 453 0
2017-02-07 13:54:19 GMT 53.20610 6.77221 40,000 241 453 -64
2017-02-07 13:54:18 GMT 53.20610 6.77221 40,000 242 453 0
2017-02-07 13:54:16 GMT 53.20862 6.77982 40,000 242 453 -64
2017-02-07 13:54:14 GMT 53.21098 6.78705 40,000 242 453 -64
2017-02-07 13:54:12 GMT 53.21326 6.79391 40,000 242 453 0
2017-02-07 13:54:12 GMT 53.21379 6.79544 40,000 242 453 0
2017-02-07 13:54:11 GMT 53.21420 6.79677 40,000 242 453 0
2017-02-07 13:54:09 GMT 53.21626 6.80297 40,000 242 454 0
2017-02-07 13:54:07 GMT 53.21763 6.80724 40,000 242 454 64
2017-02-07 13:54:05 GMT 53.21959 6.81314 40,000 242 456 64
2017-02-07 13:54:03 GMT 53.22194 6.82016 40,000 242 454 -64
2017-02-07 13:54:01 GMT 53.22409 6.82659 40,000 242 454 -64
2017-02-07 13:53:59 GMT 53.22615 6.83287 40,000 242 454 -64
2017-02-07 13:53:57 GMT 53.22867 6.84056 40,000 242 454 0
2017-02-07 13:53:57 GMT 53.22922 6.84214 40,000 242 454 0
2017-02-07 13:53:55 GMT 53.22978 6.84392 40,000 242 454 0
2017-02-07 13:53:53 GMT 53.23293 6.85335 40,000 242 454 -64
2017-02-07 13:53:50 GMT 53.23560 6.86153 40,000 242 454 -64
2017-02-07 13:53:48 GMT 53.23784 6.86823 40,000 242 454 -64
2017-02-07 13:53:47 GMT 53.23732 6.86670 40,000 242 454 -64
2017-02-07 13:53:45 GMT 53.23989 6.87445 40,000 242 454 -64
2017-02-07 13:53:43 GMT 53.24189 6.88051 40,000 242 454 -64
2017-02-07 13:53:43 GMT 53.24189 6.88051 40,000 242 454 -64
2017-02-07 13:53:41 GMT 53.24464 6.88882 40,000 242 455 -64
2017-02-07 13:53:41 GMT 53.24515 6.89045 40,000 242 455 -64
2017-02-07 13:53:39 GMT 53.24638 6.89408 40,000 242 455 -64
2017-02-07 13:53:37 GMT 53.24835 6.90012 40,000 242 455 -64
2017-02-07 13:53:35 GMT 53.25032 6.90608 40,025 242 455 0
2017-02-07 13:53:33 GMT 53.25180 6.91048 40,025 242 455 0
2017-02-07 13:53:31 GMT 53.25376 6.91646 40,025 242 455 0
2017-02-07 13:53:29 GMT 53.25696 6.92625 40,000 242 455 0
2017-02-07 13:53:27 GMT 53.25795 6.92914 40,000 242 455 64
2017-02-07 13:53:27 GMT 53.25833 6.93041 40,000 242 455 64
2017-02-07 13:53:25 GMT 53.26089 6.93810 40,000 242 456 64
2017-02-07 13:53:23 GMT 53.26340 6.94578 40,000 242 456 64
2017-02-07 13:53:19 GMT 53.26657 6.95537 40,000 242 456 0
2017-02-07 13:53:17 GMT 53.26863 6.96149 40,000 242 456 0
2017-02-07 13:53:15 GMT 53.27115 6.96918 40,000 242 457 0
2017-02-07 13:53:13 GMT 53.27316 6.97530 40,000 242 458 0
2017-02-07 13:53:11 GMT 53.27405 6.97810 40,000 242 458 0
2017-02-07 13:53:09 GMT 53.27664 6.98597 40,000 242 458 64
2017-02-07 13:53:07 GMT 53.27907 6.99343 39,975 241 458 0
2017-02-07 13:53:05 GMT 53.28053 6.99805 40,000 242 458 0
2017-02-07 13:53:05 GMT 53.28053 6.99805 40,000 242 458 0
2017-02-07 13:53:03 GMT 53.28323 7.00629 40,000 242 458 0
2017-02-07 13:53:00 GMT 53.28583 7.01437 40,000 242 458 0
2017-02-07 13:52:58 GMT 53.28830 7.02188 40,000 242 459 0
2017-02-07 13:52:56 GMT 53.28969 7.02615 40,000 242 459 0
2017-02-07 13:52:56 GMT 53.28969 7.02615 40,000 242 459 0
2017-02-07 13:52:54 GMT 53.29235 7.03424 40,000 242 459 0
2017-02-07 13:52:51 GMT 53.29603 7.04547 40,000 242 458 0
2017-02-07 13:52:48 GMT 53.29859 7.05330 40,000 242 458 0
2017-02-07 13:52:46 GMT 53.30073 7.05985 40,000 242 458 0
2017-02-07 13:52:44 GMT 53.30182 7.06319 40,000 242 458 0
2017-02-07 13:52:41 GMT 53.30516 7.07347 40,000 242 459 0
2017-02-07 13:52:39 GMT 53.30759 7.08085 40,000 242 459 64
2017-02-07 13:52:39 GMT 53.30759 7.08085 40,000 242 459 64
2017-02-07 13:52:37 GMT 53.30874 7.08440 40,000 242 459 0
2017-02-07 13:52:35 GMT 53.31079 7.09079 40,000 242 459 0
2017-02-07 13:52:33 GMT 53.31331 7.09842 40,000 242 459 -64
2017-02-07 13:52:31 GMT 53.31596 7.10651 40,000 242 459 0
2017-02-07 13:52:28 GMT 53.31802 7.11294 40,000 242 459 0
2017-02-07 13:52:26 GMT 53.32121 7.12261 40,000 242 460 64
2017-02-07 13:52:26 GMT 53.32065 7.12100 40,000 242 459 0
2017-02-07 13:52:24 GMT 53.32224 7.12585 40,000 242 460 64
2017-02-07 13:52:22 GMT 53.32512 7.13465 40,000 242 460 64
2017-02-07 13:52:20 GMT 53.32713 7.14079 40,000 242 460 0
2017-02-07 13:52:18 GMT 53.32809 7.14378 40,000 242 460 -64
2017-02-07 13:52:16 GMT 53.33015 7.15014 40,000 242 460 -64
2017-02-07 13:52:14 GMT 53.33235 7.15681 40,000 242 460 -64
2017-02-07 13:52:12 GMT 53.33443 7.16317 40,000 242 460 -64
2017-02-07 13:52:10 GMT 53.33676 7.17036 40,000 242 460 64
2017-02-07 13:52:08 GMT 53.33886 7.17674 40,000 242 460 0
2017-02-07 13:52:05 GMT 53.34183 7.18584 40,000 241 460 64
2017-02-07 13:52:03 GMT 53.34403 7.19267 40,000 242 459 0
2017-02-07 13:52:00 GMT 53.34654 7.20036 40,000 242 459 0
2017-02-07 13:51:57 GMT 53.35039 7.21213 40,000 242 459 0
2017-02-07 13:51:55 GMT 53.35176 7.21653 40,000 242 459 0
2017-02-07 13:51:53 GMT 53.35329 7.22109 40,000 242 459 0
2017-02-07 13:51:51 GMT 53.35583 7.22900 40,000 242 460 0
2017-02-07 13:51:51 GMT 53.35538 7.22763 40,000 242 460 0
2017-02-07 13:51:51 GMT 53.35538 7.22763 40,000 242 460 0
2017-02-07 13:51:49 GMT 53.35734 7.23361 40,000 242 460 0
2017-02-07 13:51:47 GMT 53.35952 7.24031 40,000 242 459 0
2017-02-07 13:51:45 GMT 53.36266 7.24996 40,000 242 459 0
2017-02-07 13:51:43 GMT 53.36367 7.25308 40,000 242 459 0
2017-02-07 13:51:41 GMT 53.36697 7.26334 40,000 242 460 0
2017-02-07 13:51:41 GMT 53.36650 7.26173 40,000 242 460 0
2017-02-07 13:51:38 GMT 53.36907 7.26972 40,000 242 461 0
2017-02-07 13:51:36 GMT 53.37107 7.27594 40,000 242 460 -64
2017-02-07 13:51:34 GMT 53.37382 7.28442 40,000 242 460 0
2017-02-07 13:51:33 GMT 53.37492 7.28778 40,000 242 460 0
2017-02-07 13:51:32 GMT 53.37433 7.28598 40,000 242 460 0
2017-02-07 13:51:30 GMT 53.37707 7.29444 40,000 242 460 64
2017-02-07 13:51:28 GMT 53.37863 7.29924 40,000 242 460 0
2017-02-07 13:51:26 GMT 53.38060 7.30536 40,000 242 460 64
2017-02-07 13:51:23 GMT 53.38401 7.31592 40,000 242 460 0
2017-02-07 13:51:21 GMT 53.38669 7.32411 40,000 242 460 0
2017-02-07 13:51:19 GMT 53.38861 7.33008 40,000 242 460 64
2017-02-07 13:51:16 GMT 53.39113 7.33793 40,000 242 460 64
2017-02-07 13:51:14 GMT 53.39365 7.34573 40,000 242 460 0
2017-02-07 13:51:12 GMT 53.39528 7.35066 40,000 242 460 0
2017-02-07 13:51:09 GMT 53.39784 7.35850 40,000 242 460 0
2017-02-07 13:51:07 GMT 53.39984 7.36480 40,000 242 460 0
2017-02-07 13:51:07 GMT 53.40079 7.36767 40,000 242 461 64
2017-02-07 13:51:05 GMT 53.40193 7.37126 40,000 242 461 64
2017-02-07 13:51:03 GMT 53.40491 7.38038 40,000 241 461 64
2017-02-07 13:51:01 GMT 53.40688 7.38650 40,000 242 461 0
2017-02-07 13:50:59 GMT 53.40880 7.39254 40,000 242 461 0
2017-02-07 13:50:54 GMT 53.41452 7.41036 40,000 242 461 0
2017-02-07 13:50:52 GMT 53.41507 7.41200 40,000 241 461 0
2017-02-07 13:50:52 GMT 53.41507 7.41200 40,000 242 461 0
2017-02-07 13:50:49 GMT 53.41901 7.42417 40,000 242 461 0
2017-02-07 13:50:47 GMT 53.41995 7.42716 40,000 242 461 0
2017-02-07 13:50:45 GMT 53.42258 7.43539 40,000 242 461 0
2017-02-07 13:50:43 GMT 53.42577 7.44526 40,000 242 460 0
2017-02-07 13:50:41 GMT 53.42679 7.44850 40,000 242 460 0
2017-02-07 13:50:39 GMT 53.42880 7.45469 40,000 242 460 0
2017-02-07 13:50:37 GMT 53.43150 7.46309 40,000 242 460 0
2017-02-07 13:50:34 GMT 53.43433 7.47200 40,000 242 460 0
2017-02-07 13:50:32 GMT 53.43581 7.47651 40,000 242 461 0
2017-02-07 13:50:32 GMT 53.43581 7.47651 40,000 242 461 0
2017-02-07 13:50:30 GMT 53.43887 7.48608 40,000 242 461 0
2017-02-07 13:50:28 GMT 53.44093 7.49244 40,000 242 461 0
2017-02-07 13:50:26 GMT 53.44192 7.49566 40,000 242 461 0
2017-02-07 13:50:24 GMT 53.44340 7.50021 40,000 242 461 0
2017-02-07 13:50:22 GMT 53.44602 7.50843 40,000 242 461 -64
2017-02-07 13:50:20 GMT 53.44867 7.51667 40,000 242 461 0
2017-02-07 13:50:17 GMT 53.45123 7.52469 40,000 242 461 0
2017-02-07 13:50:15 GMT 53.45370 7.53246 40,000 242 461 0
2017-02-07 13:50:13 GMT 53.45517 7.53693 40,000 242 461 0
2017-02-07 13:50:11 GMT 53.45755 7.54439 40,000 242 461 0
2017-02-07 13:50:09 GMT 53.45812 7.54615 40,000 242 461 0
2017-02-07 13:50:06 GMT 53.46185 7.55789 40,000 242 461 0
2017-02-07 13:50:06 GMT 53.46185 7.55789 40,000 242 461 64
2017-02-07 13:50:04 GMT 53.46382 7.56401 40,000 242 461 0
2017-02-07 13:50:02 GMT 53.46673 7.57297 40,000 242 462 -64
2017-02-07 13:50:00 GMT 53.46726 7.57468 40,000 242 462 -64
2017-02-07 13:49:58 GMT 53.46973 7.58229 40,000 242 462 64
2017-02-07 13:49:56 GMT 53.47283 7.59204 40,000 242 461 64
2017-02-07 13:49:55 GMT 53.47283 7.59204 40,000 242 461 64
2017-02-07 13:49:53 GMT 53.47437 7.59680 40,000 242 461 64
2017-02-07 13:49:51 GMT 53.47688 7.60464 40,000 242 461 64
2017-02-07 13:49:50 GMT 53.47833 7.60916 40,000 242 461 0
2017-02-07 13:49:49 GMT 53.47833 7.60916 40,000 242 461 0
2017-02-07 13:49:47 GMT 53.48024 7.61514 40,000 242 461 0
2017-02-07 13:49:45 GMT 53.48419 7.62750 40,000 242 461 0
2017-02-07 13:49:43 GMT 53.48524 7.63079 40,000 242 461 0
2017-02-07 13:49:41 GMT 53.48767 7.63856 40,000 242 461 -64
2017-02-07 13:49:41 GMT 53.48767 7.63856 40,000 242 461 -64
2017-02-07 13:49:39 GMT 53.48875 7.64188 40,000 242 461 -64
2017-02-07 13:49:37 GMT 53.49029 7.64673 40,000 242 461 -64
2017-02-07 13:49:34 GMT 53.49403 7.65841 40,000 242 461 0
2017-02-07 13:49:32 GMT 53.49564 7.66343 40,000 242 461 0
2017-02-07 13:49:30 GMT 53.49834 7.67193 40,000 242 461 64
2017-02-07 13:49:30 GMT 53.49834 7.67193 40,000 242 462 64
2017-02-07 13:49:28 GMT 53.50039 7.67839 40,000 242 462 64
2017-02-07 13:49:27 GMT 53.50131 7.68133 40,000 242 462 0
2017-02-07 13:49:23 GMT 53.50514 7.69326 40,000 242 462 0
2017-02-07 13:49:21 GMT 53.50831 7.70319 40,000 242 462 -64
2017-02-07 13:49:19 GMT 53.51026 7.70941 40,000 242 462 -64
2017-02-07 13:49:19 GMT 53.50978 7.70785 40,000 242 462 -64
2017-02-07 13:49:17 GMT 53.51129 7.71264 40,000 242 462 -64
2017-02-07 13:49:15 GMT 53.51413 7.72150 40,000 242 462 0
2017-02-07 13:49:12 GMT 53.51631 7.72832 40,000 242 462 64
2017-02-07 13:49:10 GMT 53.51820 7.73438 40,000 242 462 64
2017-02-07 13:49:08 GMT 53.52022 7.74057 40,000 242 462 0
2017-02-07 13:49:06 GMT 53.52228 7.74709 40,000 242 462 0
2017-02-07 13:49:04 GMT 53.52429 7.75352 40,000 242 462 0
2017-02-07 13:49:02 GMT 53.52688 7.76160 40,000 242 462 0
2017-02-07 13:49:00 GMT 53.52837 7.76628 40,000 242 462 0
2017-02-07 13:48:58 GMT 53.53033 7.77236 40,000 242 462 0
2017-02-07 13:48:55 GMT 53.53289 7.78042 40,000 242 462 0
2017-02-07 13:48:52 GMT 53.53731 7.79423 40,000 242 462 0
2017-02-07 13:48:50 GMT 53.53830 7.79739 40,000 242 462 0
2017-02-07 13:48:48 GMT 53.54140 7.80708 40,000 242 462 0
2017-02-07 13:48:46 GMT 53.54299 7.81209 40,000 242 462 0
2017-02-07 13:48:43 GMT 53.54558 7.82022 40,000 242 462 0
2017-02-07 13:48:41 GMT 53.54805 7.82792 40,000 242 462 0
2017-02-07 13:48:41 GMT 53.54846 7.82925 40,000 242 462 0
2017-02-07 13:48:39 GMT 53.54895 7.83075 40,000 242 462 0
2017-02-07 13:48:37 GMT 53.55208 7.84055 40,000 241 462 64
2017-02-07 13:48:34 GMT 53.55418 7.84722 40,000 243 463 64
2017-02-07 13:48:31 GMT 53.55780 7.85852 40,000 243 463 64
2017-02-07 13:48:31 GMT 53.55826 7.85993 40,000 243 463 0
2017-02-07 13:48:28 GMT 53.56036 7.86668 40,000 243 463 0
2017-02-07 13:48:25 GMT 53.56430 7.87916 40,000 243 463 0
2017-02-07 13:48:23 GMT 53.56519 7.88196 40,000 243 463 0
2017-02-07 13:48:21 GMT 53.56710 7.88802 40,000 243 463 0
2017-02-07 13:48:19 GMT 53.56920 7.89465 40,000 243 463 0
2017-02-07 13:48:16 GMT 53.57278 7.90596 40,000 243 463 0
2017-02-07 13:48:14 GMT 53.57579 7.91549 40,000 243 463 0
2017-02-07 13:48:12 GMT 53.57634 7.91714 40,000 243 463 0
2017-02-07 13:48:10 GMT 53.57962 7.92744 40,000 243 463 64
2017-02-07 13:48:10 GMT 53.57902 7.92567 40,000 243 463 64
2017-02-07 13:48:10 GMT 53.57902 7.92567 40,000 243 463 0
2017-02-07 13:48:08 GMT 53.58060 7.93056 40,000 243 463 64
2017-02-07 13:48:05 GMT 53.58349 7.93980 40,000 243 463 0
2017-02-07 13:48:03 GMT 53.58549 7.94618 40,000 243 463 0
2017-02-07 13:48:01 GMT 53.58792 7.95387 40,000 243 463 0
2017-02-07 13:47:59 GMT 53.59003 7.96054 40,000 243 463 0
2017-02-07 13:47:57 GMT 53.59268 7.96901 40,000 243 463 0
2017-02-07 13:47:55 GMT 53.59410 7.97356 40,000 243 463 0
2017-02-07 13:47:52 GMT 53.59648 7.98110 40,000 243 463 0
2017-02-07 13:47:50 GMT 53.59836 7.98714 40,000 243 463 0
2017-02-07 13:47:48 GMT 53.60033 7.99342 40,000 243 463 0
2017-02-07 13:47:48 GMT 53.60090 7.99522 40,000 243 463 0
2017-02-07 13:47:46 GMT 53.60309 8.00217 40,000 242 463 0
2017-02-07 13:47:44 GMT 53.60445 8.00660 40,000 243 463 -64
2017-02-07 13:47:42 GMT 53.60742 8.01606 40,000 243 462 0
2017-02-07 13:47:40 GMT 53.60881 8.02050 40,000 243 463 0
2017-02-07 13:47:38 GMT 53.61109 8.02786 40,000 243 462 0
2017-02-07 13:47:38 GMT 53.61109 8.02786 40,000 243 462 0
2017-02-07 13:47:38 GMT 53.61109 8.02786 40,000 243 463 0
2017-02-07 13:47:37 GMT 53.61109 8.02786 40,000 243 463 0
2017-02-07 13:47:35 GMT 53.61424 8.03783 40,000 243 462 0
2017-02-07 13:47:35 GMT 53.61468 8.03925 40,000 243 462 0
2017-02-07 13:47:32 GMT 53.61668 8.04563 40,000 243 462 0
2017-02-07 13:47:30 GMT 53.61827 8.05070 40,000 243 462 0
2017-02-07 13:47:30 GMT 53.61827 8.05070 40,000 243 462 0
2017-02-07 13:47:28 GMT 53.62038 8.05737 40,000 243 462 0
2017-02-07 13:47:26 GMT 53.62189 8.06224 40,000 243 462 0
2017-02-07 13:47:24 GMT 53.62515 8.07261 40,000 243 462 0
2017-02-07 13:47:22 GMT 53.62725 8.07923 40,000 243 462 0
2017-02-07 13:47:20 GMT 53.62878 8.08416 40,000 243 462 0
2017-02-07 13:47:18 GMT 53.63074 8.09038 40,000 243 462 0
2017-02-07 13:47:18 GMT 53.63074 8.09038 40,000 243 462 0
2017-02-07 13:47:15 GMT 53.63344 8.09910 40,000 243 462 0
2017-02-07 13:47:13 GMT 53.63557 8.10579 40,000 243 462 0
2017-02-07 13:47:11 GMT 53.63795 8.11348 40,000 243 462 0
2017-02-07 13:47:09 GMT 53.63949 8.11833 40,000 243 462 0
2017-02-07 13:47:07 GMT 53.64098 8.12310 40,000 243 462 0
2017-02-07 13:47:05 GMT 53.64400 8.13279 40,000 243 456 0
2017-02-07 13:47:05 GMT 53.64340 8.13093 40,000 243 461 0
2017-02-07 13:47:03 GMT 53.64446 8.13420 40,000 242 461 0
2017-02-07 13:47:01 GMT 53.64803 8.14558 40,000 243 461 64
2017-02-07 13:46:59 GMT 53.64941 8.15000 40,000 243 461 64
2017-02-07 13:46:57 GMT 53.65136 8.15630 40,000 243 461 0
2017-02-07 13:46:55 GMT 53.65389 8.16441 40,000 243 460 0
2017-02-07 13:46:53 GMT 53.65549 8.16943 40,000 243 460 0
2017-02-07 13:46:51 GMT 53.65690 8.17407 40,000 243 460 0
2017-02-07 13:46:49 GMT 53.66044 8.18530 40,000 243 460 0
2017-02-07 13:46:46 GMT 53.66180 8.18968 40,000 243 460 0
2017-02-07 13:46:44 GMT 53.66477 8.19919 40,000 242 460 0
2017-02-07 13:46:42 GMT 53.66668 8.20533 40,000 243 460 64
2017-02-07 13:46:40 GMT 53.66817 8.21008 40,000 243 460 64
2017-02-07 13:46:38 GMT 53.67023 8.21668 40,000 243 460 64
2017-02-07 13:46:36 GMT 53.67231 8.22327 40,000 243 460 64
2017-02-07 13:46:34 GMT 53.67496 8.23191 40,000 243 459 0
2017-02-07 13:46:32 GMT 53.67618 8.23582 40,000 243 459 0
2017-02-07 13:46:29 GMT 53.67966 8.24697 40,000 243 459 0
2017-02-07 13:46:29 GMT 53.67966 8.24697 40,000 243 459 0
2017-02-07 13:46:27 GMT 53.68131 8.25222 40,000 243 459 0
2017-02-07 13:46:25 GMT 53.68274 8.25679 40,000 243 459 0
2017-02-07 13:46:23 GMT 53.68533 8.26517 40,000 243 459 0
2017-02-07 13:46:21 GMT 53.68776 8.27294 40,000 243 459 64
2017-02-07 13:46:19 GMT 53.68884 8.27642 40,000 243 459 64
2017-02-07 13:46:17 GMT 53.69110 8.28369 40,000 243 459 0
2017-02-07 13:46:15 GMT 53.69302 8.28989 40,000 243 459 0
2017-02-07 13:46:13 GMT 53.69600 8.29952 40,000 243 458 0
2017-02-07 13:46:13 GMT 53.69545 8.29766 40,000 243 459 0
2017-02-07 13:46:11 GMT 53.69801 8.30599 40,000 243 458 64
2017-02-07 13:46:08 GMT 53.70043 8.31382 40,000 243 458 64
2017-02-07 13:46:08 GMT 53.70043 8.31382 40,000 243 458 64
2017-02-07 13:46:06 GMT 53.70300 8.32199 40,000 243 458 0
2017-02-07 13:46:04 GMT 53.70341 8.32324 40,000 243 458 -64
2017-02-07 13:46:02 GMT 53.70657 8.33345 40,000 243 458 -64
2017-02-07 13:46:02 GMT 53.70606 8.33184 40,000 243 458 -64
2017-02-07 13:46:00 GMT 53.70806 8.33830 40,000 243 458 0
2017-02-07 13:45:57 GMT 53.71092 8.34749 40,000 243 458 0
2017-02-07 13:45:54 GMT 53.71335 8.35534 40,000 243 458 64
2017-02-07 13:45:51 GMT 53.71674 8.36625 40,000 243 458 0
2017-02-07 13:45:49 GMT 53.71939 8.37480 40,000 243 458 0
2017-02-07 13:45:47 GMT 53.72086 8.37951 40,000 243 457 0
2017-02-07 13:45:44 GMT 53.72366 8.38855 40,000 243 457 0
2017-02-07 13:45:41 GMT 53.72694 8.39921 40,000 243 456 0
2017-02-07 13:45:39 GMT 53.72850 8.40423 40,000 243 456 -64
2017-02-07 13:45:37 GMT 53.73106 8.41247 40,000 243 456 0
2017-02-07 13:45:37 GMT 53.73056 8.41082 40,000 243 456 0
2017-02-07 13:45:35 GMT 53.73253 8.41725 40,000 243 456 0
2017-02-07 13:45:32 GMT 53.73624 8.42926 40,000 243 456 -64
2017-02-07 13:45:30 GMT 53.73758 8.43362 40,000 243 456 -64
2017-02-07 13:45:29 GMT 53.73758 8.43362 40,000 243 456 -64
2017-02-07 13:45:27 GMT 53.73953 8.43984 40,000 243 456 0
2017-02-07 13:45:27 GMT 53.73953 8.43984 40,000 243 456 0
2017-02-07 13:45:25 GMT 53.74149 8.44631 40,000 243 456 0
2017-02-07 13:45:23 GMT 53.74397 8.45429 40,000 243 456 64
2017-02-07 13:45:21 GMT 53.74599 8.46088 40,000 242 456 0
2017-02-07 13:45:19 GMT 53.74805 8.46740 40,000 243 456 0
2017-02-07 13:45:19 GMT 53.74805 8.46740 40,000 243 456 0
2017-02-07 13:45:16 GMT 53.75112 8.47749 40,000 243 456 0
2017-02-07 13:45:14 GMT 53.75221 8.48097 40,000 243 456 0
2017-02-07 13:45:12 GMT 53.75418 8.48741 40,000 243 455 0
2017-02-07 13:45:12 GMT 53.75475 8.48920 40,000 243 455 0
2017-02-07 13:45:10 GMT 53.75771 8.49887 40,000 243 455 -64
2017-02-07 13:45:08 GMT 53.75825 8.50051 40,000 243 455 0
2017-02-07 13:45:08 GMT 53.75825 8.50051 40,000 243 455 0
2017-02-07 13:45:06 GMT 53.76146 8.51095 40,000 243 455 64
2017-02-07 13:45:04 GMT 53.76285 8.51545 40,000 243 455 64
2017-02-07 13:45:01 GMT 53.76625 8.52652 40,000 243 455 64
2017-02-07 13:44:59 GMT 53.76714 8.52943 40,000 243 455 64
2017-02-07 13:44:57 GMT 53.76900 8.53541 40,000 243 455 0
2017-02-07 13:44:55 GMT 53.77109 8.54219 40,000 243 455 -64
2017-02-07 13:44:55 GMT 53.77109 8.54219 40,000 243 455 -64
2017-02-07 13:44:55 GMT 53.77109 8.54219 40,000 243 455 -64
2017-02-07 13:44:52 GMT 53.77403 8.55172 40,000 243 455 -64
2017-02-07 13:44:50 GMT 53.77631 8.55924 40,000 243 455 64
2017-02-07 13:44:47 GMT 53.77882 8.56732 40,000 243 455 64
2017-02-07 13:44:45 GMT 53.78128 8.57538 40,000 243 455 64
2017-02-07 13:44:45 GMT 53.78128 8.57538 40,000 243 455 64
2017-02-07 13:44:43 GMT 53.78222 8.57838 40,000 243 455 64
2017-02-07 13:44:41 GMT 53.78459 8.58606 40,000 243 454 0
2017-02-07 13:44:39 GMT 53.78664 8.59272 40,000 243 454 0
2017-02-07 13:44:39 GMT 53.78566 8.58961 40,000 242 454 0
2017-02-07 13:44:37 GMT 53.78850 8.59882 40,000 243 454 0
2017-02-07 13:44:35 GMT 53.79041 8.60496 40,000 243 454 0
2017-02-07 13:44:33 GMT 53.79186 8.60965 40,000 243 454 64
2017-02-07 13:44:29 GMT 53.79623 8.62394 40,000 243 453 0
2017-02-07 13:44:29 GMT 53.79623 8.62394 40,000 243 453 0
2017-02-07 13:44:27 GMT 53.79868 8.63188 40,000 243 453 0
2017-02-07 13:44:25 GMT 53.80037 8.63737 40,000 243 453 0
2017-02-07 13:44:23 GMT 53.80154 8.64131 40,000 243 453 0
2017-02-07 13:44:23 GMT 53.80154 8.64131 40,000 243 453 0
2017-02-07 13:44:23 GMT 53.80154 8.64131 40,000 243 453 0
2017-02-07 13:44:20 GMT 53.80449 8.65087 40,000 243 453 64
2017-02-07 13:44:18 GMT 53.80745 8.66054 40,000 243 453 64
2017-02-07 13:44:16 GMT 53.80889 8.66522 40,000 243 454 0
2017-02-07 13:44:14 GMT 53.81131 8.67322 40,000 243 454 0
2017-02-07 13:44:14 GMT 53.81131 8.67322 40,000 243 454 0
2017-02-07 13:44:12 GMT 53.81285 8.67823 40,000 243 453 0
2017-02-07 13:44:09 GMT 53.81662 8.69059 40,000 243 453 0
2017-02-07 13:44:06 GMT 53.81840 8.69646 40,000 243 454 0
2017-02-07 13:44:04 GMT 53.82037 8.70282 40,000 243 453 64
2017-02-07 13:44:03 GMT 53.82143 8.70635 40,000 243 453 64
2017-02-07 13:44:03 GMT 53.82143 8.70635 40,000 243 453 64
2017-02-07 13:44:02 GMT 53.82235 8.70933 40,000 243 453 64
2017-02-07 13:43:59 GMT 53.82578 8.72055 40,000 242 454 0
2017-02-07 13:43:56 GMT 53.82774 8.72707 40,000 243 454 0
2017-02-07 13:43:54 GMT 53.82971 8.73358 40,000 243 453 -64
2017-02-07 13:43:52 GMT 53.83222 8.74172 40,000 243 453 0
2017-02-07 13:43:49 GMT 53.83548 8.75249 40,000 243 453 0
2017-02-07 13:43:47 GMT 53.83645 8.75554 40,000 243 453 0
2017-02-07 13:43:45 GMT 53.83928 8.76481 40,000 243 453 0
2017-02-07 13:43:43 GMT 53.84074 8.76976 40,000 243 453 64
2017-02-07 13:43:41 GMT 53.84176 8.77299 40,000 243 453 0
2017-02-07 13:43:39 GMT 53.84432 8.78147 40,000 243 453 0
2017-02-07 13:43:36 GMT 53.84744 8.79165 40,000 243 453 0
2017-02-07 13:43:34 GMT 53.84885 8.79636 40,000 243 453 0
2017-02-07 13:43:34 GMT 53.84885 8.79636 40,000 243 453 0
2017-02-07 13:43:32 GMT 53.85163 8.80554 40,000 243 453 0
2017-02-07 13:43:28 GMT 53.85517 8.81718 40,000 243 453 64
2017-02-07 13:43:24 GMT 53.85983 8.83238 40,000 243 453 -64
2017-02-07 13:43:22 GMT 53.86066 8.83519 40,000 243 453 0
2017-02-07 13:43:22 GMT 53.86066 8.83519 40,000 243 453 0
2017-02-07 13:43:20 GMT 53.86350 8.84456 40,000 243 453 0
2017-02-07 13:43:17 GMT 53.86601 8.85278 40,000 243 453 0
2017-02-07 13:43:15 GMT 53.86789 8.85898 40,000 243 453 0
2017-02-07 13:43:15 GMT 53.86739 8.85734 40,000 243 453 0
2017-02-07 13:43:13 GMT 53.86945 8.86416 40,000 243 453 0
2017-02-07 13:43:11 GMT 53.87187 8.87217 40,000 243 453 0
2017-02-07 13:43:09 GMT 53.87398 8.87899 40,000 243 453 0
2017-02-07 13:43:07 GMT 53.87495 8.88220 40,000 243 453 0
2017-02-07 13:43:04 GMT 53.87750 8.89069 40,000 243 453 0
2017-02-07 13:43:02 GMT 53.87984 8.89844 40,000 243 453 64
2017-02-07 13:43:00 GMT 53.88193 8.90523 40,000 243 453 64
2017-02-07 13:42:56 GMT 53.88551 8.91705 40,000 243 453 0
2017-02-07 13:42:55 GMT 53.88594 8.91839 40,000 243 453 0
2017-02-07 13:42:53 GMT 53.88840 8.92655 40,000 243 453 0
2017-02-07 13:42:51 GMT 53.89073 8.93424 40,000 243 453 -64
2017-02-07 13:42:51 GMT 53.89073 8.93424 40,000 243 453 -64
2017-02-07 13:42:49 GMT 53.89208 8.93867 40,000 243 453 0
2017-02-07 13:42:47 GMT 53.89458 8.94695 40,000 242 452 -64
2017-02-07 13:42:46 GMT 53.89553 8.95014 40,000 243 452 0
2017-02-07 13:42:43 GMT 53.89790 8.95790 40,000 243 452 0
2017-02-07 13:42:41 GMT 53.90025 8.96571 40,000 243 452 0
2017-02-07 13:42:39 GMT 53.90218 8.97206 40,000 243 452 0
2017-02-07 13:42:37 GMT 53.90363 8.97688 40,000 243 452 64
2017-02-07 13:42:35 GMT 53.90602 8.98478 40,000 243 452 64
2017-02-07 13:42:32 GMT 53.90836 8.99262 40,000 243 452 0
2017-02-07 13:42:30 GMT 53.91028 8.99890 40,000 243 452 -64
2017-02-07 13:42:28 GMT 53.91211 9.00510 40,000 243 452 -64
2017-02-07 13:42:25 GMT 53.91499 9.01453 40,000 244 452 -64
2017-02-07 13:42:22 GMT 53.91724 9.02205 40,000 244 452 -64
2017-02-07 13:42:20 GMT 53.92025 9.03205 40,000 244 452 0
2017-02-07 13:42:20 GMT 53.92025 9.03205 40,000 244 452 0
2017-02-07 13:42:18 GMT 53.92168 9.03680 40,000 244 452 64
2017-02-07 13:42:16 GMT 53.92411 9.04490 40,000 243 453 64
2017-02-07 13:42:15 GMT 53.92411 9.04490 40,000 243 453 0
2017-02-07 13:42:13 GMT 53.92703 9.05454 40,000 243 453 0
2017-02-07 13:42:11 GMT 53.92788 9.05734 40,000 243 453 -64
2017-02-07 13:42:09 GMT 53.93079 9.06710 40,000 243 453 -64
2017-02-07 13:42:09 GMT 53.93079 9.06710 40,000 243 453 -64
2017-02-07 13:42:07 GMT 53.93280 9.07376 40,000 243 453 0
2017-02-07 13:42:05 GMT 53.93370 9.07681 40,000 243 453 0
2017-02-07 13:42:03 GMT 53.93614 9.08491 40,000 243 453 0
2017-02-07 13:42:01 GMT 53.93802 9.09119 40,000 243 453 0
2017-02-07 13:41:59 GMT 53.93990 9.09739 40,000 243 453 0
2017-02-07 13:41:59 GMT 53.93990 9.09739 40,000 243 453 0
2017-02-07 13:41:57 GMT 53.94255 9.10625 40,000 243 453 0
2017-02-07 13:41:55 GMT 53.94365 9.10986 40,000 243 453 0
2017-02-07 13:41:53 GMT 53.94608 9.11802 40,000 244 454 0
2017-02-07 13:41:51 GMT 53.94745 9.12258 40,000 244 454 0
2017-02-07 13:41:49 GMT 53.94992 9.13074 40,000 244 454 0
2017-02-07 13:41:49 GMT 53.94992 9.13074 40,000 244 454 0
2017-02-07 13:41:47 GMT 53.95129 9.13529 40,000 244 454 0
2017-02-07 13:41:45 GMT 53.95335 9.14219 40,000 243 454 0
2017-02-07 13:41:43 GMT 53.95437 9.14563 40,000 244 454 0
2017-02-07 13:41:41 GMT 53.95725 9.15514 40,000 244 455 0
2017-02-07 13:41:38 GMT 53.95949 9.16260 40,000 244 455 0
2017-02-07 13:41:38 GMT 53.95949 9.16260 40,000 244 455 0
2017-02-07 13:41:36 GMT 53.96228 9.17197 40,000 244 455 0
2017-02-07 13:41:34 GMT 53.96329 9.17531 40,000 243 455 0
2017-02-07 13:41:32 GMT 53.96578 9.18360 40,000 244 455 0
2017-02-07 13:41:30 GMT 53.96722 9.18842 40,000 244 455 0
2017-02-07 13:41:28 GMT 53.96992 9.19749 40,000 244 456 -64
2017-02-07 13:41:28 GMT 53.96992 9.19749 40,000 244 456 -64
2017-02-07 13:41:28 GMT 53.96992 9.19749 40,000 244 456 -64
2017-02-07 13:41:26 GMT 53.97136 9.20218 40,000 244 456 -64
2017-02-07 13:41:24 GMT 53.97322 9.20848 40,000 244 456 0
2017-02-07 13:41:21 GMT 53.97629 9.21863 40,000 244 456 0
2017-02-07 13:41:19 GMT 53.97862 9.22640 40,000 244 456 0
2017-02-07 13:41:19 GMT 53.97718 9.22165 40,000 244 456 0
2017-02-07 13:41:17 GMT 53.97955 9.22957 40,000 244 456 0
2017-02-07 13:41:14 GMT 53.98272 9.24015 40,000 244 457 0
2017-02-07 13:41:14 GMT 53.98272 9.24015 40,000 244 456 0
2017-02-07 13:41:14 GMT 53.98272 9.24015 40,000 243 456 0
2017-02-07 13:41:11 GMT 53.98645 9.25269 40,000 244 456 0
2017-02-07 13:41:11 GMT 53.98645 9.25269 40,000 244 456 0
2017-02-07 13:41:09 GMT 53.98787 9.25739 40,000 244 457 0
2017-02-07 13:41:06 GMT 53.98979 9.26383 40,000 244 457 0
2017-02-07 13:41:06 GMT 53.98979 9.26383 40,000 244 457 0
2017-02-07 13:41:06 GMT 53.99030 9.26548 40,000 244 457 0
2017-02-07 13:41:04 GMT 53.99278 9.27383 40,000 243 457 0
2017-02-07 13:41:03 GMT 53.99426 9.27884 40,000 244 457 0
2017-02-07 13:41:00 GMT 53.99687 9.28765 40,000 244 457 -64
2017-02-07 13:40:57 GMT 53.99985 9.29758 40,000 244 457 0
2017-02-07 13:40:56 GMT 53.99985 9.29758 40,000 244 457 0
2017-02-07 13:40:56 GMT 53.99985 9.29758 40,000 244 457 0
2017-02-07 13:40:56 GMT 53.99985 9.29758 40,000 244 457 0
2017-02-07 13:40:56 GMT 53.99985 9.29758 40,000 244 457 0
2017-02-07 13:40:55 GMT 54.00027 9.29904 40,000 244 457 0
2017-02-07 13:40:53 GMT 54.00218 9.30550 40,000 244 457 0
2017-02-07 13:40:51 GMT 54.00476 9.31413 40,000 244 457 0
2017-02-07 13:40:49 GMT 54.00628 9.31923 40,000 244 457 0
2017-02-07 13:40:49 GMT 54.00628 9.31923 40,000 244 457 0
2017-02-07 13:40:46 GMT 54.00972 9.33079 40,000 244 457 0
2017-02-07 13:40:45 GMT 54.01067 9.33398 40,000 244 457 0
2017-02-07 13:40:45 GMT 54.01014 9.33216 40,000 244 457 0
2017-02-07 13:40:43 GMT 54.01250 9.34018 40,000 243 457 64
2017-02-07 13:40:40 GMT 54.01591 9.35147 40,000 244 457 0
2017-02-07 13:40:38 GMT 54.01634 9.35298 40,000 244 457 0
2017-02-07 13:40:38 GMT 54.01634 9.35298 40,000 244 457 0
2017-02-07 13:40:35 GMT 54.01978 9.36447 40,000 244 457 0
2017-02-07 13:40:35 GMT 54.01978 9.36447 40,000 244 457 0
2017-02-07 13:40:35 GMT 54.01978 9.36447 40,000 244 457 0
2017-02-07 13:40:35 GMT 54.01978 9.36447 40,000 244 457 0
2017-02-07 13:40:33 GMT 54.02145 9.37021 40,000 244 457 0
2017-02-07 13:40:32 GMT 54.02252 9.37377 40,000 243 457 0
2017-02-07 13:40:31 GMT 54.02399 9.37864 40,000 244 457 0
2017-02-07 13:40:29 GMT 54.02541 9.38345 40,000 244 457 0
2017-02-07 13:40:28 GMT 54.02641 9.38688 40,000 244 457 64
2017-02-07 13:40:27 GMT 54.02690 9.38854 40,000 244 457 64
2017-02-07 13:40:24 GMT 54.03067 9.40115 40,000 244 457 0
2017-02-07 13:40:21 GMT 54.03300 9.40906 40,000 244 458 0
2017-02-07 13:40:21 GMT 54.03342 9.41050 40,000 243 457 0
2017-02-07 13:40:19 GMT 54.03444 9.41383 40,000 244 458 0
2017-02-07 13:40:17 GMT 54.03672 9.42158 40,000 244 458 0
2017-02-07 13:40:15 GMT 54.03909 9.42964 40,000 244 458 0
2017-02-07 13:40:13 GMT 54.04156 9.43804 40,000 244 458 0
2017-02-07 13:40:11 GMT 54.04254 9.44130 40,000 244 458 -64
2017-02-07 13:40:08 GMT 54.04509 9.44989 40,000 244 458 0
2017-02-07 13:40:06 GMT 54.04683 9.45585 40,000 244 459 0
2017-02-07 13:40:04 GMT 54.04935 9.46425 40,000 244 459 0
2017-02-07 13:40:02 GMT 54.05222 9.47401 40,000 244 459 0
2017-02-07 13:40:00 GMT 54.05264 9.47547 40,000 244 459 0
2017-02-07 13:39:58 GMT 54.05461 9.48214 40,000 244 459 0
2017-02-07 13:39:55 GMT 54.05748 9.49186 40,000 244 459 64
2017-02-07 13:39:53 GMT 54.05953 9.49873 40,000 244 459 0
2017-02-07 13:39:51 GMT 54.06226 9.50804 40,000 243 459 0
2017-02-07 13:39:49 GMT 54.06395 9.51377 40,000 244 459 0
2017-02-07 13:39:46 GMT 54.06740 9.52547 40,000 244 460 0
2017-02-07 13:39:43 GMT 54.06944 9.53237 40,000 244 460 0
2017-02-07 13:39:41 GMT 54.07229 9.54203 40,000 244 460 0
2017-02-07 13:39:38 GMT 54.07420 9.54849 40,000 244 460 64
2017-02-07 13:39:35 GMT 54.07722 9.55873 40,000 244 460 64
2017-02-07 13:39:33 GMT 54.07965 9.56697 40,000 244 460 0
2017-02-07 13:39:33 GMT 54.07965 9.56697 40,000 244 460 0
2017-02-07 13:39:31 GMT 54.08139 9.57301 40,000 244 460 0
2017-02-07 13:39:29 GMT 54.08281 9.57788 40,000 244 460 0
2017-02-07 13:39:27 GMT 54.08416 9.58250 40,000 244 460 0
2017-02-07 13:39:25 GMT 54.08720 9.59279 40,000 244 460 -64
2017-02-07 13:39:23 GMT 54.08862 9.59766 40,000 244 460 0
2017-02-07 13:39:21 GMT 54.09007 9.60253 40,000 244 460 0
2017-02-07 13:39:19 GMT 54.09224 9.61005 40,000 244 460 0
2017-02-07 13:39:17 GMT 54.09365 9.61481 40,000 244 460 0
2017-02-07 13:39:14 GMT 54.09747 9.62782 40,000 244 459 0
2017-02-07 13:39:14 GMT 54.09747 9.62782 40,000 244 459 0
2017-02-07 13:39:12 GMT 54.09947 9.63461 40,000 244 459 0
2017-02-07 13:39:09 GMT 54.10138 9.64115 40,000 244 458 64
2017-02-07 13:39:09 GMT 54.10138 9.64115 40,000 244 458 0
2017-02-07 13:39:09 GMT 54.10138 9.64115 40,000 244 458 64
2017-02-07 13:39:07 GMT 54.10359 9.64859 40,000 244 458 64
2017-02-07 13:39:05 GMT 54.10538 9.65464 40,000 244 458 0
2017-02-07 13:39:01 GMT 54.10874 9.66603 40,000 244 458 0
2017-02-07 13:38:59 GMT 54.11106 9.67395 40,000 244 458 0
2017-02-07 13:38:57 GMT 54.11307 9.68073 40,000 244 458 0
2017-02-07 13:38:55 GMT 54.11451 9.68574 40,000 244 458 0
2017-02-07 13:38:52 GMT 54.11861 9.69947 40,000 244 458 64
2017-02-07 13:38:52 GMT 54.11861 9.69947 40,000 244 458 64
2017-02-07 13:38:50 GMT 54.12009 9.70464 40,000 243 457 0
2017-02-07 13:38:48 GMT 54.12210 9.71143 40,000 244 457 0
2017-02-07 13:38:46 GMT 54.12443 9.71935 40,000 244 457 0
2017-02-07 13:38:44 GMT 54.12540 9.72266 40,000 244 457 0
2017-02-07 13:38:41 GMT 54.12796 9.73154 40,000 244 457 -64
2017-02-07 13:38:41 GMT 54.12796 9.73154 40,000 244 457 0
2017-02-07 13:38:41 GMT 54.12796 9.73154 40,000 244 457 0
2017-02-07 13:38:39 GMT 54.13042 9.73977 40,000 244 457 0
2017-02-07 13:38:38 GMT 54.13042 9.73977 40,000 244 457 0
2017-02-07 13:38:36 GMT 54.13280 9.74801 40,000 244 457 0
2017-02-07 13:38:36 GMT 54.13280 9.74801 40,000 244 457 0
2017-02-07 13:38:34 GMT 54.13560 9.75756 40,000 244 457 64
2017-02-07 13:38:30 GMT 54.13890 9.76886 40,000 244 457 0
2017-02-07 13:38:30 GMT 54.13838 9.76708 40,000 244 457 0
2017-02-07 13:38:28 GMT 54.14030 9.77367 40,000 244 457 0
2017-02-07 13:38:28 GMT 54.14030 9.77367 40,000 244 457 0
2017-02-07 13:38:26 GMT 54.14309 9.78316 40,000 244 457 0
2017-02-07 13:38:24 GMT 54.14495 9.78955 40,000 244 457 0
2017-02-07 13:38:22 GMT 54.14543 9.79109 40,000 244 457 0
2017-02-07 13:38:20 GMT 54.14735 9.79776 40,000 244 457 0
2017-02-07 13:38:20 GMT 54.14735 9.79776 40,000 244 457 0
2017-02-07 13:38:18 GMT 54.15026 9.80756 40,000 244 457 0
2017-02-07 13:38:18 GMT 54.15026 9.80756 40,000 244 457 0
2017-02-07 13:38:16 GMT 54.15203 9.81370 40,000 244 457 0
2017-02-07 13:38:14 GMT 54.15358 9.81895 40,000 244 457 0
2017-02-07 13:38:12 GMT 54.15486 9.82335 40,000 244 456 0
2017-02-07 13:38:10 GMT 54.15724 9.83151 40,000 244 456 0
2017-02-07 13:38:10 GMT 54.15724 9.83151 40,000 244 456 0
2017-02-07 13:38:08 GMT 54.15948 9.83923 40,000 244 456 0
2017-02-07 13:38:08 GMT 54.15948 9.83923 40,000 244 456 0
2017-02-07 13:38:06 GMT 54.16134 9.84553 40,000 244 457 0
2017-02-07 13:38:04 GMT 54.16237 9.84909 40,000 244 457 0
2017-02-07 13:38:02 GMT 54.16530 9.85910 40,000 244 456 0
2017-02-07 13:38:00 GMT 54.16735 9.86621 40,000 244 456 0
2017-02-07 13:37:58 GMT 54.16935 9.87316 40,000 244 456 0
2017-02-07 13:37:56 GMT 54.17056 9.87735 40,000 244 456 0
2017-02-07 13:37:54 GMT 54.17226 9.88314 40,000 244 456 0
2017-02-07 13:37:52 GMT 54.17422 9.88989 40,000 244 456 0
2017-02-07 13:37:50 GMT 54.17666 9.89828 40,000 244 456 0
2017-02-07 13:37:50 GMT 54.17666 9.89828 40,000 244 456 0
2017-02-07 13:37:46 GMT 54.17996 9.90967 40,000 244 456 0
2017-02-07 13:37:46 GMT 54.17996 9.90967 40,000 244 456 0
2017-02-07 13:37:45 GMT 54.18100 9.91312 40,000 244 456 0
2017-02-07 13:37:44 GMT 54.18266 9.91888 40,000 244 456 0
2017-02-07 13:37:42 GMT 54.18452 9.92526 40,000 244 456 0
2017-02-07 13:37:39 GMT 54.18629 9.93140 40,000 244 456 0
2017-02-07 13:37:39 GMT 54.18629 9.93140 40,000 244 456 0
2017-02-07 13:37:38 GMT 54.18677 9.93313 40,000 244 456 0
2017-02-07 13:37:37 GMT 54.18825 9.93810 40,000 244 456 0
2017-02-07 13:37:35 GMT 54.19020 9.94489 40,000 244 456 64
2017-02-07 13:37:33 GMT 54.19206 9.95127 40,000 244 456 64
2017-02-07 13:37:31 GMT 54.19351 9.95628 40,000 244 456 64
2017-02-07 13:37:29 GMT 54.19592 9.96460 40,000 244 456 0
2017-02-07 13:37:29 GMT 54.19592 9.96460 40,000 244 456 0
2017-02-07 13:37:27 GMT 54.19835 9.97292 40,000 244 456 0
2017-02-07 13:37:25 GMT 54.19977 9.97794 40,000 244 456 0
2017-02-07 13:37:23 GMT 54.20151 9.98390 40,000 244 456 0
2017-02-07 13:37:21 GMT 54.20426 9.99675 40,000 244 456 0
2017-02-07 13:37:21 GMT 54.20384 9.99199 40,000 244 456 0
2017-02-07 13:37:17 GMT 54.20705 10.00305 40,000 244 456 0
2017-02-07 13:37:15 GMT 54.20906 10.01004 40,000 244 456 0
2017-02-07 13:37:13 GMT 54.21144 10.01820 40,000 244 456 0
2017-02-07 13:37:10 GMT 54.21362 10.02575 40,000 244 455 64
2017-02-07 13:37:08 GMT 54.21501 10.03060 40,000 244 456 0
2017-02-07 13:37:06 GMT 54.21726 10.03829 40,000 244 455 0
2017-02-07 13:37:04 GMT 54.21930 10.04546 40,000 244 455 0
2017-02-07 13:37:04 GMT 54.21876 10.04370 40,000 244 455 0
2017-02-07 13:37:02 GMT 54.22206 10.05500 40,000 244 455 0
2017-02-07 13:36:59 GMT 54.22385 10.06120 40,000 244 455 0
2017-02-07 13:36:59 GMT 54.22385 10.06120 40,000 244 455 64
2017-02-07 13:36:57 GMT 54.22636 10.06991 40,000 244 455 0
2017-02-07 13:36:54 GMT 54.22875 10.07818 40,000 244 455 0
2017-02-07 13:36:54 GMT 54.22875 10.07818 40,000 244 455 0
2017-02-07 13:36:51 GMT 54.23117 10.08658 40,000 244 455 -64
2017-02-07 13:36:49 GMT 54.23351 10.09463 40,000 244 455 -64
2017-02-07 13:36:47 GMT 54.23452 10.09821 40,000 244 455 -64
2017-02-07 13:36:47 GMT 54.23452 10.09821 40,000 244 455 -64
2017-02-07 13:36:45 GMT 54.23740 10.10813 40,000 244 455 0
2017-02-07 13:36:45 GMT 54.23740 10.10813 40,000 244 455 0
2017-02-07 13:36:43 GMT 54.23839 10.11162 40,000 244 455 0
2017-02-07 13:36:41 GMT 54.24142 10.12218 40,000 244 456 64
2017-02-07 13:36:39 GMT 54.24188 10.12374 40,000 244 456 64
2017-02-07 13:36:37 GMT 54.24426 10.13198 40,000 244 456 64
2017-02-07 13:36:37 GMT 54.24426 10.13198 40,000 244 456 64
2017-02-07 13:36:35 GMT 54.24614 10.13858 40,000 244 456 64
2017-02-07 13:36:33 GMT 54.24861 10.14721 40,000 244 456 64
2017-02-07 13:36:33 GMT 54.24861 10.14721 40,000 244 456 64
2017-02-07 13:36:30 GMT 54.25156 10.15743 40,000 244 456 0
2017-02-07 13:36:30 GMT 54.25156 10.15743 40,000 244 456 0
2017-02-07 13:36:27 GMT 54.25337 10.16373 40,000 244 456 -64
2017-02-07 13:36:25 GMT 54.25603 10.17303 40,000 244 456 -64
2017-02-07 13:36:23 GMT 54.25840 10.18134 40,000 244 456 0
2017-02-07 13:36:21 GMT 54.25891 10.18311 40,000 244 456 0
2017-02-07 13:36:21 GMT 54.25891 10.18311 40,000 244 456 0
2017-02-07 13:36:21 GMT 54.25891 10.18311 40,000 244 456 0
2017-02-07 13:36:18 GMT 54.26255 10.19572 40,000 244 456 0
2017-02-07 13:36:18 GMT 54.26175 10.19296 40,000 244 456 0
2017-02-07 13:36:17 GMT 54.26213 10.19434 40,000 244 456 0
2017-02-07 13:36:15 GMT 54.26445 10.20234 40,000 244 457 0
2017-02-07 13:36:13 GMT 54.26632 10.20888 40,000 244 456 64
2017-02-07 13:36:11 GMT 54.26823 10.21551 40,000 244 457 0
2017-02-07 13:36:11 GMT 54.26823 10.21551 40,000 244 457 0
2017-02-07 13:36:08 GMT 54.27139 10.22666 40,000 245 457 -64
2017-02-07 13:36:07 GMT 54.27186 10.22819 40,000 245 457 -64
2017-02-07 13:36:07 GMT 54.27139 10.22666 40,000 245 457 -64
2017-02-07 13:36:05 GMT 54.27420 10.23643 40,000 245 457 -64
2017-02-07 13:36:03 GMT 54.27603 10.24279 40,000 245 457 0
2017-02-07 13:36:01 GMT 54.27782 10.24915 40,000 245 457 0
2017-02-07 13:36:01 GMT 54.27782 10.24915 40,000 245 457 0
2017-02-07 13:36:01 GMT 54.27782 10.24915 40,000 245 457 0
2017-02-07 13:36:01 GMT 54.27782 10.24915 40,000 245 457 0
2017-02-07 13:35:56 GMT 54.28298 10.26722 40,000 245 457 0
2017-02-07 13:35:54 GMT 54.28390 10.27052 40,000 245 457 0
2017-02-07 13:35:52 GMT 54.28693 10.28110 40,000 244 457 64
2017-02-07 13:35:50 GMT 54.28810 10.28512 40,000 244 457 64
2017-02-07 13:35:50 GMT 54.28810 10.28512 40,000 244 457 64
2017-02-07 13:35:49 GMT 54.28810 10.28512 40,000 244 457 64
2017-02-07 13:35:49 GMT 54.28810 10.28512 40,000 244 457 64
2017-02-07 13:35:48 GMT 54.28935 10.28959 40,000 244 457 64
2017-02-07 13:35:46 GMT 54.29178 10.29810 40,000 244 457 0
2017-02-07 13:35:43 GMT 54.29471 10.30833 40,000 244 457 64
2017-02-07 13:35:41 GMT 54.29569 10.31167 40,000 244 457 64
2017-02-07 13:35:39 GMT 54.29802 10.31991 40,000 244 458 0
2017-02-07 13:35:39 GMT 54.29802 10.31991 40,000 244 458 0
2017-02-07 13:35:39 GMT 54.29802 10.31991 40,000 245 457 0
2017-02-07 13:35:37 GMT 54.29997 10.32675 40,000 244 458 0
2017-02-07 13:35:35 GMT 54.30132 10.33131 40,000 244 458 0
2017-02-07 13:35:35 GMT 54.30132 10.33131 40,000 244 458 0
2017-02-07 13:35:33 GMT 54.30437 10.34201 40,000 245 457 0
2017-02-07 13:35:32 GMT 54.30477 10.34346 40,000 245 457 0
2017-02-07 13:35:31 GMT 54.30477 10.34346 40,000 245 457 0
2017-02-07 13:35:29 GMT 54.30812 10.35526 40,000 245 457 0
2017-02-07 13:35:27 GMT 54.30868 10.35711 40,000 245 457 64
2017-02-07 13:35:25 GMT 54.31142 10.36689 40,000 245 457 0
2017-02-07 13:35:21 GMT 54.31422 10.37667 40,000 245 457 64
2017-02-07 13:35:21 GMT 54.31422 10.37667 40,000 245 457 64
2017-02-07 13:35:21 GMT 54.31422 10.37667 40,000 245 457 64
2017-02-07 13:35:19 GMT 54.31622 10.38374 40,000 245 457 0
2017-02-07 13:35:18 GMT 54.31766 10.38874 40,000 245 457 0
2017-02-07 13:35:17 GMT 54.31860 10.39210 40,000 245 457 0
2017-02-07 13:35:15 GMT 54.32080 10.39985 40,000 245 457 0
2017-02-07 13:35:15 GMT 54.32080 10.39985 40,000 245 457 0
2017-02-07 13:35:12 GMT 54.32353 10.40946 40,000 245 457 0
2017-02-07 13:35:10 GMT 54.32442 10.41262 40,000 245 457 0
2017-02-07 13:35:07 GMT 54.32831 10.42619 40,000 245 457 64
2017-02-07 13:35:07 GMT 54.32739 10.42295 40,000 245 457 64
2017-02-07 13:35:07 GMT 54.32790 10.42481 40,000 245 457 0
2017-02-07 13:35:07 GMT 54.32790 10.42481 40,000 245 457 64
2017-02-07 13:35:04 GMT 54.33151 10.43750 40,000 245 457 0
2017-02-07 13:35:02 GMT 54.33317 10.44342 40,000 245 457 0
2017-02-07 13:35:00 GMT 54.33503 10.45000 40,000 245 457 -64
2017-02-07 13:34:56 GMT 54.33791 10.46015 40,000 245 457 0
2017-02-07 13:34:53 GMT 54.34067 10.46989 40,000 245 456 0
2017-02-07 13:34:51 GMT 54.34291 10.47781 40,000 245 456 0
2017-02-07 13:34:50 GMT 54.34420 10.48237 40,000 245 456 0
2017-02-07 13:34:47 GMT 54.34630 10.48992 40,000 245 456 0
2017-02-07 13:34:45 GMT 54.34827 10.49679 40,000 245 456 0
2017-02-07 13:34:45 GMT 54.34868 10.49832 40,000 245 456 0
2017-02-07 13:34:44 GMT 54.34960 10.50151 40,000 245 456 0
2017-02-07 13:34:42 GMT 54.35146 10.50809 40,000 245 456 0
2017-02-07 13:34:41 GMT 54.35243 10.51149 40,000 245 456 0
2017-02-07 13:34:41 GMT 54.35095 10.50626 40,000 245 456 0
2017-02-07 13:34:39 GMT 54.35435 10.51828 40,000 245 456 0
2017-02-07 13:34:37 GMT 54.35577 10.52329 40,000 245 456 -64
2017-02-07 13:34:35 GMT 54.35779 10.53040 40,000 245 456 -64
2017-02-07 13:34:33 GMT 54.35872 10.53364 40,000 245 456 0
2017-02-07 13:34:33 GMT 54.35925 10.53557 40,000 245 456 -64
2017-02-07 13:34:31 GMT 54.36072 10.54080 40,000 245 456 0
2017-02-07 13:34:28 GMT 54.36305 10.54906 40,000 245 456 0
2017-02-07 13:34:26 GMT 54.36594 10.55919 40,000 245 456 0
2017-02-07 13:34:24 GMT 54.36738 10.56435 40,000 245 456 0
2017-02-07 13:34:22 GMT 54.36980 10.57284 40,000 245 456 0
2017-02-07 13:34:20 GMT 54.37162 10.57942 40,000 245 456 0
2017-02-07 13:34:20 GMT 54.37070 10.57612 40,000 245 456 0
2017-02-07 13:34:20 GMT 54.37029 10.57458 40,000 245 456 0
2017-02-07 13:34:18 GMT 54.37339 10.58566 40,000 245 456 64
2017-02-07 13:34:16 GMT 54.37469 10.59024 40,000 245 456 64
2017-02-07 13:34:15 GMT 54.37559 10.59341 40,000 245 456 64
2017-02-07 13:34:13 GMT 54.37756 10.60043 40,000 245 456 64
2017-02-07 13:34:11 GMT 54.38037 10.61030 40,000 245 456 0
2017-02-07 13:34:09 GMT 54.38113 10.61312 40,000 245 456 0
2017-02-07 13:34:06 GMT 54.38391 10.62286 40,000 245 457 0
2017-02-07 13:34:02 GMT 54.38768 10.63618 40,000 245 457 0
2017-02-07 13:34:00 GMT 54.38996 10.64425 40,000 245 457 0
2017-02-07 13:33:58 GMT 54.39088 10.64761 40,000 245 457 0
2017-02-07 13:33:56 GMT 54.39354 10.65707 40,000 245 457 0
2017-02-07 13:33:54 GMT 54.39409 10.65892 40,000 245 457 0
2017-02-07 13:33:52 GMT 54.39727 10.67014 40,000 245 457 0
2017-02-07 13:33:52 GMT 54.39727 10.67014 40,000 245 457 64
2017-02-07 13:33:51 GMT 54.39727 10.67014 40,000 245 457 64
2017-02-07 13:33:51 GMT 54.39727 10.67014 40,000 245 457 64
2017-02-07 13:33:49 GMT 54.39999 10.67984 40,000 245 457 0
2017-02-07 13:33:47 GMT 54.40141 10.68493 40,000 245 457 0
2017-02-07 13:33:44 GMT 54.40334 10.69172 40,000 245 457 0
2017-02-07 13:33:44 GMT 54.40334 10.69172 40,000 245 457 0
2017-02-07 13:33:42 GMT 54.40535 10.69891 40,000 245 457 0
2017-02-07 13:33:40 GMT 54.40774 10.70751 40,000 245 457 0
2017-02-07 13:33:38 GMT 54.40929 10.71288 40,000 245 457 0
2017-02-07 13:33:35 GMT 54.41207 10.72291 40,000 245 457 0
2017-02-07 13:33:33 GMT 54.41398 10.72965 40,000 245 457 64
2017-02-07 13:33:32 GMT 54.41496 10.73323 40,000 245 457 0
2017-02-07 13:33:30 GMT 54.41675 10.73954 40,000 245 457 -64
2017-02-07 13:33:30 GMT 54.41675 10.73954 40,000 245 457 -64
2017-02-07 13:33:28 GMT 54.41952 10.74937 40,000 245 457 -64
2017-02-07 13:33:25 GMT 54.42215 10.75877 40,000 245 457 0
2017-02-07 13:33:23 GMT 54.42389 10.76499 40,000 245 456 0
2017-02-07 13:33:21 GMT 54.42540 10.77040 40,000 245 457 0
2017-02-07 13:33:19 GMT 54.42678 10.77534 40,000 245 456 0
2017-02-07 13:33:19 GMT 54.42678 10.77534 40,000 245 456 0
2017-02-07 13:33:17 GMT 54.42860 10.78183 40,000 245 456 0
2017-02-07 13:33:15 GMT 54.43057 10.78890 40,000 245 456 0
2017-02-07 13:33:12 GMT 54.43376 10.80039 40,000 245 456 0
2017-02-07 13:33:10 GMT 54.43521 10.80555 40,000 245 456 -64
2017-02-07 13:33:10 GMT 54.43521 10.80555 40,000 245 456 -64
2017-02-07 13:33:08 GMT 54.43753 10.81379 40,000 245 456 -64
2017-02-07 13:33:07 GMT 54.43799 10.81531 40,000 245 456 0
2017-02-07 13:33:06 GMT 54.43875 10.81820 40,000 245 456 -64
2017-02-07 13:33:04 GMT 54.44061 10.82470 40,000 245 456 -64
2017-02-07 13:33:00 GMT 54.44417 10.83753 40,000 245 456 0
2017-02-07 13:33:00 GMT 54.44417 10.83753 40,000 245 456 0
2017-02-07 13:32:58 GMT 54.44615 10.84459 40,000 245 456 0
2017-02-07 13:32:58 GMT 54.44572 10.84318 40,000 245 456 0
2017-02-07 13:32:56 GMT 54.44801 10.85125 40,000 245 456 0
2017-02-07 13:32:56 GMT 54.44801 10.85125 40,000 245 457 -64
2017-02-07 13:32:54 GMT 54.44929 10.85595 40,000 245 457 0
2017-02-07 13:32:51 GMT 54.45234 10.86681 40,000 245 457 -64
2017-02-07 13:32:49 GMT 54.45411 10.87322 40,000 245 457 0
2017-02-07 13:32:49 GMT 54.45411 10.87322 40,000 245 457 0
2017-02-07 13:32:47 GMT 54.45616 10.88050 40,000 245 458 0
2017-02-07 13:32:44 GMT 54.45836 10.88850 40,000 245 458 0
2017-02-07 13:32:44 GMT 54.45836 10.88850 40,000 245 458 0
2017-02-07 13:32:41 GMT 54.46188 10.90110 40,000 245 459 0
2017-02-07 13:32:39 GMT 54.46399 10.90870 40,000 245 459 0
2017-02-07 13:32:37 GMT 54.46491 10.91209 40,000 245 459 0
2017-02-07 13:32:35 GMT 54.46774 10.92235 40,000 245 460 0
2017-02-07 13:32:35 GMT 54.46724 10.92041 40,000 245 460 0
2017-02-07 13:32:33 GMT 54.46854 10.92524 40,000 245 460 0
2017-02-07 13:32:28 GMT 54.47292 10.94093 40,000 245 460 0
2017-02-07 13:32:28 GMT 54.47292 10.94093 40,000 245 460 0
2017-02-07 13:32:28 GMT 54.47292 10.94093 40,000 245 461 0
2017-02-07 13:32:26 GMT 54.47534 10.94979 40,000 245 461 0
2017-02-07 13:32:24 GMT 54.47780 10.95870 40,000 245 461 0
2017-02-07 13:32:22 GMT 54.47873 10.96209 40,000 245 461 0
2017-02-07 13:32:19 GMT 54.48248 10.97558 40,000 245 461 0
2017-02-07 13:32:17 GMT 54.48297 10.97726 40,000 245 461 0
2017-02-07 13:32:15 GMT 54.48492 10.98441 40,000 245 462 0
2017-02-07 13:32:15 GMT 54.48492 10.98441 40,000 245 461 0
2017-02-07 13:32:15 GMT 54.48550 10.98633 40,000 245 461 0
2017-02-07 13:32:13 GMT 54.48734 10.99295 40,000 245 462 0
2017-02-07 13:32:11 GMT 54.48865 10.99773 40,000 245 462 0
2017-02-07 13:32:08 GMT 54.49141 11.00774 40,000 245 462 0
2017-02-07 13:32:08 GMT 54.49141 11.00774 40,000 245 462 0
2017-02-07 13:32:06 GMT 54.49315 11.01396 40,000 245 462 0
2017-02-07 13:32:04 GMT 54.49605 11.02436 40,000 245 462 0
2017-02-07 13:32:01 GMT 54.49791 11.03119 40,000 245 462 0
2017-02-07 13:32:01 GMT 54.49791 11.03119 40,000 245 462 0
2017-02-07 13:31:58 GMT 54.50145 11.04392 40,000 245 462 0
2017-02-07 13:31:56 GMT 54.50382 11.05257 40,000 245 462 0
2017-02-07 13:31:54 GMT 54.50522 11.05749 40,000 245 462 64
2017-02-07 13:31:52 GMT 54.50704 11.06415 40,000 245 462 64
2017-02-07 13:31:50 GMT 54.50789 11.06727 40,000 245 462 0
2017-02-07 13:31:48 GMT 54.50986 11.07422 40,000 245 462 0
2017-02-07 13:31:46 GMT 54.51160 11.08068 40,000 245 462 0
2017-02-07 13:31:44 GMT 54.51480 11.09207 40,000 245 463 0
2017-02-07 13:31:44 GMT 54.51338 11.08714 40,000 245 462 0
2017-02-07 13:31:44 GMT 54.51425 11.09020 40,000 245 462 0
2017-02-07 13:31:42 GMT 54.51654 11.09845 40,000 245 463 0
2017-02-07 13:31:40 GMT 54.51695 11.09999 40,000 245 463 0
2017-02-07 13:31:40 GMT 54.51798 11.10368 40,000 245 463 0
2017-02-07 13:31:40 GMT 54.51695 11.09999 40,000 245 464 0
2017-02-07 13:31:36 GMT 54.52084 11.11404 40,000 245 463 0
2017-02-07 13:31:34 GMT 54.52400 11.12552 40,000 245 463 0
2017-02-07 13:31:32 GMT 54.52441 11.12697 40,000 245 463 0
2017-02-07 13:31:30 GMT 54.52682 11.13564 40,000 245 463 0
2017-02-07 13:31:30 GMT 54.52682 11.13564 40,000 245 463 0
2017-02-07 13:31:26 GMT 54.53101 11.15087 40,000 245 464 0
2017-02-07 13:31:22 GMT 54.53478 11.16461 40,000 245 464 0
2017-02-07 13:31:20 GMT 54.53577 11.16817 40,000 245 465 0
2017-02-07 13:31:19 GMT 54.53665 11.17135 40,000 245 465 0
2017-02-07 13:31:18 GMT 54.53705 11.17285 40,000 245 465 0
2017-02-07 13:31:16 GMT 54.53967 11.18242 40,000 245 465 0
2017-02-07 13:31:16 GMT 54.53967 11.18242 40,000 245 465 0
2017-02-07 13:31:14 GMT 54.54139 11.18874 40,000 245 465 0
2017-02-07 13:31:12 GMT 54.54330 11.19573 40,000 245 465 0
2017-02-07 13:31:09 GMT 54.54577 11.20464 40,000 245 465 -64
2017-02-07 13:31:07 GMT 54.54813 11.21332 40,000 245 465 -64
2017-02-07 13:31:05 GMT 54.54898 11.21637 40,000 245 465 0
2017-02-07 13:31:05 GMT 54.54898 11.21637 40,000 245 465 0
2017-02-07 13:31:05 GMT 54.54898 11.21637 40,000 245 465 0
2017-02-07 13:31:02 GMT 54.55284 11.23036 40,000 245 465 0
2017-02-07 13:31:00 GMT 54.55518 11.23885 40,000 245 465 64
2017-02-07 13:30:57 GMT 54.55638 11.24334 40,000 245 465 64
2017-02-07 13:30:55 GMT 54.55824 11.25008 40,000 245 465 0
2017-02-07 13:30:55 GMT 54.55824 11.25008 40,000 245 465 0
2017-02-07 13:30:54 GMT 54.55948 11.25460 40,000 245 466 0
2017-02-07 13:30:50 GMT 54.56383 11.27039 40,000 245 466 0
2017-02-07 13:30:47 GMT 54.56662 11.28045 40,000 245 466 0
2017-02-07 13:30:45 GMT 54.56784 11.28504 40,000 245 466 0
2017-02-07 13:30:44 GMT 54.56836 11.28684 40,000 245 466 64
2017-02-07 13:30:40 GMT 54.57188 11.29976 40,000 245 467 64
2017-02-07 13:30:40 GMT 54.57188 11.29976 40,000 245 467 64
2017-02-07 13:30:37 GMT 54.57568 11.31374 40,000 245 467 0
2017-02-07 13:30:34 GMT 54.57756 11.32044 40,000 245 467 0
2017-02-07 13:30:34 GMT 54.57756 11.32044 40,000 245 468 64
2017-02-07 13:30:34 GMT 54.57756 11.32044 40,000 245 467 0
2017-02-07 13:30:34 GMT 54.57756 11.32044 40,000 245 468 64
2017-02-07 13:30:31 GMT 54.58054 11.33140 40,000 245 468 0
2017-02-07 13:30:29 GMT 54.58231 11.33797 40,000 245 468 0
2017-02-07 13:30:27 GMT 54.58475 11.34678 40,000 245 468 0
2017-02-07 13:30:25 GMT 54.58604 11.35154 40,000 245 468 -64
2017-02-07 13:30:25 GMT 54.58649 11.35316 40,000 245 468 -64
2017-02-07 13:30:23 GMT 54.58748 11.35678 40,000 245 468 -64
2017-02-07 13:30:23 GMT 54.58748 11.35678 40,000 245 468 -64
2017-02-07 13:30:22 GMT 54.58846 11.36043 40,000 245 468 -64
2017-02-07 13:30:22 GMT 54.58901 11.36229 40,000 245 468 0
2017-02-07 13:30:22 GMT 54.58846 11.36043 40,000 245 468 0
2017-02-07 13:30:20 GMT 54.59088 11.36915 40,000 245 468 0
2017-02-07 13:30:18 GMT 54.59330 11.37817 40,000 245 468 0
2017-02-07 13:30:16 GMT 54.59525 11.38533 40,000 245 468 0
2017-02-07 13:30:14 GMT 54.59628 11.38903 40,000 245 468 0
2017-02-07 13:30:12 GMT 54.59816 11.39589 40,000 245 468 0
2017-02-07 13:30:09 GMT 54.60047 11.40447 40,000 245 468 0
2017-02-07 13:30:07 GMT 54.60292 11.41342 40,000 246 468 0
2017-02-07 13:30:06 GMT 54.60347 11.41544 40,000 246 468 0
2017-02-07 13:30:04 GMT 54.60582 11.42412 40,000 246 468 0
2017-02-07 13:30:04 GMT 54.60582 11.42412 40,000 246 468 0
2017-02-07 13:29:59 GMT 54.61024 11.44032 40,000 246 468 0
2017-02-07 13:29:57 GMT 54.61164 11.44551 40,000 246 468 0
2017-02-07 13:29:55 GMT 54.61400 11.45430 40,000 245 469 0
2017-02-07 13:29:53 GMT 54.61588 11.46116 40,000 245 469 0
2017-02-07 13:29:50 GMT 54.61945 11.47425 40,000 245 469 0
2017-02-07 13:29:47 GMT 54.62132 11.48120 40,000 246 468 0
2017-02-07 13:29:45 GMT 54.62366 11.48976 40,000 246 468 0
2017-02-07 13:29:45 GMT 54.62320 11.48806 40,000 246 468 0
2017-02-07 13:29:43 GMT 54.62503 11.49477 40,000 246 468 0
2017-02-07 13:29:41 GMT 54.62736 11.50349 40,000 246 468 0
2017-02-07 13:29:40 GMT 54.62779 11.50510 40,000 246 468 0
2017-02-07 13:29:38 GMT 54.62906 11.50971 40,000 246 468 0
2017-02-07 13:29:38 GMT 54.62956 11.51167 40,000 246 468 0
2017-02-07 13:29:35 GMT 54.63222 11.52141 40,000 246 468 0
2017-02-07 13:29:33 GMT 54.63451 11.52983 40,000 246 469 0
2017-02-07 13:29:31 GMT 54.63543 11.53340 40,000 246 469 0
2017-02-07 13:29:27 GMT 54.63920 11.54721 40,000 246 469 0
2017-02-07 13:29:24 GMT 54.64192 11.55738 40,000 246 469 0
2017-02-07 13:29:24 GMT 54.64394 11.56489 40,000 246 469 0
2017-02-07 13:29:22 GMT 54.64394 11.56489 40,000 246 469 0
2017-02-07 13:29:20 GMT 54.64554 11.57095 40,000 246 469 0
2017-02-07 13:29:17 GMT 54.64883 11.58314 40,000 246 469 0
2017-02-07 13:29:17 GMT 54.64842 11.58159 40,000 246 468 0
2017-02-07 13:29:14 GMT 54.65112 11.59171 40,000 246 469 0
2017-02-07 13:29:12 GMT 54.65305 11.59890 40,000 246 468 0
2017-02-07 13:29:10 GMT 54.65488 11.60560 40,000 246 468 0
2017-02-07 13:29:08 GMT 54.65616 11.61045 40,000 246 468 0
2017-02-07 13:29:06 GMT 54.65831 11.61828 40,000 246 468 0
2017-02-07 13:29:03 GMT 54.66161 11.63056 40,000 245 469 0
2017-02-07 13:29:00 GMT 54.66394 11.63921 40,000 246 468 0
2017-02-07 13:28:58 GMT 54.66595 11.64656 40,000 246 468 0
2017-02-07 13:28:56 GMT 54.66867 11.65658 40,000 246 468 0
2017-02-07 13:28:54 GMT 54.66962 11.66013 40,000 246 468 0
2017-02-07 13:28:51 GMT 54.67245 11.67063 40,000 246 468 0
2017-02-07 13:28:48 GMT 54.67598 11.68379 40,000 246 468 -64
2017-02-07 13:28:46 GMT 54.67770 11.69020 40,000 246 468 -64
2017-02-07 13:28:43 GMT 54.67956 11.69711 40,000 246 468 -64
2017-02-07 13:28:41 GMT 54.68254 11.70810 40,000 246 468 0
2017-02-07 13:28:40 GMT 54.68254 11.70810 40,000 246 468 0
2017-02-07 13:28:37 GMT 54.68468 11.71617 40,000 246 468 64
2017-02-07 13:28:37 GMT 54.68550 11.71910 40,000 246 468 64
2017-02-07 13:28:33 GMT 54.68907 11.73235 40,000 246 468 0
2017-02-07 13:28:31 GMT 54.69050 11.73773 40,000 246 468 0
2017-02-07 13:28:30 GMT 54.69154 11.74164 40,000 246 468 0
2017-02-07 13:28:29 GMT 54.69241 11.74488 40,000 246 468 0
2017-02-07 13:28:27 GMT 54.69427 11.75171 40,000 246 468 0
2017-02-07 13:28:23 GMT 54.69730 11.76295 40,000 246 468 0
2017-02-07 13:28:21 GMT 54.69983 11.77250 40,000 246 468 0
2017-02-07 13:28:19 GMT 54.70171 11.77952 40,000 246 468 0
2017-02-07 13:28:19 GMT 54.70130 11.77793 40,000 246 468 0
2017-02-07 13:28:16 GMT 54.70541 11.79326 40,000 246 468 0
2017-02-07 13:28:16 GMT 54.70442 11.78966 40,000 246 468 0
2017-02-07 13:28:13 GMT 54.70779 11.80222 40,000 246 468 64
2017-02-07 13:28:10 GMT 54.70963 11.80909 40,000 246 468 0
2017-02-07 13:28:08 GMT 54.71118 11.81491 40,000 246 468 64
2017-02-07 13:28:03 GMT 54.71626 11.83389 40,000 246 468 0
2017-02-07 13:28:01 GMT 54.71722 11.83744 40,000 246 468 0
2017-02-07 13:27:59 GMT 54.71918 11.84476 40,000 246 468 0
2017-02-07 13:27:57 GMT 54.72162 11.85393 40,000 246 468 0
2017-02-07 13:27:56 GMT 54.72203 11.85546 40,000 246 468 0
2017-02-07 13:27:53 GMT 54.72569 11.86923 40,000 246 466 0
2017-02-07 13:27:53 GMT 54.72607 11.87064 40,000 246 468 0
2017-02-07 13:27:51 GMT 54.72653 11.87239 40,000 246 468 0
2017-02-07 13:27:49 GMT 54.72926 11.88268 40,000 246 466 0
2017-02-07 13:27:47 GMT 54.73021 11.88612 40,000 246 466 0
2017-02-07 13:27:45 GMT 54.73193 11.89253 40,000 246 466 0
2017-02-07 13:27:42 GMT 54.73556 11.90618 40,000 246 466 0
2017-02-07 13:27:37 GMT 54.74011 11.92332 40,000 246 466 0
2017-02-07 13:27:33 GMT 54.74327 11.93519 40,000 246 466 0
2017-02-07 13:27:30 GMT 54.74547 11.94343 40,000 246 466 0
2017-02-07 13:27:30 GMT 54.74547 11.94343 40,000 246 466 0
2017-02-07 13:27:29 GMT 54.74641 11.94697 40,000 246 466 0
2017-02-07 13:27:26 GMT 54.74948 11.95862 40,000 246 466 0
2017-02-07 13:27:23 GMT 54.75265 11.97041 40,000 246 466 0
2017-02-07 13:27:19 GMT 54.75688 11.98642 40,000 246 466 0
2017-02-07 13:27:17 GMT 54.75815 11.99125 40,000 246 465 0
2017-02-07 13:27:15 GMT 54.75893 11.99407 40,000 246 465 0
2017-02-07 13:27:13 GMT 54.76126 12.00289 40,000 246 465 0
2017-02-07 13:27:11 GMT 54.76401 12.01322 40,000 246 465 0
2017-02-07 13:27:09 GMT 54.76538 12.01840 40,000 246 465 0
2017-02-07 13:27:06 GMT 54.76764 12.02687 40,000 246 465 0
2017-02-07 13:27:04 GMT 54.76859 12.03043 40,000 246 465 0
2017-02-07 13:27:01 GMT 54.77173 12.04226 40,000 246 465 0
2017-02-07 13:27:00 GMT 54.77304 12.04734 40,000 246 465 0
2017-02-07 13:26:59 GMT 54.77304 12.04734 40,000 246 465 0
2017-02-07 13:26:57 GMT 54.77554 12.05677 40,000 246 465 0
2017-02-07 13:26:55 GMT 54.77704 12.06241 40,000 246 465 0
2017-02-07 13:26:55 GMT 54.77742 12.06380 40,000 246 464 0
2017-02-07 13:26:53 GMT 54.77839 12.06748 40,000 246 464 0
2017-02-07 13:26:51 GMT 54.78159 12.07955 40,000 246 464 0
2017-02-07 13:26:49 GMT 54.78211 12.08155 40,000 246 464 0
2017-02-07 13:26:49 GMT 54.78211 12.08155 40,000 246 464 0
2017-02-07 13:26:46 GMT 54.78525 12.09344 40,000 246 464 0
2017-02-07 13:26:43 GMT 54.78798 12.10377 40,000 246 464 0
2017-02-07 13:26:43 GMT 54.78798 12.10377 40,000 246 464 0
2017-02-07 13:26:40 GMT 54.79101 12.11517 40,000 246 464 0
2017-02-07 13:26:40 GMT 54.79101 12.11517 40,000 246 464 0
2017-02-07 13:26:38 GMT 54.79193 12.11865 40,000 246 464 0
2017-02-07 13:26:33 GMT 54.79733 12.13917 40,000 246 464 64
2017-02-07 13:26:29 GMT 54.80081 12.15233 40,000 246 464 64
2017-02-07 13:26:25 GMT 54.80516 12.16877 40,000 246 464 64
2017-02-07 13:26:23 GMT 54.80612 12.17245 40,000 246 464 64
2017-02-07 13:26:21 GMT 54.80716 12.17635 40,000 246 465 0
2017-02-07 13:26:19 GMT 54.81020 12.18796 40,000 246 465 0
2017-02-07 13:26:17 GMT 54.81148 12.19280 40,000 246 465 0
2017-02-07 13:26:13 GMT 54.81477 12.20541 40,000 246 465 0
2017-02-07 13:26:13 GMT 54.81477 12.20541 40,000 246 465 0
2017-02-07 13:26:10 GMT 54.81759 12.21605 40,000 246 465 0
2017-02-07 13:26:08 GMT 54.82022 12.22609 40,000 246 465 0
2017-02-07 13:26:02 GMT 54.82443 12.24208 40,000 246 464 0
2017-02-07 13:26:02 GMT 54.82443 12.24208 40,000 246 464 0
2017-02-07 13:25:59 GMT 54.82777 12.25476 40,000 246 465 0
2017-02-07 13:25:57 GMT 54.82919 12.26018 40,000 246 465 0
2017-02-07 13:25:52 GMT 54.83379 12.27772 40,000 246 465 0
2017-02-07 13:25:52 GMT 54.83425 12.27939 40,000 246 465 0
2017-02-07 13:25:51 GMT 54.83425 12.27939 40,000 246 465 0
2017-02-07 13:25:48 GMT 54.83803 12.29378 40,000 246 465 -64
2017-02-07 13:25:46 GMT 54.83877 12.29678 40,000 246 465 0
2017-02-07 13:25:40 GMT 54.84361 12.31535 40,000 246 465 -64
2017-02-07 13:25:37 GMT 54.84673 12.32724 40,000 246 465 0
2017-02-07 13:25:34 GMT 54.84892 12.33579 40,000 246 465 0
2017-02-07 13:25:30 GMT 54.85297 12.35113 40,000 246 465 -64
2017-02-07 13:25:27 GMT 54.85565 12.36148 40,000 246 465 0
2017-02-07 13:25:24 GMT 54.85837 12.37177 40,000 246 465 64
2017-02-07 13:25:19 GMT 54.86270 12.38833 40,000 246 465 0
2017-02-07 13:25:17 GMT 54.86522 12.39799 40,000 246 465 -64
2017-02-07 13:25:15 GMT 54.86614 12.40157 40,000 246 466 0
2017-02-07 13:25:13 GMT 54.86758 12.40706 40,000 246 465 0
2017-02-07 13:25:10 GMT 54.87075 12.41938 40,000 246 465 0
2017-02-07 13:25:08 GMT 54.87326 12.42912 40,000 246 466 0
2017-02-07 13:25:08 GMT 54.87326 12.42912 40,000 246 465 0
2017-02-07 13:25:06 GMT 54.87410 12.43224 40,000 246 465 0
2017-02-07 13:25:04 GMT 54.87557 12.43790 40,000 246 465 0
2017-02-07 13:25:02 GMT 54.87744 12.44517 40,000 246 466 -64
2017-02-07 13:24:59 GMT 54.88011 12.45533 40,000 246 466 0
2017-02-07 13:24:59 GMT 54.88011 12.45533 40,000 246 466 0
2017-02-07 13:24:56 GMT 54.88327 12.46740 40,000 246 466 0
2017-02-07 13:24:52 GMT 54.88628 12.47893 40,000 246 466 0
2017-02-07 13:24:50 GMT 54.88802 12.48564 40,000 246 466 0
2017-02-07 13:24:47 GMT 54.89117 12.49784 40,000 246 466 64
2017-02-07 13:24:45 GMT 54.89249 12.50302 40,000 246 466 64
2017-02-07 13:24:41 GMT 54.89653 12.51852 40,000 246 466 0
2017-02-07 13:24:38 GMT 54.89877 12.52732 40,000 246 466 0
2017-02-07 13:24:35 GMT 54.90152 12.53790 40,000 246 466 0
2017-02-07 13:24:33 GMT 54.90445 12.54922 40,000 246 466 0
2017-02-07 13:24:30 GMT 54.90587 12.55463 40,000 246 466 0
2017-02-07 13:24:28 GMT 54.90756 12.56117 40,000 246 466 0
2017-02-07 13:24:26 GMT 54.90894 12.56650 40,000 246 466 0
2017-02-07 13:24:24 GMT 54.91086 12.57393 40,000 246 466 0
2017-02-07 13:24:22 GMT 54.91306 12.58234 40,000 246 466 64
2017-02-07 13:24:19 GMT 54.91553 12.59208 40,000 246 466 0
2017-02-07 13:24:16 GMT 54.91851 12.60357 40,000 246 466 64
2017-02-07 13:24:14 GMT 54.91992 12.60899 40,000 246 466 0
2017-02-07 13:24:12 GMT 54.92175 12.61618 40,000 246 466 64
2017-02-07 13:24:09 GMT 54.92559 12.63095 40,000 246 466 0
2017-02-07 13:24:06 GMT 54.92726 12.63736 40,000 246 466 0
2017-02-07 13:24:04 GMT 54.92894 12.64401 40,000 246 466 0
2017-02-07 13:24:01 GMT 54.93127 12.65300 40,000 246 466 0
2017-02-07 13:23:56 GMT 54.93535 12.66869 40,000 246 466 0
2017-02-07 13:23:54 GMT 54.93759 12.67733 40,000 246 466 0
2017-02-07 13:23:52 GMT 54.93947 12.68485 40,000 246 466 0
2017-02-07 13:23:47 GMT 54.94409 12.70270 40,000 246 466 0
2017-02-07 13:23:45 GMT 54.94633 12.71142 40,000 246 466 0
2017-02-07 13:23:43 GMT 54.94728 12.71509 40,000 246 466 0
2017-02-07 13:23:41 GMT 54.94868 12.72050 40,000 246 466 0
2017-02-07 13:23:37 GMT 54.95316 12.73800 40,000 246 466 0
2017-02-07 13:23:35 GMT 54.95445 12.74289 40,000 246 466 0
2017-02-07 13:23:33 GMT 54.95654 12.75101 40,000 246 466 0
2017-02-07 13:23:30 GMT 54.95842 12.75844 40,000 246 466 0
2017-02-07 13:23:25 GMT 54.96316 12.77693 40,000 246 466 -64
2017-02-07 13:23:23 GMT 54.96542 12.78566 40,000 246 466 0
2017-02-07 13:23:21 GMT 54.96721 12.79269 40,000 246 466 0
2017-02-07 13:23:17 GMT 54.96981 12.80282 40,000 246 466 0
2017-02-07 13:23:14 GMT 54.97252 12.81329 40,000 246 466 0
2017-02-07 13:23:12 GMT 54.97498 12.82296 40,000 246 466 0
2017-02-07 13:23:08 GMT 54.97889 12.83827 40,000 246 466 0
2017-02-07 13:23:05 GMT 54.98163 12.84900 40,000 246 466 0
2017-02-07 13:23:03 GMT 54.98300 12.85433 40,000 247 466 0
2017-02-07 13:23:01 GMT 54.98392 12.85783 40,000 247 466 0
2017-02-07 13:22:58 GMT 54.98680 12.86927 40,000 247 466 0
2017-02-07 13:22:53 GMT 54.99138 12.88704 40,000 247 466 64
2017-02-07 13:22:51 GMT 54.99316 12.89415 40,000 247 466 64
2017-02-07 13:22:49 GMT 54.99411 12.89787 40,000 247 466 64
2017-02-07 13:22:46 GMT 54.99724 12.91007 40,000 247 466 64
2017-02-07 13:22:43 GMT 55.00017 12.92162 40,000 247 466 0
2017-02-07 13:22:41 GMT 55.00170 12.92766 40,000 247 466 0
2017-02-07 13:22:39 GMT 55.00406 12.93689 40,000 247 466 0
2017-02-07 13:22:37 GMT 55.00626 12.94556 40,000 247 466 0
2017-02-07 13:22:31 GMT 55.01106 12.96451 40,000 247 466 64
2017-02-07 13:22:28 GMT 55.01248 12.97009 40,000 247 466 64
2017-02-07 13:22:26 GMT 55.01567 12.98251 40,000 247 466 -64
2017-02-07 13:22:21 GMT 55.01939 12.99731 40,000 247 466 -64
2017-02-07 13:22:19 GMT 55.02200 13.00748 40,000 247 466 0
2017-02-07 13:22:14 GMT 55.02516 13.02009 40,000 247 466 64
2017-02-07 13:22:10 GMT 55.02893 13.03486 40,000 247 466 0
2017-02-07 13:22:07 GMT 55.03148 13.04489 40,000 247 466 0
2017-02-07 13:22:04 GMT 55.03466 13.05758 40,000 247 466 0
2017-02-07 13:22:00 GMT 55.03801 13.07073 40,000 247 466 0
2017-02-07 13:21:58 GMT 55.03885 13.07422 40,000 247 466 0
2017-02-07 13:21:55 GMT 55.04132 13.08388 40,000 247 466 -64
2017-02-07 13:21:53 GMT 55.04444 13.09637 40,000 247 466 0
2017-02-07 13:21:51 GMT 55.04523 13.09945 40,000 247 466 0
2017-02-07 13:21:48 GMT 55.04755 13.10871 40,000 247 466 0
2017-02-07 13:21:41 GMT 55.05486 13.13765 40,000 247 466 0
2017-02-07 13:21:39 GMT 55.05574 13.14118 40,000 247 466 0
2017-02-07 13:21:37 GMT 55.05696 13.14606 40,000 247 466 0
2017-02-07 13:21:33 GMT 55.06068 13.16087 40,000 247 466 0
2017-02-07 13:21:30 GMT 55.06343 13.17161 40,000 247 466 0
2017-02-07 13:21:28 GMT 55.06513 13.17834 40,000 247 466 0
2017-02-07 13:21:26 GMT 55.06677 13.18505 40,000 247 466 0
2017-02-07 13:21:26 GMT 55.06677 13.18505 40,000 247 466 0
2017-02-07 13:21:24 GMT 55.06842 13.19151 40,000 247 466 0
2017-02-07 13:21:22 GMT 55.07030 13.19894 40,000 247 466 0
2017-02-07 13:21:20 GMT 55.07194 13.20549 40,000 247 465 64
2017-02-07 13:21:18 GMT 55.07364 13.21235 40,000 247 465 64
2017-02-07 13:21:18 GMT 55.07364 13.21235 40,000 247 466 64
2017-02-07 13:21:15 GMT 55.07581 13.22096 40,000 247 466 64
2017-02-07 13:21:08 GMT 55.08275 13.24876 40,000 247 467 64
2017-02-07 13:21:04 GMT 55.08527 13.25880 40,000 247 467 0
2017-02-07 13:21:01 GMT 55.08829 13.27074 40,000 247 467 -64
2017-02-07 13:20:58 GMT 55.09081 13.28094 40,000 247 467 0
2017-02-07 13:20:56 GMT 55.09268 13.28829 40,000 247 467 0
2017-02-07 13:20:54 GMT 55.09447 13.29548 40,000 247 467 64
2017-02-07 13:20:48 GMT 55.09969 13.31635 40,000 247 467 0
2017-02-07 13:20:46 GMT 55.10137 13.32309 40,000 247 467 0
2017-02-07 13:20:43 GMT 55.10399 13.33352 40,000 247 466 0
2017-02-07 13:20:41 GMT 55.10577 13.34071 40,000 247 466 0
2017-02-07 13:20:37 GMT 55.10891 13.35330 40,000 247 466 0
2017-02-07 13:20:34 GMT 55.11175 13.36462 40,000 247 466 0
2017-02-07 13:20:31 GMT 55.11380 13.37278 40,000 247 466 0
2017-02-07 13:20:29 GMT 55.11557 13.38002 40,000 247 466 0
2017-02-07 13:20:26 GMT 55.11823 13.39064 40,000 247 466 0
2017-02-07 13:20:24 GMT 55.12087 13.40124 40,000 247 467 0
2017-02-07 13:20:18 GMT 55.12486 13.41730 40,000 247 467 0
2017-02-07 13:20:16 GMT 55.12701 13.42610 40,000 247 467 0
2017-02-07 13:20:14 GMT 55.12862 13.43248 40,000 247 467 0
2017-02-07 13:20:12 GMT 55.12990 13.43773 40,000 247 467 0
2017-02-07 13:20:10 GMT 55.13284 13.44960 40,000 247 467 0
2017-02-07 13:20:05 GMT 55.13642 13.46416 40,000 247 467 0
2017-02-07 13:20:02 GMT 55.13887 13.47400 40,000 247 467 0
2017-02-07 13:19:59 GMT 55.14136 13.48414 40,000 247 467 0
2017-02-07 13:19:55 GMT 55.14494 13.49837 40,000 247 467 64
2017-02-07 13:19:52 GMT 55.14748 13.50858 40,000 247 467 0
2017-02-07 13:19:50 GMT 55.14903 13.51488 40,000 247 467 0
2017-02-07 13:19:48 GMT 55.15064 13.52126 40,000 247 467 0
2017-02-07 13:19:47 GMT 55.15155 13.52475 40,000 247 467 64
2017-02-07 13:19:45 GMT 55.15337 13.53208 40,000 247 467 64
2017-02-07 13:19:43 GMT 55.15514 13.53915 40,000 247 467 64
2017-02-07 13:19:41 GMT 55.15727 13.54776 40,000 247 467 0
2017-02-07 13:19:37 GMT 55.16040 13.56038 40,000 247 468 0
2017-02-07 13:19:37 GMT 55.16040 13.56038 40,000 247 468 0
2017-02-07 13:19:34 GMT 55.16313 13.57143 40,000 247 468 0
2017-02-07 13:19:30 GMT 55.16634 13.58435 40,000 247 468 0
2017-02-07 13:19:24 GMT 55.17174 13.60624 40,000 247 468 0
2017-02-07 13:19:20 GMT 55.17517 13.62022 40,000 247 468 0
2017-02-07 13:19:16 GMT 55.17806 13.63185 40,000 247 468 0
2017-02-07 13:19:13 GMT 55.18074 13.64269 40,000 247 468 0
2017-02-07 13:19:09 GMT 55.18483 13.65940 40,000 247 468 0
2017-02-07 13:19:05 GMT 55.18800 13.67215 40,000 247 468 0
2017-02-07 13:19:04 GMT 55.18926 13.67740 40,000 247 468 64
2017-02-07 13:19:03 GMT 55.18926 13.67740 40,000 247 468 64
2017-02-07 13:18:58 GMT 55.19403 13.69672 40,000 247 467 0
2017-02-07 13:18:53 GMT 55.19815 13.71352 40,000 247 468 0
2017-02-07 13:18:49 GMT 55.20200 13.72919 40,000 247 468 0
2017-02-07 13:18:47 GMT 55.20332 13.73466 40,000 247 468 0
2017-02-07 13:18:44 GMT 55.20602 13.74564 40,000 247 468 0
2017-02-07 13:18:42 GMT 55.20726 13.75060 40,000 247 468 0
2017-02-07 13:18:41 GMT 55.20877 13.75682 40,000 247 468 0
2017-02-07 13:18:37 GMT 55.21280 13.77322 40,000 247 469 0
2017-02-07 13:18:35 GMT 55.21454 13.78043 40,000 247 469 0
2017-02-07 13:18:35 GMT 55.21367 13.77685 40,000 247 468 0
2017-02-07 13:18:32 GMT 55.21587 13.78566 40,000 247 468 0
2017-02-07 13:18:32 GMT 55.21621 13.78726 40,000 247 468 0
2017-02-07 13:18:30 GMT 55.21803 13.79458 40,000 247 468 0
2017-02-07 13:18:25 GMT 55.22217 13.81148 40,000 247 468 0
2017-02-07 13:18:22 GMT 55.22473 13.82205 40,000 247 468 0
2017-02-07 13:18:15 GMT 55.23037 13.84502 40,000 247 468 0
2017-02-07 13:18:14 GMT 55.23158 13.85001 40,000 247 468 64
2017-02-07 13:18:11 GMT 55.23344 13.85759 40,000 247 468 64
2017-02-07 13:18:05 GMT 55.23935 13.88187 40,000 247 469 0
2017-02-07 13:18:04 GMT 55.24014 13.88514 40,000 247 469 0
2017-02-07 13:18:01 GMT 55.24269 13.89560 40,000 247 469 0
2017-02-07 13:17:57 GMT 55.24545 13.90694 40,000 247 469 0
2017-02-07 13:17:54 GMT 55.24823 13.91830 40,000 247 469 64
2017-02-07 13:17:53 GMT 55.24947 13.92339 40,000 247 469 64
2017-02-07 13:17:51 GMT 55.25192 13.93366 40,000 248 469 0
2017-02-07 13:17:50 GMT 55.25153 13.93188 40,000 247 469 0
2017-02-07 13:17:43 GMT 55.25751 13.95663 40,000 248 469 0
2017-02-07 13:17:42 GMT 55.25830 13.95991 40,000 248 469 0
2017-02-07 13:17:40 GMT 55.26027 13.96790 40,000 248 469 64
2017-02-07 13:17:39 GMT 55.26076 13.96987 40,000 248 469 0
2017-02-07 13:17:33 GMT 55.26631 13.99275 40,000 248 469 0
2017-02-07 13:17:31 GMT 55.26851 14.00191 40,000 248 469 0
2017-02-07 13:17:29 GMT 55.26984 14.00733 40,000 248 469 0
2017-02-07 13:17:29 GMT 55.26984 14.00733 40,000 248 469 0
2017-02-07 13:17:21 GMT 55.27613 14.03337 40,000 248 469 -64
2017-02-07 13:17:18 GMT 55.27872 14.04408 40,000 248 469 0
2017-02-07 13:17:12 GMT 55.28488 14.06941 40,000 248 469 0
2017-02-07 13:17:09 GMT 55.28651 14.07615 40,000 248 469 0
2017-02-07 13:17:07 GMT 55.28809 14.08272 40,000 247 468 0
2017-02-07 13:17:00 GMT 55.29364 14.10572 40,000 247 468 0
2017-02-07 13:16:58 GMT 55.29575 14.11436 40,000 248 467 0
2017-02-07 13:16:56 GMT 55.29707 14.11994 40,000 248 467 0
2017-02-07 13:16:50 GMT 55.30261 14.14280 40,000 248 468 0
2017-02-07 13:16:47 GMT 55.30504 14.15297 40,000 248 468 0
2017-02-07 13:16:47 GMT 55.30504 14.15297 40,000 248 468 0
2017-02-07 13:16:45 GMT 55.30671 14.15980 40,000 248 468 0
2017-02-07 13:16:39 GMT 55.31174 14.18085 40,000 248 468 0
2017-02-07 13:16:37 GMT 55.31351 14.18809 40,000 248 468 0
2017-02-07 13:16:35 GMT 55.31534 14.19579 40,000 248 468 0
2017-02-07 13:16:28 GMT 55.32147 14.22147 40,000 248 468 0
2017-02-07 13:16:23 GMT 55.32536 14.23763 40,000 248 468 0
2017-02-07 13:16:23 GMT 55.32487 14.23562 40,000 248 468 0
2017-02-07 13:16:17 GMT 55.33031 14.25834 40,000 248 468 0
2017-02-07 13:16:13 GMT 55.33371 14.27240 40,000 248 468 64
2017-02-07 13:16:09 GMT 55.33749 14.28820 40,000 248 469 0
2017-02-07 13:16:07 GMT 55.33923 14.29547 40,000 248 469 0
2017-02-07 13:16:01 GMT 55.34354 14.31352 40,000 248 469 0
2017-02-07 13:15:59 GMT 55.34560 14.32221 40,000 248 469 0
2017-02-07 13:15:57 GMT 55.34720 14.32884 40,000 248 469 0
2017-02-07 13:15:56 GMT 55.34805 14.33250 40,000 248 469 0
2017-02-07 13:15:55 GMT 55.34847 14.33408 40,000 248 469 0
2017-02-07 13:15:51 GMT 55.35191 14.34864 40,000 248 469 0
2017-02-07 13:15:51 GMT 55.35191 14.34864 40,000 248 469 0
2017-02-07 13:15:47 GMT 55.35527 14.36263 40,000 248 469 64
2017-02-07 13:15:45 GMT 55.35685 14.36928 40,000 248 469 64
2017-02-07 13:15:43 GMT 55.35843 14.37594 40,000 248 469 128
2017-02-07 13:15:40 GMT 55.36102 14.38668 40,000 248 469 0
2017-02-07 13:15:34 GMT 55.36638 14.40922 40,000 248 469 0
2017-02-07 13:15:28 GMT 55.37091 14.42820 40,000 248 469 0
2017-02-07 13:15:24 GMT 55.37425 14.44234 40,000 248 469 0
2017-02-07 13:15:22 GMT 55.37599 14.44969 40,000 248 469 0
2017-02-07 13:15:19 GMT 55.37911 14.46261 40,000 248 469 0
2017-02-07 13:15:17 GMT 55.38003 14.46666 40,000 248 468 0
2017-02-07 13:15:14 GMT 55.38304 14.47925 40,000 248 468 64
2017-02-07 13:15:11 GMT 55.38511 14.48814 40,000 248 468 64
2017-02-07 13:15:09 GMT 55.38734 14.49759 40,000 248 468 64
2017-02-07 13:15:07 GMT 55.38878 14.50345 40,000 248 469 0
2017-02-07 13:15:02 GMT 55.39372 14.52434 40,000 248 469 0
2017-02-07 13:14:59 GMT 55.39572 14.53281 40,000 248 469 0
2017-02-07 13:14:55 GMT 55.39875 14.54565 40,000 248 469 -64
2017-02-07 13:14:53 GMT 55.40005 14.55106 40,000 248 469 0
2017-02-07 13:14:51 GMT 55.40326 14.56462 40,000 248 468 64
2017-02-07 13:14:46 GMT 55.40630 14.57748 40,000 248 468 64
2017-02-07 13:14:43 GMT 55.40909 14.58936 40,000 248 468 0
2017-02-07 13:14:39 GMT 55.41248 14.60358 40,000 248 469 -64
2017-02-07 13:14:35 GMT 55.41568 14.61723 40,000 248 469 -64
2017-02-07 13:14:29 GMT 55.42039 14.63720 40,000 248 468 -64
2017-02-07 13:14:24 GMT 55.42482 14.65593 40,000 248 468 64
2017-02-07 13:14:17 GMT 55.43049 14.67981 40,000 248 468 0
2017-02-07 13:14:13 GMT 55.43343 14.69230 40,000 248 469 0
2017-02-07 13:14:10 GMT 55.43628 14.70423 40,000 248 469 0
2017-02-07 13:14:07 GMT 55.43864 14.71427 40,000 248 469 0
2017-02-07 13:14:03 GMT 55.44209 14.72909 40,000 248 469 0
2017-02-07 13:14:00 GMT 55.44456 14.73966 40,000 248 469 0
2017-02-07 13:13:55 GMT 55.44887 14.75797 40,000 248 469 0
2017-02-07 13:13:50 GMT 55.45298 14.77541 40,000 248 469 0
2017-02-07 13:13:45 GMT 55.45708 14.79283 40,000 248 469 0
2017-02-07 13:13:42 GMT 55.45968 14.80399 40,000 248 469 0
2017-02-07 13:13:38 GMT 55.46290 14.81772 40,000 248 469 0
2017-02-07 13:13:36 GMT 55.46494 14.82648 40,000 248 469 0
2017-02-07 13:13:31 GMT 55.46955 14.84605 40,000 248 469 64
2017-02-07 13:13:28 GMT 55.47080 14.85135 40,000 248 469 64
2017-02-07 13:13:23 GMT 55.47505 14.86948 40,000 248 469 0
2017-02-07 13:13:19 GMT 55.47844 14.88416 40,000 248 469 0
2017-02-07 13:13:16 GMT 55.48087 14.89463 40,000 248 469 0
2017-02-07 13:13:14 GMT 55.48260 14.90204 40,000 248 469 0
2017-02-07 13:13:08 GMT 55.48691 14.92068 40,000 248 469 -64
2017-02-07 13:13:01 GMT 55.49292 14.94990 40,000 248 469 0
2017-02-07 13:12:58 GMT 55.49565 14.95822 40,000 248 469 0
2017-02-07 13:12:55 GMT 55.49804 14.96827 40,000 248 469 0
2017-02-07 13:12:53 GMT 55.50050 14.97886 40,000 248 469 0
2017-02-07 13:12:49 GMT 55.50298 14.98956 40,000 248 468 -64
2017-02-07 13:12:46 GMT 55.50540 14.99983 40,000 248 468 0
2017-02-07 13:12:43 GMT 55.50777 15.01016 40,000 248 468 64
2017-02-07 13:12:41 GMT 55.50945 15.01745 40,000 248 468 64
2017-02-07 13:12:38 GMT 55.51199 15.02847 40,000 248 468 64
2017-02-07 13:12:35 GMT 55.51406 15.03745 40,000 248 468 64
2017-02-07 13:12:30 GMT 55.51854 15.05660 40,000 248 468 0
2017-02-07 13:12:28 GMT 55.52053 15.06509 40,000 248 468 0
2017-02-07 13:12:26 GMT 55.52170 15.07025 40,000 248 468 0
2017-02-07 13:12:21 GMT 55.52588 15.08843 40,000 248 469 64
2017-02-07 13:12:16 GMT 55.53030 15.10749 40,000 248 469 0
2017-02-07 13:12:14 GMT 55.53172 15.11361 40,000 248 470 0
2017-02-07 13:12:10 GMT 55.53580 15.13126 40,000 248 469 0
2017-02-07 13:12:06 GMT 55.53786 15.14016 40,000 248 469 0
2017-02-07 13:12:02 GMT 55.54120 15.15464 40,000 248 470 0
2017-02-07 13:11:59 GMT 55.54427 15.16796 40,000 248 470 64
2017-02-07 13:11:56 GMT 55.54601 15.17562 40,000 248 470 0
2017-02-07 13:11:54 GMT 55.54811 15.18469 40,000 248 470 0
2017-02-07 13:11:52 GMT 55.54971 15.19159 40,000 249 470 0
2017-02-07 13:11:46 GMT 55.55434 15.21182 40,000 248 470 0
2017-02-07 13:11:44 GMT 55.55603 15.21914 40,000 248 469 0
2017-02-07 13:11:37 GMT 55.56239 15.24686 40,000 249 470 0
2017-02-07 13:11:33 GMT 55.56498 15.25812 40,000 249 470 0
2017-02-07 13:11:26 GMT 55.57054 15.28223 40,000 249 470 -64
2017-02-07 13:11:24 GMT 55.57214 15.28922 40,000 249 470 -64
2017-02-07 13:11:21 GMT 55.57471 15.30052 40,000 249 470 0
2017-02-07 13:11:15 GMT 55.57941 15.32112 40,000 249 470 0
2017-02-07 13:11:13 GMT 55.58132 15.32945 40,000 249 470 0
2017-02-07 13:11:09 GMT 55.58426 15.34232 40,000 249 470 -64
2017-02-07 13:11:05 GMT 55.58844 15.36064 40,000 249 469 0
2017-02-07 13:11:02 GMT 55.59009 15.36779 40,000 249 469 64
2017-02-07 13:10:58 GMT 55.59361 15.38336 40,000 249 469 64
2017-02-07 13:10:53 GMT 55.59776 15.40155 40,000 249 469 -64
2017-02-07 13:10:51 GMT 55.59952 15.40916 40,000 249 469 64
2017-02-07 13:10:42 GMT 55.60638 15.43920 40,000 249 469 0
2017-02-07 13:10:39 GMT 55.60851 15.44858 40,000 249 469 0
2017-02-07 13:10:30 GMT 55.61572 15.48048 40,000 249 469 0
2017-02-07 13:10:21 GMT 55.62299 15.51252 40,000 249 469 0
2017-02-07 13:10:21 GMT 55.62373 15.51569 40,000 249 469 0
2017-02-07 13:10:19 GMT 55.62534 15.52277 40,000 249 469 0
2017-02-07 13:10:16 GMT 55.62769 15.53330 40,000 249 469 0
2017-02-07 13:10:09 GMT 55.63290 15.55613 40,000 249 469 0
2017-02-07 13:10:04 GMT 55.63710 15.57479 40,000 249 469 0
2017-02-07 13:09:59 GMT 55.64133 15.59355 40,000 249 469 0
2017-02-07 13:09:53 GMT 55.64608 15.61440 40,000 249 469 0
2017-02-07 13:09:51 GMT 55.64766 15.62144 40,000 249 470 0
2017-02-07 13:09:49 GMT 55.65010 15.63221 40,000 249 470 0
2017-02-07 13:09:47 GMT 55.65087 15.63560 40,000 249 470 0
2017-02-07 13:09:43 GMT 55.65413 15.65020 40,000 249 469 0
2017-02-07 13:09:38 GMT 55.65828 15.66865 40,000 249 469 0
2017-02-07 13:09:34 GMT 55.66158 15.68324 40,000 249 469 0
2017-02-07 13:09:27 GMT 55.66703 15.70753 40,000 249 469 0
2017-02-07 13:09:27 GMT 55.66703 15.70753 40,000 249 469 0
2017-02-07 13:09:23 GMT 55.66963 15.71912 40,000 249 469 0
2017-02-07 13:09:14 GMT 55.67755 15.75440 40,000 249 469 0
2017-02-07 13:09:12 GMT 55.67908 15.76114 40,000 249 469 0
2017-02-07 13:09:10 GMT 55.68068 15.76829 40,000 249 469 0
2017-02-07 13:09:04 GMT 55.68526 15.78868 40,000 249 468 0
2017-02-07 13:09:04 GMT 55.68526 15.78868 40,000 249 468 0
2017-02-07 13:09:00 GMT 55.68842 15.80292 40,000 249 468 0
2017-02-07 13:08:54 GMT 55.69432 15.82939 40,000 249 468 0
2017-02-07 13:08:52 GMT 55.69514 15.83301 40,000 249 468 0
2017-02-07 13:08:44 GMT 55.70180 15.86640 40,000 249 469 0
2017-02-07 13:08:43 GMT 55.70180 15.86640 40,000 249 469 0
2017-02-07 13:08:41 GMT 55.70362 15.87087 40,000 249 469 0
2017-02-07 13:08:32 GMT 55.71066 15.90263 40,000 249 469 0
2017-02-07 13:08:28 GMT 55.71387 15.91711 40,000 249 469 -64
2017-02-07 13:08:24 GMT 55.71693 15.93093 40,000 249 469 -64
2017-02-07 13:08:22 GMT 55.71858 15.93833 40,000 249 469 64
2017-02-07 13:08:21 GMT 55.71940 15.94202 40,000 249 469 64
2017-02-07 13:08:19 GMT 55.72098 15.94914 40,000 249 469 64
2017-02-07 13:08:11 GMT 55.72731 15.97755 40,000 249 470 0
2017-02-07 13:08:01 GMT 55.73546 16.01446 40,000 249 470 64
2017-02-07 13:07:59 GMT 55.73681 16.02047 40,000 249 470 0
2017-02-07 13:07:50 GMT 55.74412 16.05361 40,000 249 470 0
2017-02-07 13:07:46 GMT 55.74701 16.06659 40,000 249 471 0
2017-02-07 13:07:39 GMT 55.75240 16.09102 40,000 249 471 0
2017-02-07 13:07:28 GMT 55.76134 16.13159 40,000 249 471 0
2017-02-07 13:07:17 GMT 55.77000 16.17102 40,000 249 470 0
2017-02-07 13:07:06 GMT 55.77855 16.20991 40,000 249 470 0
2017-02-07 13:06:58 GMT 55.78541 16.24123 40,000 249 470 0
2017-02-07 13:06:56 GMT 55.78704 16.24869 40,000 249 470 0
2017-02-07 13:06:45 GMT 55.79556 16.28766 40,000 249 469 0
2017-02-07 13:06:36 GMT 55.80254 16.31961 40,000 249 469 0
2017-02-07 13:06:30 GMT 55.80738 16.34173 40,000 249 469 0
2017-02-07 13:06:24 GMT 55.81213 16.36345 40,000 249 470 0
2017-02-07 13:06:13 GMT 55.82032 16.40130 40,000 249 470 0
2017-02-07 13:06:01 GMT 55.82963 16.44422 40,000 249 470 0
2017-02-07 13:05:51 GMT 55.83750 16.48044 40,000 249 470 0
2017-02-07 13:05:39 GMT 55.84709 16.52464 40,000 249 471 0
2017-02-07 13:05:28 GMT 55.85522 16.56239 40,000 250 472 0
2017-02-07 13:05:15 GMT 55.86539 16.60944 40,000 250 472 64
2017-02-07 13:05:08 GMT 55.87138 16.63721 40,000 250 472 0
2017-02-07 13:04:57 GMT 55.87996 16.67716 40,000 250 472 0
2017-02-07 13:04:52 GMT 55.88374 16.69481 40,000 250 473 0
2017-02-07 13:04:44 GMT 55.88988 16.72336 40,000 250 474 0
2017-02-07 13:04:35 GMT 55.89709 16.75733 40,000 250 474 0
2017-02-07 13:04:29 GMT 55.90187 16.77987 40,000 250 476 0
2017-02-07 13:04:24 GMT 55.90530 16.79602 40,000 250 474 0
2017-02-07 13:04:14 GMT 55.91299 16.83222 40,000 250 475 0
2017-02-07 13:04:03 GMT 55.92183 16.87433 40,000 250 475 0
2017-02-07 13:03:50 GMT 55.93140 16.91944 40,000 250 476 0
2017-02-07 13:03:42 GMT 55.93771 16.94907 40,000 250 476 0
2017-02-07 13:03:30 GMT 55.94691 16.99244 40,000 250 476 64
2017-02-07 13:03:18 GMT 55.95695 17.03971 40,000 250 476 0
2017-02-07 13:03:09 GMT 55.96333 17.07018 40,000 250 476 0
2017-02-07 13:02:55 GMT 55.97404 17.12108 40,000 250 477 0
2017-02-07 13:02:48 GMT 55.97951 17.14716 40,000 250 476 0
2017-02-07 13:02:35 GMT 55.99001 17.19721 40,000 250 476 0
2017-02-07 13:02:25 GMT 55.99736 17.23231 40,000 250 475 0
2017-02-07 13:02:17 GMT 56.00374 17.26296 40,000 250 476 0
2017-02-07 13:02:07 GMT 56.01142 17.30003 40,000 250 476 0
2017-02-07 13:01:55 GMT 56.02059 17.34432 40,000 250 476 0
2017-02-07 13:01:44 GMT 56.02890 17.38437 40,000 250 476 0
2017-02-07 13:01:33 GMT 56.03730 17.42492 40,000 250 477 0
2017-02-07 13:01:22 GMT 56.04561 17.46502 40,000 250 477 0
2017-02-07 13:01:13 GMT 56.05234 17.49762 40,000 250 477 0
2017-02-07 13:01:02 GMT 56.06094 17.53959 40,000 250 478 0
2017-02-07 13:00:50 GMT 56.07019 17.58437 40,000 250 478 0
2017-02-07 13:00:40 GMT 56.07765 17.62107 40,000 251 478 0
2017-02-07 13:00:26 GMT 56.08795 17.67168 40,000 250 478 0
2017-02-07 13:00:19 GMT 56.09358 17.69932 40,000 250 478 0
2017-02-07 13:00:03 GMT 56.10536 17.75717 40,000 250 478 0
2017-02-07 12:59:52 GMT 56.11354 17.79744 40,000 251 479 0
2017-02-07 12:59:44 GMT 56.11972 17.82781 40,000 251 479 0
2017-02-07 12:59:33 GMT 56.12789 17.86815 40,000 251 479 0
2017-02-07 12:59:24 GMT 56.13469 17.90189 40,000 251 480 0
2017-02-07 12:59:04 GMT 56.15033 17.97964 40,000 251 480 0
2017-02-07 12:58:53 GMT 56.15801 18.01792 40,000 251 480 0
2017-02-07 12:58:41 GMT 56.16709 18.06315 40,000 251 481 0
2017-02-07 12:58:31 GMT 56.17449 18.10023 40,000 251 481 0
2017-02-07 12:58:20 GMT 56.18285 18.14209 40,000 251 480 0
2017-02-07 12:58:12 GMT 56.18898 18.17297 40,000 251 480 0
2017-02-07 12:58:09 GMT 56.19479 18.20218 40,000 251 480 0
2017-02-07 12:58:03 GMT 56.19598 18.20834 40,000 251 480 0
2017-02-07 12:58:00 GMT 56.19800 18.21833 40,000 251 481 0
2017-02-07 12:57:48 GMT 56.20697 18.26385 40,000 251 481 0
2017-02-07 12:57:39 GMT 56.21327 18.29575 40,000 251 481 0
2017-02-07 12:57:34 GMT 56.21741 18.31671 40,000 251 481 0
2017-02-07 12:57:30 GMT 56.22063 18.33318 40,000 251 481 0
2017-02-07 12:57:24 GMT 56.22464 18.35383 40,000 251 481 0
2017-02-07 12:57:19 GMT 56.22817 18.37163 40,000 251 481 0
2017-02-07 12:57:12 GMT 56.23329 18.39802 40,000 251 481 0
2017-02-07 12:57:08 GMT 56.23994 18.43205 40,000 251 482 0
2017-02-07 12:57:01 GMT 56.24139 18.43952 40,000 251 481 0
2017-02-07 12:56:59 GMT 56.24306 18.44802 40,000 251 481 0
2017-02-07 12:56:54 GMT 56.25110 18.48882 40,000 251 482 0
2017-02-07 12:56:46 GMT 56.25229 18.49465 40,000 251 482 0
2017-02-07 12:56:44 GMT 56.25421 18.50447 40,000 251 481 0
2017-02-07 12:56:34 GMT 56.26121 18.54034 40,000 252 480 0
2017-02-07 12:56:28 GMT 56.26583 18.56629 40,000 254 481 0
2017-02-07 12:56:18 GMT 56.27248 18.60818 40,000 256 481 0
2017-02-07 12:56:08 GMT 56.28026 18.66560 40,000 257 483 0
2017-02-07 12:56:00 GMT 56.28136 18.67384 40,000 257 483 0
2017-02-07 12:55:56 GMT 56.28323 18.68799 40,000 257 483 0
2017-02-07 12:55:52 GMT 56.28836 18.72620 40,000 257 483 0
2017-02-07 12:55:45 GMT 56.28910 18.73177 40,000 257 483 0
2017-02-07 12:55:38 GMT 56.29243 18.75699 40,000 257 483 0
2017-02-07 12:55:34 GMT 56.29477 18.77455 40,000 257 484 0
2017-02-07 12:55:24 GMT 56.29976 18.81217 40,000 257 484 0
2017-02-07 12:55:20 GMT 56.30200 18.82924 40,000 257 483 0
2017-02-07 12:55:17 GMT 56.30374 18.84255 40,000 257 483 0
2017-02-07 12:55:13 GMT 56.30563 18.85700 40,000 257 483 0
2017-02-07 12:55:06 GMT 56.30924 18.88433 40,000 257 482 0
2017-02-07 12:55:01 GMT 56.31159 18.90224 40,000 257 482 0
2017-02-07 12:54:57 GMT 56.31395 18.92029 40,000 257 482 0
2017-02-07 12:54:48 GMT 56.31821 18.95308 40,000 257 482 0
2017-02-07 12:54:46 GMT 56.31949 18.96298 40,000 257 482 0
2017-02-07 12:54:42 GMT 56.32178 18.98034 40,000 257 482 0
2017-02-07 12:54:34 GMT 56.32565 19.01021 40,000 257 482 0
2017-02-07 12:54:24 GMT 56.33125 19.05346 40,000 257 481 0
2017-02-07 12:54:24 GMT 56.33029 19.04605 40,000 257 481 0
2017-02-07 12:54:20 GMT 56.33240 19.06236 40,000 257 481 0
2017-02-07 12:54:15 GMT 56.33533 19.08467 40,000 257 481 -64
2017-02-07 12:54:15 GMT 56.33533 19.08467 40,000 257 481 -64
2017-02-07 12:54:08 GMT 56.33849 19.10914 40,000 257 481 0
2017-02-07 12:54:02 GMT 56.34174 19.13419 40,000 257 480 0
2017-02-07 12:54:01 GMT 56.34217 19.13767 40,000 257 480 0
2017-02-07 12:53:58 GMT 56.34357 19.14825 40,000 257 480 0
2017-02-07 12:53:53 GMT 56.34645 19.17048 40,000 257 480 0
2017-02-07 12:53:48 GMT 56.34883 19.18887 40,000 258 480 0
2017-02-07 12:53:37 GMT 56.35395 19.22874 40,000 257 479 0
2017-02-07 12:53:34 GMT 56.35844 19.26386 40,000 258 479 0
2017-02-07 12:53:23 GMT 56.36093 19.28332 40,000 258 479 0
2017-02-07 12:53:17 GMT 56.36655 19.32770 40,000 258 477 0
2017-02-07 12:53:10 GMT 56.36778 19.33697 40,000 258 478 0
2017-02-07 12:53:06 GMT 56.36952 19.35109 40,000 258 478 0
2017-02-07 12:53:04 GMT 56.37030 19.35716 40,000 258 478 0
2017-02-07 12:52:58 GMT 56.37337 19.38096 40,000 258 477 0
2017-02-07 12:52:55 GMT 56.37509 19.39430 40,000 258 477 0
2017-02-07 12:52:49 GMT 56.37783 19.41576 40,000 258 476 0
2017-02-07 12:52:44 GMT 56.38046 19.43681 40,000 258 476 0
2017-02-07 12:52:38 GMT 56.38316 19.45820 40,000 258 476 0
2017-02-07 12:52:33 GMT 56.38845 19.49979 40,000 258 477 0
2017-02-07 12:52:28 GMT 56.38868 19.50185 40,000 258 477 0
2017-02-07 12:52:23 GMT 56.39127 19.52212 40,000 258 477 0
2017-02-07 12:52:17 GMT 56.39612 19.56091 40,000 258 477 0
2017-02-07 12:52:10 GMT 56.39713 19.56881 40,000 258 477 0
2017-02-07 12:52:06 GMT 56.39891 19.58313 40,000 258 477 0
2017-02-07 12:52:01 GMT 56.40143 19.60356 40,000 258 477 0
2017-02-07 12:51:55 GMT 56.40409 19.62459 40,000 258 478 0
2017-02-07 12:51:49 GMT 56.40725 19.65033 40,000 258 478 0
2017-02-07 12:51:45 GMT 56.40907 19.66484 40,000 258 478 0
2017-02-07 12:51:38 GMT 56.41232 19.69075 40,000 258 478 0
2017-02-07 12:51:33 GMT 56.41470 19.71007 40,000 258 478 0
2017-02-07 12:51:29 GMT 56.41727 19.73086 40,000 258 478 0
2017-02-07 12:51:20 GMT 56.42180 19.76732 40,000 258 478 0
2017-02-07 12:51:17 GMT 56.42252 19.77350 40,000 258 478 0
2017-02-07 12:51:15 GMT 56.42592 19.80094 40,000 258 478 0
2017-02-07 12:51:05 GMT 56.42829 19.82028 40,000 258 478 0
2017-02-07 12:50:59 GMT 56.43137 19.84547 40,000 258 478 0
2017-02-07 12:50:57 GMT 56.43237 19.85354 40,000 258 478 0
2017-02-07 12:50:50 GMT 56.43539 19.87793 40,000 258 478 0
2017-02-07 12:50:46 GMT 56.43745 19.89474 40,000 258 478 0
2017-02-07 12:50:40 GMT 56.44038 19.91863 40,000 258 478 0
2017-02-07 12:50:36 GMT 56.44286 19.93902 40,000 258 477 0
2017-02-07 12:50:29 GMT 56.44552 19.96113 40,000 258 477 0
2017-02-07 12:50:24 GMT 56.44766 19.97847 40,000 258 477 0
2017-02-07 12:50:19 GMT 56.45087 20.00482 40,000 258 477 0
2017-02-07 12:50:13 GMT 56.45287 20.02130 40,000 258 476 0
2017-02-07 12:50:04 GMT 56.45753 20.06018 40,000 258 476 0
2017-02-07 12:49:56 GMT 56.46112 20.08983 40,000 258 476 0
2017-02-07 12:49:52 GMT 56.46272 20.10290 40,000 258 476 0
2017-02-07 12:49:45 GMT 56.46619 20.13193 40,000 258 476 0
2017-02-07 12:49:41 GMT 56.46786 20.14592 40,000 258 476 0
2017-02-07 12:49:34 GMT 56.47110 20.17248 40,000 258 476 0
2017-02-07 12:49:31 GMT 56.47280 20.18661 40,000 258 477 0
2017-02-07 12:49:25 GMT 56.47595 20.21293 40,000 258 476 0
2017-02-07 12:49:21 GMT 56.47806 20.23038 40,000 258 476 0
2017-02-07 12:49:14 GMT 56.48109 20.25553 40,000 258 476 0
2017-02-07 12:49:10 GMT 56.48267 20.26909 40,000 258 476 0
2017-02-07 12:49:02 GMT 56.48621 20.29866 40,000 258 477 0
2017-02-07 12:48:59 GMT 56.48781 20.31222 40,000 259 477 0
2017-02-07 12:48:51 GMT 56.49119 20.34076 40,000 259 477 0
2017-02-07 12:48:48 GMT 56.49286 20.35518 40,000 259 476 0
2017-02-07 12:48:41 GMT 56.49654 20.38616 40,000 259 477 0
2017-02-07 12:48:37 GMT 56.49775 20.39638 40,000 259 477 0
2017-02-07 12:48:27 GMT 56.50236 20.43534 40,000 259 477 0
2017-02-07 12:48:17 GMT 56.50717 20.47668 40,000 259 477 0
2017-02-07 12:48:06 GMT 56.51198 20.51780 40,000 259 477 0
2017-02-07 12:47:56 GMT 56.51693 20.56031 40,000 259 477 0
2017-02-07 12:47:46 GMT 56.52131 20.59773 40,000 259 477 0
2017-02-07 12:47:44 GMT 56.52173 20.60153 40,000 259 477 0
2017-02-07 12:47:34 GMT 56.52644 20.64190 40,000 259 476 0
2017-02-07 12:47:23 GMT 56.53118 20.68305 40,000 259 476 0
2017-02-07 12:47:13 GMT 56.53583 20.72339 40,000 259 476 0
2017-02-07 12:47:03 GMT 56.54091 20.76749 40,000 259 476 0
2017-02-07 12:47:00 GMT 56.54184 20.77558 40,000 259 476 0
2017-02-07 12:46:52 GMT 56.54547 20.80733 40,000 259 476 0
2017-02-07 12:46:49 GMT 56.54681 20.81868 40,000 259 476 64
2017-02-07 12:46:41 GMT 56.55012 20.84784 40,000 259 476 0
2017-02-07 12:46:39 GMT 56.55130 20.85796 40,000 259 476 -64
2017-02-07 12:46:31 GMT 56.55515 20.89158 40,000 259 476 0
2017-02-07 12:46:29 GMT 56.55602 20.89924 40,000 259 476 0
2017-02-07 12:46:20 GMT 56.55980 20.93247 40,000 259 477 64
2017-02-07 12:46:18 GMT 56.56045 20.93811 40,000 259 477 64
2017-02-07 12:46:08 GMT 56.56490 20.97781 40,000 259 477 0
2017-02-07 12:45:57 GMT 56.56958 21.01908 40,000 259 477 0
2017-02-07 12:45:55 GMT 56.57065 21.02852 40,000 259 477 0
2017-02-07 12:45:53 GMT 56.57355 21.05463 40,000 259 477 0
2017-02-07 12:45:46 GMT 56.57460 21.06387 40,000 259 477 0
2017-02-07 12:45:37 GMT 56.57877 21.10107 40,000 259 477 0
2017-02-07 12:45:36 GMT 56.57899 21.10307 40,000 259 477 0
2017-02-07 12:45:26 GMT 56.58378 21.14585 40,000 259 477 0
2017-02-07 12:45:23 GMT 56.58704 21.17469 40,000 259 478 0
2017-02-07 12:45:14 GMT 56.58843 21.18697 40,000 259 478 0
2017-02-07 12:45:05 GMT 56.59291 21.22750 40,000 259 478 0
2017-02-07 12:45:04 GMT 56.59291 21.22750 40,000 259 478 0
2017-02-07 12:45:03 GMT 56.59332 21.23151 40,000 259 478 0
2017-02-07 12:45:01 GMT 56.59411 21.23870 40,000 259 478 0
2017-02-07 12:44:53 GMT 56.59756 21.26989 40,000 259 478 0
2017-02-07 12:44:51 GMT 56.59891 21.28223 40,000 259 478 0
2017-02-07 12:44:43 GMT 56.60220 21.31202 40,000 259 478 -64
2017-02-07 12:44:39 GMT 56.60361 21.32499 40,000 259 477 0
2017-02-07 12:44:36 GMT 56.60490 21.33665 40,000 259 478 -64
2017-02-07 12:44:32 GMT 56.60664 21.35279 40,000 259 478 0
2017-02-07 12:44:30 GMT 56.60756 21.36094 40,000 259 478 0
2017-02-07 12:44:24 GMT 56.61036 21.38639 40,000 259 478 0
2017-02-07 12:44:21 GMT 56.61148 21.39667 40,000 259 478 0
2017-02-07 12:44:19 GMT 56.61255 21.40652 40,000 259 478 0
2017-02-07 12:44:17 GMT 56.61385 21.41838 40,000 259 478 0
2017-02-07 12:44:11 GMT 56.61598 21.43802 40,000 259 478 0
2017-02-07 12:44:10 GMT 56.61598 21.43802 40,000 259 478 0
2017-02-07 12:44:00 GMT 56.62051 21.47947 40,000 259 478 64
2017-02-07 12:43:59 GMT 56.62093 21.48306 40,000 259 478 0
2017-02-07 12:43:50 GMT 56.62526 21.52301 40,000 260 478 0
2017-02-07 12:43:49 GMT 56.62586 21.52860 40,000 260 478 0
2017-02-07 12:43:38 GMT 56.62967 21.56427 40,000 260 477 0
2017-02-07 12:43:38 GMT 56.62967 21.56427 40,000 260 477 0
2017-02-07 12:43:28 GMT 56.63411 21.60530 40,000 260 477 0
2017-02-07 12:43:27 GMT 56.63434 21.60736 40,000 260 477 0
2017-02-07 12:43:17 GMT 56.63871 21.64803 40,000 260 477 -64
2017-02-07 12:43:17 GMT 56.63871 21.64803 40,000 260 477 0
2017-02-07 12:43:07 GMT 56.64336 21.69148 40,000 259 476 64
2017-02-07 12:42:55 GMT 56.64784 21.73370 40,000 260 476 0
2017-02-07 12:42:44 GMT 56.65233 21.77662 40,000 260 476 0
2017-02-07 12:42:43 GMT 56.65277 21.78057 40,000 260 476 0
2017-02-07 12:42:34 GMT 56.65673 21.81832 40,000 260 475 0
2017-02-07 12:42:34 GMT 56.65673 21.81832 40,000 260 475 0
2017-02-07 12:42:24 GMT 56.66101 21.85916 40,000 260 475 64
2017-02-07 12:42:23 GMT 56.66124 21.86111 40,000 260 475 64
2017-02-07 12:42:12 GMT 56.66560 21.90253 40,000 260 475 0
2017-02-07 12:42:01 GMT 56.67009 21.94546 40,000 260 474 64
2017-02-07 12:41:51 GMT 56.67423 21.98515 40,000 260 474 -64
2017-02-07 12:41:41 GMT 56.67856 22.02630 40,000 260 473 -64
2017-02-07 12:41:30 GMT 56.68282 22.06724 40,000 260 473 0
2017-02-07 12:41:19 GMT 56.68744 22.11162 40,000 260 473 0
2017-02-07 12:41:09 GMT 56.69147 22.15041 40,000 260 473 0
2017-02-07 12:40:59 GMT 56.69568 22.19152 40,000 260 472 0
2017-02-07 12:40:48 GMT 56.69980 22.23186 40,000 260 472 0
2017-02-07 12:40:39 GMT 56.70393 22.27230 40,000 260 471 0
2017-02-07 12:40:37 GMT 56.70412 22.27434 40,000 260 471 0
2017-02-07 12:40:37 GMT 56.70412 22.27434 40,000 260 471 0
2017-02-07 12:40:29 GMT 56.70789 22.31137 40,000 260 471 0
2017-02-07 12:40:25 GMT 56.70873 22.31961 40,000 260 471 0
2017-02-07 12:40:16 GMT 56.71307 22.36216 40,000 260 471 0
2017-02-07 12:40:04 GMT 56.71729 22.40351 40,000 260 471 0
2017-02-07 12:39:54 GMT 56.72120 22.44285 40,000 260 471 0
2017-02-07 12:39:44 GMT 56.72479 22.48000 40,000 261 472 0
2017-02-07 12:39:42 GMT 56.72612 22.49382 40,000 260 471 0
2017-02-07 12:39:34 GMT 56.72912 22.52295 40,000 259 471 0
2017-02-07 12:39:31 GMT 56.73019 22.53244 40,000 258 472 0
2017-02-07 12:39:22 GMT 56.73465 22.56751 40,000 256 472 0
2017-02-07 12:39:12 GMT 56.74049 22.60969 40,000 256 472 0
2017-02-07 12:39:01 GMT 56.74629 22.65159 40,000 256 472 0
2017-02-07 12:38:51 GMT 56.75165 22.69005 40,000 256 472 -64
2017-02-07 12:38:49 GMT 56.75193 22.69208 40,000 256 472 -64
2017-02-07 12:38:40 GMT 56.75766 22.73346 40,000 256 472 0
2017-02-07 12:38:29 GMT 56.76263 22.76978 40,000 256 472 64
2017-02-07 12:38:27 GMT 56.76375 22.77767 40,000 256 472 64
2017-02-07 12:38:17 GMT 56.76906 22.81648 40,000 257 471 0
2017-02-07 12:38:07 GMT 56.77487 22.85860 40,000 257 471 0
2017-02-07 12:37:57 GMT 56.77963 22.89356 40,000 257 472 0
2017-02-07 12:37:55 GMT 56.78042 22.89941 40,000 257 472 0
2017-02-07 12:37:47 GMT 56.78517 22.93413 40,000 257 472 0
2017-02-07 12:37:44 GMT 56.78622 22.94177 40,000 257 472 0
2017-02-07 12:37:35 GMT 56.79158 22.98100 40,000 257 472 0
2017-02-07 12:37:24 GMT 56.79731 23.02353 40,000 257 473 0
2017-02-07 12:37:15 GMT 56.80183 23.05678 40,000 257 473 0
2017-02-07 12:37:13 GMT 56.80257 23.06234 40,000 257 473 0
2017-02-07 12:37:02 GMT 56.80829 23.10476 40,000 257 473 0
2017-02-07 12:36:53 GMT 56.81342 23.14287 40,000 257 474 0
2017-02-07 12:36:51 GMT 56.81398 23.14704 40,000 257 474 0
2017-02-07 12:36:42 GMT 56.81891 23.18364 40,000 257 475 0
2017-02-07 12:36:41 GMT 56.81946 23.18785 40,000 257 475 0
2017-02-07 12:36:32 GMT 56.82404 23.22218 40,000 257 475 0
2017-02-07 12:36:31 GMT 56.82481 23.22802 40,000 257 475 0
2017-02-07 12:36:30 GMT 56.82481 23.22802 40,000 257 475 0
2017-02-07 12:36:21 GMT 56.83026 23.26853 40,000 257 476 0
2017-02-07 12:36:09 GMT 56.83577 23.30989 40,000 257 476 0
2017-02-07 12:35:58 GMT 56.84139 23.35247 40,000 257 477 0
2017-02-07 12:35:57 GMT 56.84244 23.36062 40,000 257 477 0
2017-02-07 12:35:48 GMT 56.84689 23.39423 40,000 257 477 0
2017-02-07 12:35:38 GMT 56.85251 23.43736 40,000 257 477 -64
2017-02-07 12:35:37 GMT 56.85225 23.43526 40,000 257 477 -64
2017-02-07 12:35:27 GMT 56.85773 23.47693 40,000 257 477 0
2017-02-07 12:35:17 GMT 56.86285 23.51589 40,000 257 477 0
2017-02-07 12:35:15 GMT 56.86360 23.52182 40,000 257 477 0
2017-02-07 12:35:14 GMT 56.86435 23.52740 40,000 257 477 0
2017-02-07 12:35:05 GMT 56.86873 23.56071 40,000 257 478 64
2017-02-07 12:34:54 GMT 56.87434 23.60370 40,000 257 477 0
2017-02-07 12:34:44 GMT 56.87956 23.64429 40,000 257 477 0
2017-02-07 12:34:33 GMT 56.88516 23.68776 40,000 257 477 0
2017-02-07 12:34:22 GMT 56.89088 23.73197 40,000 257 477 0
2017-02-07 12:34:13 GMT 56.89545 23.76738 40,000 257 478 0
2017-02-07 12:34:11 GMT 56.89591 23.77105 40,000 257 478 0
2017-02-07 12:34:03 GMT 56.90053 23.80652 40,000 258 478 0
2017-02-07 12:34:01 GMT 56.90127 23.81287 40,000 259 477 64
2017-02-07 12:33:52 GMT 56.90541 23.84972 40,000 260 478 0
2017-02-07 12:33:50 GMT 56.90579 23.85389 40,000 261 478 0
2017-02-07 12:33:42 GMT 56.90941 23.89389 40,000 263 478 0
2017-02-07 12:33:40 GMT 56.90959 23.89621 40,000 263 478 0
2017-02-07 12:33:30 GMT 56.91238 23.93672 40,000 265 478 0
2017-02-07 12:33:28 GMT 56.91275 23.94281 40,000 265 478 64
2017-02-07 12:33:20 GMT 56.91440 23.97672 40,000 267 479 64
2017-02-07 12:33:18 GMT 56.91467 23.98358 40,000 267 478 64
2017-02-07 12:33:08 GMT 56.91584 24.02577 40,000 269 479 0
2017-02-07 12:32:59 GMT 56.91618 24.06298 40,000 271 479 0
2017-02-07 12:32:57 GMT 56.91614 24.07027 40,000 271 479 0
2017-02-07 12:32:48 GMT 56.91573 24.10486 40,000 273 478 0
2017-02-07 12:32:46 GMT 56.91546 24.11472 40,000 274 478 0
2017-02-07 12:32:38 GMT 56.91430 24.14857 40,000 274 479 0
2017-02-07 12:32:37 GMT 56.91430 24.14857 40,000 274 479 0
2017-02-07 12:32:35 GMT 56.91402 24.15646 40,000 274 479 0
2017-02-07 12:32:25 GMT 56.91239 24.19881 40,000 274 478 0
2017-02-07 12:32:15 GMT 56.91083 24.24039 40,000 274 478 0
2017-02-07 12:32:06 GMT 56.90946 24.27651 40,000 274 478 0
2017-02-07 12:32:06 GMT 56.90946 24.27651 40,000 274 478 0
2017-02-07 12:32:03 GMT 56.90909 24.28661 40,000 274 478 0
2017-02-07 12:31:56 GMT 56.90776 24.32116 40,000 274 478 0
2017-02-07 12:31:53 GMT 56.90750 24.32719 40,000 274 478 0
2017-02-07 12:31:43 GMT 56.90588 24.36914 40,000 275 478 0
2017-02-07 12:31:34 GMT 56.90451 24.40441 40,000 275 478 0
2017-02-07 12:31:31 GMT 56.90411 24.41392 40,000 275 478 0
2017-02-07 12:31:23 GMT 56.90280 24.44706 40,000 275 479 0
2017-02-07 12:31:21 GMT 56.90243 24.45636 40,000 275 479 0
2017-02-07 12:31:13 GMT 56.90113 24.48888 40,000 275 479 0
2017-02-07 12:31:10 GMT 56.90071 24.49908 40,000 275 479 0
2017-02-07 12:31:02 GMT 56.89938 24.53221 40,000 275 479 0
2017-02-07 12:31:00 GMT 56.89902 24.54165 40,000 275 479 0
2017-02-07 12:30:51 GMT 56.89751 24.57848 40,000 275 479 0
2017-02-07 12:30:49 GMT 56.89719 24.58603 40,000 275 479 0
2017-02-07 12:30:41 GMT 56.89591 24.61664 40,000 275 478 0
2017-02-07 12:30:39 GMT 56.89554 24.62646 40,000 275 478 0
2017-02-07 12:30:32 GMT 56.89433 24.65536 40,000 275 478 0
2017-02-07 12:30:27 GMT 56.89368 24.67157 40,000 275 478 0
2017-02-07 12:30:20 GMT 56.89233 24.70329 40,000 275 478 64
2017-02-07 12:30:18 GMT 56.89196 24.71206 40,000 275 477 0
2017-02-07 12:30:09 GMT 56.89051 24.74600 40,000 275 477 0
2017-02-07 12:30:06 GMT 56.89009 24.75572 40,000 275 477 0
2017-02-07 12:29:59 GMT 56.88884 24.78578 40,000 275 477 0
2017-02-07 12:29:56 GMT 56.88814 24.80137 40,000 275 477 0
2017-02-07 12:29:50 GMT 56.88721 24.82387 40,000 275 477 0
2017-02-07 12:29:48 GMT 56.88693 24.82987 40,000 275 476 0
2017-02-07 12:29:45 GMT 56.88634 24.84386 40,000 275 476 0
2017-02-07 12:29:39 GMT 56.88519 24.86936 40,000 275 476 64
2017-02-07 12:29:36 GMT 56.88487 24.87700 40,000 275 476 0
2017-02-07 12:29:34 GMT 56.88441 24.88767 40,000 275 476 0
2017-02-07 12:29:27 GMT 56.88330 24.91362 40,000 275 476 0
2017-02-07 12:29:25 GMT 56.88297 24.92071 40,000 275 476 0
2017-02-07 12:29:23 GMT 56.88260 24.93019 40,000 275 476 0
2017-02-07 12:29:18 GMT 56.88162 24.95243 40,000 275 476 0
2017-02-07 12:29:16 GMT 56.88135 24.95879 40,000 275 476 0
2017-02-07 12:29:12 GMT 56.88066 24.97450 40,000 275 476 0
2017-02-07 12:29:06 GMT 56.87943 25.00267 40,000 275 475 0
2017-02-07 12:29:02 GMT 56.87878 25.01720 40,000 275 475 0
2017-02-07 12:28:54 GMT 56.87750 25.04565 40,000 275 475 0
2017-02-07 12:28:51 GMT 56.87692 25.05893 40,000 275 475 0
2017-02-07 12:28:44 GMT 56.87562 25.08755 40,000 275 475 0
2017-02-07 12:28:40 GMT 56.87494 25.10290 40,000 275 475 0
2017-02-07 12:28:35 GMT 56.87384 25.12711 40,000 275 474 0
2017-02-07 12:28:30 GMT 56.87301 25.14505 40,000 275 474 0
2017-02-07 12:28:23 GMT 56.87178 25.17208 40,000 275 474 0
2017-02-07 12:28:18 GMT 56.87105 25.18805 40,000 275 474 0
2017-02-07 12:28:12 GMT 56.86986 25.21337 40,000 275 474 0
2017-02-07 12:28:07 GMT 56.86896 25.23223 40,000 275 474 0
2017-02-07 12:28:02 GMT 56.86789 25.25500 40,000 275 474 0
2017-02-07 12:27:57 GMT 56.86693 25.27542 40,000 275 474 0
2017-02-07 12:27:53 GMT 56.86610 25.29284 40,000 275 473 0
2017-02-07 12:27:51 GMT 56.86578 25.29928 40,000 275 473 0
2017-02-07 12:27:46 GMT 56.86496 25.31679 40,000 275 473 0
2017-02-07 12:27:40 GMT 56.86370 25.34298 40,000 276 473 0
2017-02-07 12:27:35 GMT 56.86281 25.36114 40,000 276 473 0
2017-02-07 12:27:32 GMT 56.86198 25.37850 40,000 276 472 0
2017-02-07 12:27:30 GMT 56.86179 25.38214 40,000 276 472 0
2017-02-07 12:27:25 GMT 56.86079 25.40236 40,000 276 473 0
2017-02-07 12:27:20 GMT 56.85974 25.42272 40,000 276 473 0
2017-02-07 12:27:11 GMT 56.85773 25.46116 40,000 276 472 0
2017-02-07 12:27:07 GMT 56.85713 25.47304 40,000 276 472 0
2017-02-07 12:27:03 GMT 56.85648 25.48642 40,000 275 473 0
2017-02-07 12:26:58 GMT 56.85541 25.51008 40,000 275 474 0
2017-02-07 12:26:52 GMT 56.85466 25.53051 40,000 274 473 0
2017-02-07 12:26:48 GMT 56.85401 25.54915 40,000 274 473 0
2017-02-07 12:26:39 GMT 56.85265 25.58836 40,000 274 473 0
2017-02-07 12:26:37 GMT 56.85246 25.59299 40,000 274 473 0
2017-02-07 12:26:26 GMT 56.85100 25.63617 40,000 274 473 0
2017-02-07 12:26:26 GMT 56.85109 25.63411 40,000 274 473 0
2017-02-07 12:26:17 GMT 56.84978 25.67088 40,000 274 473 0
2017-02-07 12:26:15 GMT 56.84950 25.67904 40,000 274 473 0
2017-02-07 12:26:15 GMT 56.84950 25.67904 40,000 274 473 0
2017-02-07 12:26:07 GMT 56.84825 25.71393 40,000 274 473 0
2017-02-07 12:26:05 GMT 56.84787 25.72449 40,000 274 473 0
2017-02-07 12:26:05 GMT 56.84798 25.72226 40,000 274 473 0
2017-02-07 12:25:54 GMT 56.84643 25.76622 40,000 274 473 64
2017-02-07 12:25:51 GMT 56.84615 25.77437 40,000 274 473 64
2017-02-07 12:25:45 GMT 56.84536 25.79794 40,000 274 473 0
2017-02-07 12:25:43 GMT 56.84491 25.81040 40,000 274 473 0
2017-02-07 12:25:42 GMT 56.84491 25.81040 40,000 274 473 0
2017-02-07 12:25:34 GMT 56.84381 25.84216 40,000 274 474 0
2017-02-07 12:25:32 GMT 56.84340 25.85234 40,000 274 474 0
2017-02-07 12:25:32 GMT 56.84336 25.85420 40,000 274 474 0
2017-02-07 12:25:23 GMT 56.84219 25.88547 40,000 274 474 0
2017-02-07 12:25:21 GMT 56.84180 25.89572 40,000 274 474 0
2017-02-07 12:25:20 GMT 56.84175 25.89744 40,000 274 474 0
2017-02-07 12:25:14 GMT 56.84065 25.92614 40,000 274 474 -64
2017-02-07 12:25:10 GMT 56.84020 25.93743 40,000 274 474 -64
2017-02-07 12:25:09 GMT 56.84005 25.94120 40,000 274 474 0
2017-02-07 12:25:02 GMT 56.83889 25.97257 40,000 274 474 0
2017-02-07 12:25:00 GMT 56.83851 25.98240 40,000 274 474 0
2017-02-07 12:24:59 GMT 56.83851 25.98240 40,000 274 474 0
2017-02-07 12:24:52 GMT 56.83740 26.01120 40,000 274 473 0
2017-02-07 12:24:49 GMT 56.83694 26.02387 40,000 274 473 0
2017-02-07 12:24:48 GMT 56.83694 26.02387 40,000 274 473 0
2017-02-07 12:24:41 GMT 56.83586 26.05222 40,000 274 473 0
2017-02-07 12:24:37 GMT 56.83521 26.06870 40,000 274 473 0
2017-02-07 12:24:37 GMT 56.83521 26.06870 40,000 274 473 0
2017-02-07 12:24:30 GMT 56.83404 26.09971 40,000 274 473 0
2017-02-07 12:24:27 GMT 56.83362 26.11043 40,000 274 473 0
2017-02-07 12:24:27 GMT 56.83362 26.11043 40,000 274 473 0
2017-02-07 12:24:20 GMT 56.83251 26.13931 40,000 275 473 0
2017-02-07 12:24:16 GMT 56.83200 26.15192 40,000 275 473 0
2017-02-07 12:24:16 GMT 56.83191 26.15398 40,000 275 473 0
2017-02-07 12:24:09 GMT 56.83081 26.18205 40,000 275 473 -64
2017-02-07 12:24:06 GMT 56.83032 26.19442 40,000 275 473 0
2017-02-07 12:24:05 GMT 56.83017 26.19853 40,000 275 473 0
2017-02-07 12:23:58 GMT 56.82921 26.22299 40,000 274 473 64
2017-02-07 12:23:55 GMT 56.82861 26.23784 40,000 274 473 -64
2017-02-07 12:23:55 GMT 56.82861 26.23784 40,000 274 473 -64
2017-02-07 12:23:47 GMT 56.82743 26.26866 40,000 274 474 0
2017-02-07 12:23:44 GMT 56.82701 26.27955 40,000 274 474 0
2017-02-07 12:23:44 GMT 56.82701 26.27955 40,000 274 474 0
2017-02-07 12:23:37 GMT 56.82585 26.30889 40,000 274 474 0
2017-02-07 12:23:34 GMT 56.82529 26.32351 40,000 275 474 0
2017-02-07 12:23:26 GMT 56.82413 26.35310 40,000 275 474 0
2017-02-07 12:23:24 GMT 56.82376 26.36125 40,000 275 475 0
2017-02-07 12:23:22 GMT 56.82353 26.36719 40,000 275 475 0
2017-02-07 12:23:16 GMT 56.82250 26.39297 40,000 275 475 0
2017-02-07 12:23:12 GMT 56.82184 26.40839 40,000 275 475 0
2017-02-07 12:23:01 GMT 56.82012 26.45038 40,000 275 475 0
2017-02-07 12:22:51 GMT 56.81840 26.49149 40,000 275 475 64
2017-02-07 12:22:41 GMT 56.81671 26.53284 40,000 275 475 128
2017-02-07 12:22:38 GMT 56.81625 26.54305 40,000 275 474 128
2017-02-07 12:22:30 GMT 56.81473 26.58000 40,000 275 473 128
2017-02-07 12:22:18 GMT 56.81268 26.62758 39,950 275 471 384
2017-02-07 12:22:09 GMT 56.81133 26.65850 39,900 275 471 384
2017-02-07 12:21:57 GMT 56.80925 26.70716 39,825 275 469 384
2017-02-07 12:21:47 GMT 56.80765 26.74382 39,775 275 468 384
2017-02-07 12:21:44 GMT 56.80687 26.76235 39,725 275 467 384
2017-02-07 12:21:37 GMT 56.80588 26.78502 39,700 275 467 448
2017-02-07 12:21:33 GMT 56.80523 26.79946 39,675 275 465 704
2017-02-07 12:21:26 GMT 56.80399 26.82647 39,625 275 465 704
2017-02-07 12:21:15 GMT 56.80206 26.86955 39,500 275 465 832
2017-02-07 12:21:12 GMT 56.80156 26.88114 39,450 275 466 896
2017-02-07 12:21:03 GMT 56.79973 26.92341 39,275 275 466 960
2017-02-07 12:20:52 GMT 56.79801 26.96213 39,125 275 467 1024
2017-02-07 12:20:41 GMT 56.79607 27.00568 38,925 275 468 1280
2017-02-07 12:20:38 GMT 56.79555 27.01698 38,850 275 468 1280
2017-02-07 12:20:30 GMT 56.79406 27.04834 38,650 275 471 1536
2017-02-07 12:20:22 GMT 56.79252 27.08094 38,450 275 473 1408
2017-02-07 12:20:19 GMT 56.79215 27.08901 38,400 275 473 1408
2017-02-07 12:20:11 GMT 56.79057 27.12294 38,250 275 475 896
2017-02-07 12:19:59 GMT 56.78842 27.16848 38,100 275 474 512
2017-02-07 12:19:49 GMT 56.78645 27.21108 38,000 275 474 64
2017-02-07 12:19:38 GMT 56.78448 27.25227 38,000 275 474 0
2017-02-07 12:19:28 GMT 56.78252 27.29390 38,000 275 474 -64
2017-02-07 12:19:15 GMT 56.78000 27.34550 38,000 275 473 0
2017-02-07 12:19:06 GMT 56.77826 27.38162 38,000 276 473 0
2017-02-07 12:18:58 GMT 56.77660 27.41514 38,000 276 472 64
2017-02-07 12:18:46 GMT 56.77441 27.45947 38,000 276 472 0
2017-02-07 12:18:36 GMT 56.77240 27.49947 38,000 276 472 0
2017-02-07 12:18:26 GMT 56.77011 27.54461 38,000 276 472 0
2017-02-07 12:18:24 GMT 56.76980 27.55052 38,000 276 472 0
2017-02-07 12:18:14 GMT 56.76805 27.58487 38,000 276 472 0
2017-02-07 12:17:59 GMT 56.76491 27.64639 38,000 276 472 0
2017-02-07 12:17:55 GMT 56.76417 27.66136 38,000 276 472 0
2017-02-07 12:17:52 GMT 56.76329 27.67802 38,000 276 472 64
2017-02-07 12:17:41 GMT 56.76124 27.71797 38,000 276 472 64
2017-02-07 12:17:34 GMT 56.75990 27.74434 38,000 276 471 0
2017-02-07 12:17:18 GMT 56.75665 27.80717 38,000 276 471 0
2017-02-07 12:17:09 GMT 56.75472 27.84414 38,000 277 471 -64
2017-02-07 12:17:07 GMT 56.75435 27.85017 38,000 278 471 -64
2017-02-07 12:17:00 GMT 56.75230 27.87970 38,000 279 472 -64
2017-02-07 12:16:54 GMT 56.75057 27.90098 38,000 282 471 -64
2017-02-07 12:16:47 GMT 56.74764 27.93188 38,000 282 471 -64
2017-02-07 12:16:35 GMT 56.74205 27.97926 38,000 284 471 0
2017-02-07 12:16:25 GMT 56.73734 28.01642 38,000 284 471 0
2017-02-07 12:16:10 GMT 56.73019 28.07213 38,000 284 471 -64
2017-02-07 12:16:03 GMT 56.72669 28.10001 38,000 283 469 64
2017-02-07 12:15:51 GMT 56.72106 28.14414 38,000 284 470 0
2017-02-07 12:15:41 GMT 56.71590 28.18418 38,000 284 470 64
2017-02-07 12:15:29 GMT 56.70984 28.23097 38,000 284 470 0
2017-02-07 12:15:19 GMT 56.70510 28.26756 38,000 284 470 0
We lost coverage of the aircraft here for a total of 19 minutes
2017-02-07 11:56:00 GMT 55.94951 32.53944 38,000 293 457 0
2017-02-07 11:55:50 GMT 55.94179 32.57213 38,000 293 457 0
2017-02-07 11:55:47 GMT 55.93940 32.58202 38,000 293 458 0
2017-02-07 11:55:36 GMT 55.93030 32.62057 38,000 293 458 0
2017-02-07 11:55:32 GMT 55.92700 32.63455 38,000 293 457 0
2017-02-07 11:55:21 GMT 55.91818 32.67188 38,000 294 457 0
2017-02-07 11:55:12 GMT 55.91022 32.70518 38,000 294 457 0
2017-02-07 11:55:02 GMT 55.90170 32.74072 38,000 294 457 0
2017-02-07 11:54:48 GMT 55.89102 32.78553 38,000 296 456 0
2017-02-07 11:54:40 GMT 55.88415 32.81402 38,000 296 456 0
2017-02-07 11:53:58 GMT 55.84213 32.95199 38,000 304 456 0
2017-02-07 11:53:48 GMT 55.82973 32.98473 38,000 310 455 0
2017-02-07 11:53:29 GMT 55.80673 33.03881 38,000 310 455 0
2017-02-07 11:52:38 GMT 55.73616 33.18618 38,000 311 454 0
2017-02-07 11:52:29 GMT 55.72512 33.20918 38,000 311 454 0
2017-02-07 11:52:22 GMT 55.71423 33.23167 38,000 311 453 0
2017-02-07 11:52:10 GMT 55.69862 33.26394 38,000 311 453 0
2017-02-07 11:51:58 GMT 55.68187 33.29865 38,000 311 453 0
2017-02-07 11:51:51 GMT 55.67212 33.31879 38,000 311 453 0
2017-02-07 11:51:40 GMT 55.65779 33.34842 38,000 311 453 0
2017-02-07 11:51:30 GMT 55.64401 33.37680 38,000 311 453 0
2017-02-07 11:51:20 GMT 55.62955 33.40659 38,000 311 453 0
2017-02-07 11:51:09 GMT 55.61521 33.43612 38,000 311 453 -64
2017-02-07 11:50:59 GMT 55.60007 33.46719 38,000 311 453 0
2017-02-07 11:50:48 GMT 55.58638 33.49532 38,000 311 453 0
2017-02-07 11:50:38 GMT 55.57159 33.52555 38,000 311 452 0
2017-02-07 11:50:27 GMT 55.55758 33.55413 38,000 311 452 64
2017-02-07 11:50:15 GMT 55.54047 33.58903 38,000 311 452 0
2017-02-07 11:50:04 GMT 55.52683 33.61675 38,000 311 452 0
2017-02-07 11:49:54 GMT 55.51273 33.64555 38,000 311 451 0
2017-02-07 11:49:44 GMT 55.49804 33.67524 38,000 312 451 0
2017-02-07 11:49:32 GMT 55.48302 33.70547 38,000 312 451 0
2017-02-07 11:49:22 GMT 55.46848 33.73489 38,000 311 450 0
2017-02-07 11:49:11 GMT 55.45290 33.76748 38,000 311 450 0
2017-02-07 11:49:01 GMT 55.44022 33.79403 38,000 310 450 64
2017-02-07 11:48:50 GMT 55.42621 33.82351 38,000 310 450 0
2017-02-07 11:48:39 GMT 55.41201 33.85329 38,000 310 450 0
2017-02-07 11:48:29 GMT 55.39755 33.88361 38,000 311 450 0
2017-02-07 11:48:18 GMT 55.38382 33.91229 38,000 310 450 0
2017-02-07 11:48:08 GMT 55.36981 33.94161 38,000 311 449 0
2017-02-07 11:47:57 GMT 55.35564 33.97106 38,000 311 449 0
2017-02-07 11:47:47 GMT 55.34181 33.99986 38,000 311 449 0
2017-02-07 11:47:37 GMT 55.32761 34.02951 38,000 311 449 0
2017-02-07 11:47:26 GMT 55.31364 34.05867 38,000 311 448 0
2017-02-07 11:47:16 GMT 55.29917 34.08883 38,000 311 448 0
2017-02-07 11:47:05 GMT 55.28531 34.11756 38,000 311 448 0
2017-02-07 11:46:56 GMT 55.27391 34.14115 38,000 311 448 0
2017-02-07 11:46:54 GMT 55.27107 34.14704 38,000 311 448 0
2017-02-07 11:46:46 GMT 55.26068 34.16853 38,000 311 448 0
2017-02-07 11:46:44 GMT 55.25709 34.17589 38,000 311 448 0
2017-02-07 11:46:36 GMT 55.24507 34.20076 38,000 311 447 0
2017-02-07 11:46:33 GMT 55.24289 34.20535 38,000 311 447 0
2017-02-07 11:46:22 GMT 55.22877 34.23445 38,000 311 448 0
2017-02-07 11:46:12 GMT 55.21527 34.26240 38,000 311 446 0
2017-02-07 11:46:03 GMT 55.20057 34.29266 38,000 311 447 0
2017-02-07 11:46:01 GMT 55.20057 34.29266 38,000 311 447 0
2017-02-07 11:45:53 GMT 55.18973 34.31505 38,000 311 447 0
2017-02-07 11:45:51 GMT 55.18665 34.32146 38,000 311 447 0
2017-02-07 11:45:44 GMT 55.17778 34.33987 38,000 311 446 0
2017-02-07 11:45:41 GMT 55.17256 34.35061 38,000 311 446 0
2017-02-07 11:45:32 GMT 55.16077 34.37481 38,000 312 446 0
2017-02-07 11:45:29 GMT 55.15812 34.38022 38,000 312 446 0
2017-02-07 11:45:19 GMT 55.14383 34.40868 38,000 312 446 0
2017-02-07 11:45:11 GMT 55.13251 34.43131 38,000 312 445 0
2017-02-07 11:45:09 GMT 55.12985 34.43673 38,000 312 446 0
2017-02-07 11:44:58 GMT 55.11552 34.46516 38,000 312 445 0
2017-02-07 11:44:48 GMT 55.10132 34.49341 38,000 312 446 0
2017-02-07 11:44:37 GMT 55.08708 34.52162 38,000 312 445 0
2017-02-07 11:44:26 GMT 55.07204 34.55152 38,000 312 445 0
2017-02-07 11:44:19 GMT 55.06227 34.57090 38,000 312 445 0
2017-02-07 11:44:16 GMT 55.05817 34.57906 38,000 312 445 0
2017-02-07 11:44:08 GMT 55.04732 34.60039 38,000 312 445 0
2017-02-07 11:44:05 GMT 55.04323 34.60843 38,000 312 444 0
2017-02-07 11:43:59 GMT 55.03336 34.62786 38,000 312 445 0
2017-02-07 11:43:54 GMT 55.02809 34.63828 38,000 311 445 0
2017-02-07 11:43:48 GMT 55.01985 34.65484 38,000 311 445 0
2017-02-07 11:43:44 GMT 55.01454 34.66566 38,000 311 444 -64
2017-02-07 11:43:37 GMT 55.00383 34.68739 38,000 311 444 0
2017-02-07 11:43:33 GMT 54.99989 34.69549 38,000 311 444 0
2017-02-07 11:43:25 GMT 54.98955 34.71638 38,000 311 444 0
2017-02-07 11:43:15 GMT 54.97573 34.74443 38,000 311 444 0
2017-02-07 11:43:05 GMT 54.96320 34.76973 38,000 311 443 0
2017-02-07 11:43:00 GMT 54.95631 34.78360 38,000 311 443 0
2017-02-07 11:42:54 GMT 54.94821 34.79992 38,000 311 444 0
2017-02-07 11:42:51 GMT 54.94356 34.80935 38,000 311 444 0
2017-02-07 11:42:46 GMT 54.93616 34.82425 38,000 311 444 0
2017-02-07 11:42:43 GMT 54.93214 34.83240 38,000 311 444 0
2017-02-07 11:42:40 GMT 54.92944 34.83781 38,000 311 444 0
2017-02-07 11:42:34 GMT 54.92162 34.85364 38,000 311 443 0
2017-02-07 11:42:29 GMT 54.91497 34.86694 38,000 311 443 0
2017-02-07 11:42:25 GMT 54.90871 34.87957 38,000 311 443 0
2017-02-07 11:42:19 GMT 54.90065 34.89581 38,000 311 443 0
2017-02-07 11:42:14 GMT 54.89114 34.91497 38,000 311 443 0
2017-02-07 11:42:07 GMT 54.88565 34.92595 38,000 311 443 0
2017-02-07 11:42:00 GMT 54.87503 34.94734 38,000 311 443 0
2017-02-07 11:41:50 GMT 54.86266 34.97223 38,000 311 443 0
2017-02-07 11:41:46 GMT 54.85744 34.98265 38,000 311 443 0
2017-02-07 11:41:34 GMT 54.84141 35.01488 38,000 311 443 64
2017-02-07 11:41:31 GMT 54.83620 35.02538 38,000 311 442 64
2017-02-07 11:41:25 GMT 54.82946 35.03906 38,000 311 443 0
2017-02-07 11:41:22 GMT 54.82549 35.04703 38,000 311 443 0
2017-02-07 11:41:12 GMT 54.80956 35.07902 38,000 310 443 0
2017-02-07 11:41:04 GMT 54.80060 35.09824 38,000 308 443 0
2017-02-07 11:41:02 GMT 54.79880 35.10237 38,000 306 442 0
2017-02-07 11:40:54 GMT 54.78946 35.12523 38,000 304 442 0
2017-02-07 11:40:51 GMT 54.78607 35.13411 38,000 302 442 0
2017-02-07 11:40:40 GMT 54.77431 35.16861 38,000 298 443 0
2017-02-07 11:40:30 GMT 54.76503 35.20103 38,000 294 444 0
2017-02-07 11:40:20 GMT 54.75769 35.23170 38,000 290 443 -64
2017-02-07 11:40:12 GMT 54.75201 35.26006 38,000 287 444 0
2017-02-07 11:40:10 GMT 54.75046 35.26894 38,000 286 444 0
2017-02-07 11:40:02 GMT 54.74666 35.29366 38,000 283 445 0
2017-02-07 11:39:59 GMT 54.74501 35.30570 38,000 282 445 0
2017-02-07 11:39:52 GMT 54.74217 35.33178 38,000 279 446 0
2017-02-07 11:39:49 GMT 54.74166 35.33727 38,000 278 446 -64
2017-02-07 11:39:46 GMT 54.74011 35.35699 38,000 276 447 0
2017-02-07 11:39:41 GMT 54.73943 35.36799 38,000 275 448 64
2017-02-07 11:39:35 GMT 54.73850 35.38888 38,000 273 449 -64
2017-02-07 11:39:29 GMT 54.73808 35.41118 38,000 270 450 0
2017-02-07 11:39:23 GMT 54.73805 35.43535 38,000 270 450 64
2017-02-07 11:39:19 GMT 54.73810 35.45013 38,000 270 450 64
2017-02-07 11:39:15 GMT 54.73810 35.46233 38,000 270 450 0
2017-02-07 11:39:09 GMT 54.73812 35.48134 38,000 270 451 0
2017-02-07 11:39:05 GMT 54.73819 35.50717 38,000 270 451 -64
2017-02-07 11:38:59 GMT 54.73817 35.51830 38,000 270 451 128
2017-02-07 11:38:52 GMT 54.73822 35.54468 38,000 270 451 0
2017-02-07 11:38:48 GMT 54.73819 35.55628 38,000 270 451 0
2017-02-07 11:38:41 GMT 54.73824 35.58561 38,000 270 452 0
2017-02-07 11:38:35 GMT 54.73824 35.60378 38,000 270 452 0
2017-02-07 11:38:31 GMT 54.73822 35.61967 38,000 270 452 64
2017-02-07 11:38:28 GMT 54.73822 35.63257 38,000 270 452 0
2017-02-07 11:38:20 GMT 54.73824 35.65815 38,000 270 453 64
2017-02-07 11:38:16 GMT 54.73824 35.67212 38,000 270 453 64
2017-02-07 11:38:10 GMT 54.73819 35.69587 38,000 271 453 0
2017-02-07 11:38:07 GMT 54.73819 35.70944 38,000 271 453 64
2017-02-07 11:38:00 GMT 54.73817 35.73262 38,000 271 454 0
2017-02-07 11:37:56 GMT 54.73814 35.74539 38,000 271 454 0
2017-02-07 11:37:49 GMT 54.73808 35.77049 38,000 271 454 0
2017-02-07 11:37:44 GMT 54.73805 35.78869 38,000 271 454 0
2017-02-07 11:37:39 GMT 54.73801 35.80913 38,000 271 454 64
2017-02-07 11:37:34 GMT 54.73801 35.82367 38,000 271 454 -64
2017-02-07 11:37:29 GMT 54.73796 35.85380 38,000 271 454 64
2017-02-07 11:37:25 GMT 54.73792 35.85946 38,000 271 454 64
2017-02-07 11:37:16 GMT 54.73789 35.89208 38,000 271 454 64
2017-02-07 11:37:14 GMT 54.73784 35.89924 38,000 271 454 0
2017-02-07 11:37:11 GMT 54.73782 35.91075 38,000 271 453 0
2017-02-07 11:37:04 GMT 54.73775 35.93528 38,000 271 454 64
2017-02-07 11:36:53 GMT 54.73764 35.97554 38,000 271 454 0
2017-02-07 11:36:42 GMT 54.73750 36.01310 38,000 271 453 -64
2017-02-07 11:36:34 GMT 54.73741 36.04340 38,000 271 453 0
2017-02-07 11:36:32 GMT 54.73737 36.05042 38,000 271 453 -64
2017-02-07 11:36:21 GMT 54.73718 36.09389 38,000 271 453 64
2017-02-07 11:36:19 GMT 54.73719 36.09741 38,000 271 453 0
2017-02-07 11:36:11 GMT 54.73705 36.12629 38,000 271 454 0
2017-02-07 11:36:09 GMT 54.73701 36.13328 38,000 271 454 64
2017-02-07 11:36:07 GMT 54.73701 36.14052 38,000 271 454 64
2017-02-07 11:36:01 GMT 54.73691 36.16643 38,000 271 454 0
2017-02-07 11:35:48 GMT 54.73668 36.20851 38,000 271 454 64
2017-02-07 11:35:45 GMT 54.73659 36.23049 38,000 271 455 0
2017-02-07 11:35:39 GMT 54.73640 36.25530 38,000 271 454 0
2017-02-07 11:35:29 GMT 54.73626 36.27761 38,000 271 454 64
2017-02-07 11:35:26 GMT 54.73622 36.28889 38,000 271 454 64
2017-02-07 11:35:17 GMT 54.73599 36.32460 38,000 271 454 0
2017-02-07 11:35:05 GMT 54.73570 36.36441 38,000 271 453 0
2017-02-07 11:35:03 GMT 54.73566 36.37174 38,000 271 453 64
2017-02-07 11:34:57 GMT 54.73547 36.39346 38,000 271 453 64
2017-02-07 11:34:56 GMT 54.73538 36.40178 38,000 271 453 0
2017-02-07 11:34:55 GMT 54.73535 36.40320 38,000 271 453 0
2017-02-07 11:34:44 GMT 54.73512 36.44052 38,000 271 453 0
2017-02-07 11:34:44 GMT 54.73512 36.44052 38,000 271 453 0
2017-02-07 11:34:37 GMT 54.73500 36.46695 38,000 271 452 0
2017-02-07 11:34:34 GMT 54.73491 36.47794 38,000 272 452 0
2017-02-07 11:34:27 GMT 54.73444 36.50418 38,000 273 451 64
2017-02-07 11:34:25 GMT 54.73421 36.51177 38,000 274 450 64
2017-02-07 11:34:17 GMT 54.73328 36.53645 38,000 276 450 64
2017-02-07 11:34:14 GMT 54.73258 36.55093 38,000 276 450 64
2017-02-07 11:34:04 GMT 54.73036 36.58528 38,000 278 449 0
2017-02-07 11:33:53 GMT 54.72695 36.62401 38,000 281 448 0
2017-02-07 11:33:48 GMT 54.72495 36.64315 38,000 282 448 0
2017-02-07 11:33:43 GMT 54.72304 36.65976 38,000 283 448 0
2017-02-07 11:33:40 GMT 54.72174 36.67028 38,000 283 447 0
2017-02-07 11:33:34 GMT 54.71890 36.69134 38,000 284 447 0
2017-02-07 11:33:32 GMT 54.71797 36.69817 38,000 285 446 0
2017-02-07 11:33:29 GMT 54.71652 36.70782 38,000 286 447 0
2017-02-07 11:33:22 GMT 54.71252 36.73304 38,000 287 446 64
2017-02-07 11:33:19 GMT 54.71077 36.74313 38,000 288 446 64
2017-02-07 11:33:12 GMT 54.70642 36.76691 38,000 289 446 0
2017-02-07 11:33:03 GMT 54.70010 36.79758 38,000 291 446 0
2017-02-07 11:33:01 GMT 54.69939 36.80079 38,000 291 446 0
2017-02-07 11:32:58 GMT 54.69664 36.81344 38,000 291 446 0
2017-02-07 11:32:53 GMT 54.69357 36.82750 38,000 291 446 0
2017-02-07 11:32:51 GMT 54.69180 36.83558 38,000 291 446 0
2017-02-07 11:32:46 GMT 54.68838 36.85130 38,000 291 446 0
2017-02-07 11:32:41 GMT 54.68431 36.86996 38,000 291 446 0
2017-02-07 11:32:35 GMT 54.67983 36.89039 38,000 291 446 0
2017-02-07 11:32:30 GMT 54.67667 36.90477 38,000 291 447 64
2017-02-07 11:32:27 GMT 54.67439 36.91514 38,000 291 447 0
2017-02-07 11:32:22 GMT 54.67053 36.93256 38,000 291 447 0
2017-02-07 11:32:19 GMT 54.66825 36.94303 38,000 291 447 0
2017-02-07 11:32:15 GMT 54.66573 36.95426 38,000 291 447 0
2017-02-07 11:32:12 GMT 54.66316 36.96609 38,000 291 447 0
2017-02-07 11:32:09 GMT 54.66131 36.97449 38,000 291 447 0
2017-02-07 11:32:05 GMT 54.65767 36.99081 38,000 291 447 0
2017-02-07 11:32:02 GMT 54.65503 37.00287 38,000 291 447 0
2017-02-07 11:31:58 GMT 54.65282 37.01278 38,000 291 448 0
2017-02-07 11:31:56 GMT 54.65131 37.01964 38,000 291 448 0
2017-02-07 11:31:54 GMT 54.65025 37.02441 38,000 291 448 0
2017-02-07 11:31:52 GMT 54.64851 37.03241 38,000 291 448 64
2017-02-07 11:31:48 GMT 54.64563 37.04541 38,000 291 448 0
2017-02-07 11:31:46 GMT 54.64407 37.05252 38,000 291 448 0
2017-02-07 11:31:44 GMT 54.64256 37.05947 38,000 291 448 0
2017-02-07 11:31:40 GMT 54.63954 37.07304 38,000 291 447 0
2017-02-07 11:31:38 GMT 54.63794 37.08036 38,000 291 447 0
2017-02-07 11:31:35 GMT 54.63627 37.08776 38,000 291 447 0
2017-02-07 11:31:31 GMT 54.63319 37.10166 38,000 291 447 0
2017-02-07 11:31:29 GMT 54.63098 37.11174 38,000 291 447 0
2017-02-07 11:31:26 GMT 54.62942 37.11876 38,000 291 447 0
2017-02-07 11:31:22 GMT 54.62663 37.13128 38,000 291 447 0
2017-02-07 11:31:14 GMT 54.62068 37.15810 38,000 291 446 0
2017-02-07 11:31:10 GMT 54.61606 37.17895 38,000 291 446 0
2017-02-07 11:31:06 GMT 54.61455 37.18565 38,000 291 446 0
2017-02-07 11:31:04 GMT 54.61317 37.19187 38,000 291 446 0
2017-02-07 11:30:56 GMT 54.60638 37.22235 38,000 291 446 0
2017-02-07 11:30:54 GMT 54.60498 37.22867 38,000 291 446 0
2017-02-07 11:30:50 GMT 54.60287 37.23800 38,000 291 445 0
2017-02-07 11:30:44 GMT 54.59839 37.25827 38,000 292 445 0
2017-02-07 11:30:39 GMT 54.59484 37.27403 38,000 292 445 0
2017-02-07 11:30:35 GMT 54.59120 37.29051 38,000 292 444 0
2017-02-07 11:30:33 GMT 54.59041 37.29384 38,000 292 444 0
2017-02-07 11:30:29 GMT 54.58704 37.30909 38,000 292 444 0
2017-02-07 11:30:23 GMT 54.58278 37.32805 38,000 292 444 0
2017-02-07 11:30:19 GMT 54.57967 37.34196 38,000 291 444 0
2017-02-07 11:30:12 GMT 54.57495 37.36305 38,000 292 443 0
2017-02-07 11:30:10 GMT 54.57317 37.37113 38,000 292 443 0
2017-02-07 11:30:07 GMT 54.57128 37.37940 38,000 292 443 0
2017-02-07 11:30:02 GMT 54.56758 37.39576 38,000 292 443 0
2017-02-07 11:29:57 GMT 54.56319 37.41523 38,000 292 443 0
2017-02-07 11:29:51 GMT 54.55945 37.43192 38,000 292 443 0
2017-02-07 11:29:46 GMT 54.55573 37.44843 38,000 292 443 0
2017-02-07 11:29:41 GMT 54.55142 37.46750 38,000 292 443 0
2017-02-07 11:29:37 GMT 54.54836 37.48107 38,000 292 443 0
2017-02-07 11:29:32 GMT 54.54456 37.49784 38,000 292 443 0
2017-02-07 11:29:29 GMT 54.54326 37.50375 38,000 292 443 0
2017-02-07 11:29:26 GMT 54.54042 37.51615 38,000 292 444 0
2017-02-07 11:29:22 GMT 54.53706 37.53096 38,000 292 443 0
2017-02-07 11:29:20 GMT 54.53517 37.53939 38,000 292 443 0
2017-02-07 11:29:16 GMT 54.53220 37.55232 38,000 292 444 0
2017-02-07 11:29:11 GMT 54.52976 37.56334 38,000 292 443 0
2017-02-07 11:29:09 GMT 54.52780 37.57191 38,000 292 443 0
2017-02-07 11:29:04 GMT 54.52403 37.58856 38,000 292 443 0
2017-02-07 11:29:01 GMT 54.52207 37.59713 38,000 292 443 0
2017-02-07 11:28:57 GMT 54.51942 37.60895 38,000 292 443 0
2017-02-07 11:28:55 GMT 54.51653 37.62160 38,000 292 443 0
2017-02-07 11:28:50 GMT 54.51360 37.63450 38,000 292 443 0
2017-02-07 11:28:46 GMT 54.51118 37.64514 38,000 292 443 0
2017-02-07 11:28:44 GMT 54.50909 37.65439 38,000 292 443 0
2017-02-07 11:28:41 GMT 54.50693 37.66388 38,000 292 443 0
2017-02-07 11:28:38 GMT 54.50466 37.67387 38,000 292 443 0
2017-02-07 11:28:34 GMT 54.50122 37.68885 38,000 292 443 0
2017-02-07 11:28:31 GMT 54.49873 37.69975 38,000 292 443 64
2017-02-07 11:28:29 GMT 54.49815 37.70242 38,000 292 443 64
2017-02-07 11:28:22 GMT 54.49320 37.72406 38,000 292 443 64
2017-02-07 11:28:20 GMT 54.49123 37.73262 38,000 292 444 64
2017-02-07 11:28:17 GMT 54.48889 37.74280 38,000 292 444 64
2017-02-07 11:28:13 GMT 54.48560 37.75710 38,000 292 443 0
2017-02-07 11:28:08 GMT 54.48262 37.77019 38,000 292 444 0
2017-02-07 11:28:02 GMT 54.47781 37.79127 38,000 292 444 0
2017-02-07 11:27:58 GMT 54.47488 37.80404 38,000 292 443 0
2017-02-07 11:27:54 GMT 54.47186 37.81728 38,000 292 444 0
2017-02-07 11:27:48 GMT 54.46738 37.83675 38,000 292 444 0
2017-02-07 11:27:44 GMT 54.46468 37.84847 38,000 292 444 0
2017-02-07 11:27:37 GMT 54.45909 37.87279 38,000 292 444 0
2017-02-07 11:27:34 GMT 54.45685 37.88256 38,000 292 444 0
2017-02-07 11:27:28 GMT 54.45155 37.90566 38,000 292 443 0
2017-02-07 11:27:26 GMT 54.45113 37.90736 38,000 292 443 0
2017-02-07 11:27:24 GMT 54.44908 37.91623 38,000 292 443 0
2017-02-07 11:27:16 GMT 54.44316 37.94193 38,000 292 443 0
2017-02-07 11:27:13 GMT 54.44084 37.95194 38,000 292 443 0
2017-02-07 11:27:07 GMT 54.43674 37.96967 38,000 292 443 0
2017-02-07 11:27:05 GMT 54.43525 37.97607 38,000 292 443 0
2017-02-07 11:27:03 GMT 54.43259 37.98773 38,000 292 443 0
2017-02-07 11:26:58 GMT 54.42920 38.00238 38,000 292 442 0
2017-02-07 11:26:56 GMT 54.42762 38.00912 38,000 292 442 0
2017-02-07 11:26:53 GMT 54.42608 38.01586 38,000 292 442 0
2017-02-07 11:26:51 GMT 54.42445 38.02285 38,000 292 442 0
2017-02-07 11:26:45 GMT 54.41963 38.04355 38,000 292 442 0
2017-02-07 11:26:41 GMT 54.41661 38.05664 38,000 292 442 0
2017-02-07 11:26:35 GMT 54.41171 38.07773 38,000 292 442 0
2017-02-07 11:26:30 GMT 54.40883 38.09025 38,000 292 441 0
2017-02-07 11:26:24 GMT 54.40383 38.11165 38,000 292 441 0
2017-02-07 11:26:21 GMT 54.40202 38.11948 38,000 292 440 0
2017-02-07 11:26:19 GMT 54.40062 38.12547 38,000 292 441 0
2017-02-07 11:26:14 GMT 54.39601 38.14520 38,000 292 441 0
2017-02-07 11:26:06 GMT 54.38963 38.17266 38,000 292 440 0
2017-02-07 11:26:03 GMT 54.38727 38.18282 38,000 292 440 0
2017-02-07 11:25:59 GMT 54.38493 38.19276 38,000 292 440 0
2017-02-07 11:25:53 GMT 54.38026 38.21271 38,000 292 440 0
2017-02-07 11:25:48 GMT 54.37655 38.22851 38,000 292 440 64
2017-02-07 11:25:44 GMT 54.37348 38.24166 38,000 292 440 0
2017-02-07 11:25:42 GMT 54.37230 38.24672 38,000 292 440 0
2017-02-07 11:25:37 GMT 54.36887 38.26130 38,000 292 440 0
2017-02-07 11:25:34 GMT 54.36580 38.27429 38,000 292 440 0
2017-02-07 11:25:32 GMT 54.36394 38.28236 38,000 292 440 0
2017-02-07 11:25:27 GMT 54.36096 38.29509 38,000 292 440 0
2017-02-07 11:25:24 GMT 54.35870 38.30472 38,000 292 440 0
2017-02-07 11:25:21 GMT 54.35644 38.31432 38,000 292 439 0
2017-02-07 11:25:14 GMT 54.35076 38.33862 38,000 292 439 0
2017-02-07 11:25:11 GMT 54.34840 38.34859 38,000 292 439 0
2017-02-07 11:25:10 GMT 54.34804 38.35012 38,000 292 439 0
2017-02-07 11:25:04 GMT 54.34262 38.37341 38,000 292 440 0
2017-02-07 11:25:00 GMT 54.34030 38.38316 38,000 292 440 0
2017-02-07 11:24:52 GMT 54.33476 38.40699 38,000 292 440 0
2017-02-07 11:24:49 GMT 54.33209 38.41844 38,000 292 439 0
2017-02-07 11:24:42 GMT 54.32698 38.44019 38,000 292 439 0
2017-02-07 11:24:39 GMT 54.32442 38.45118 38,000 292 439 0
2017-02-07 11:24:32 GMT 54.31906 38.47404 38,000 292 439 0
2017-02-07 11:24:28 GMT 54.31603 38.48694 38,000 293 440 0
2017-02-07 11:24:22 GMT 54.31165 38.50546 38,000 293 439 0
2017-02-07 11:24:18 GMT 54.30845 38.51881 38,000 293 439 0
2017-02-07 11:24:11 GMT 54.30328 38.54029 38,000 293 439 0
2017-02-07 11:24:07 GMT 54.30011 38.55361 38,000 292 440 0
2017-02-07 11:24:01 GMT 54.29560 38.57341 38,000 290 439 0
2017-02-07 11:23:56 GMT 54.29260 38.58738 38,000 290 439 0
2017-02-07 11:23:51 GMT 54.28880 38.60604 38,000 288 440 0
2017-02-07 11:23:46 GMT 54.28583 38.62163 38,000 287 440 0
2017-02-07 11:23:41 GMT 54.28262 38.64005 38,000 286 441 0
2017-02-07 11:23:36 GMT 54.27963 38.65823 38,000 286 440 0
2017-02-07 11:23:30 GMT 54.27695 38.67501 38,000 286 440 0
2017-02-07 11:23:25 GMT 54.27418 38.69215 38,000 286 441 0
2017-02-07 11:23:19 GMT 54.27077 38.71370 38,000 286 441 0
2017-02-07 11:23:14 GMT 54.26848 38.72822 38,000 286 440 0
2017-02-07 11:23:09 GMT 54.26590 38.74417 38,000 286 440 0
2017-02-07 11:23:04 GMT 54.26280 38.76338 38,000 286 440 0
2017-02-07 11:23:00 GMT 54.26022 38.77964 38,000 286 440 0
2017-02-07 11:22:58 GMT 54.25992 38.78142 38,000 286 440 0
2017-02-07 11:22:53 GMT 54.25715 38.79854 38,000 286 440 0
2017-02-07 11:22:48 GMT 54.25456 38.81478 38,000 286 441 0
2017-02-07 11:22:43 GMT 54.25156 38.83360 38,000 286 441 0
2017-02-07 11:22:37 GMT 54.24863 38.85202 38,000 286 441 0
2017-02-07 11:22:33 GMT 54.24614 38.86790 38,000 286 441 64
2017-02-07 11:22:25 GMT 54.24220 38.89249 38,000 287 440 0
2017-02-07 11:22:22 GMT 54.24037 38.90306 38,000 288 440 64
2017-02-07 11:22:17 GMT 54.23653 38.92425 38,000 288 439 0
2017-02-07 11:22:11 GMT 54.23373 38.93950 38,000 288 439 0
2017-02-07 11:22:07 GMT 54.23136 38.95243 38,000 288 440 0
2017-02-07 11:22:05 GMT 54.23024 38.95849 38,000 288 440 0
2017-02-07 11:22:02 GMT 54.22723 38.97486 38,000 288 440 0
2017-02-07 11:21:58 GMT 54.22512 38.98644 38,000 288 440 0
2017-02-07 11:21:55 GMT 54.22414 38.99169 38,000 288 440 0
2017-02-07 11:21:50 GMT 54.22092 39.00915 38,000 288 440 0
2017-02-07 11:21:47 GMT 54.21897 39.01980 38,000 288 439 0
2017-02-07 11:21:45 GMT 54.21772 39.02659 38,000 288 439 0
2017-02-07 11:21:40 GMT 54.21378 39.04776 38,000 288 439 64
2017-02-07 11:21:36 GMT 54.21254 39.05420 38,000 288 439 0
2017-02-07 11:21:31 GMT 54.20902 39.07327 38,000 288 439 0
2017-02-07 11:21:28 GMT 54.20580 39.09049 38,000 288 439 0
2017-02-07 11:21:25 GMT 54.20580 39.09049 38,000 288 439 0
2017-02-07 11:21:20 GMT 54.20217 39.11004 38,000 288 439 0
2017-02-07 11:21:15 GMT 54.19913 39.12640 38,000 288 439 0
2017-02-07 11:21:05 GMT 54.19332 39.15745 38,000 288 439 0
2017-02-07 11:21:01 GMT 54.19043 39.17285 38,000 288 438 0
2017-02-07 11:20:57 GMT 54.18857 39.18282 38,000 288 439 0
2017-02-07 11:20:55 GMT 54.18694 39.19146 38,000 288 438 0
2017-02-07 11:20:54 GMT 54.18645 39.19420 38,000 288 438 0
2017-02-07 11:20:51 GMT 54.18452 39.20431 38,000 288 439 0
2017-02-07 11:20:45 GMT 54.18004 39.22802 38,000 288 438 0
2017-02-07 11:20:42 GMT 54.17889 39.23390 38,000 288 438 0
2017-02-07 11:20:33 GMT 54.17326 39.26360 38,000 288 438 0
2017-02-07 11:20:22 GMT 54.16672 39.29880 38,000 288 438 64
2017-02-07 11:20:13 GMT 54.16081 39.33043 38,000 288 438 -64
2017-02-07 11:20:00 GMT 54.15285 39.37272 38,000 288 438 0
2017-02-07 11:19:58 GMT 54.15166 39.37892 38,000 288 438 0
2017-02-07 11:19:46 GMT 54.14429 39.41808 38,000 288 438 0
2017-02-07 11:19:40 GMT 54.14035 39.43898 38,000 288 438 0
2017-02-07 11:19:31 GMT 54.13518 39.46645 38,000 288 438 0
2017-02-07 11:19:18 GMT 54.12707 39.50919 38,000 288 438 0
2017-02-07 11:19:08 GMT 54.12009 39.54553 38,000 289 438 0
2017-02-07 11:18:59 GMT 54.11516 39.57138 38,000 288 439 0
2017-02-07 11:18:50 GMT 54.10878 39.60482 38,000 289 439 0
2017-02-07 11:18:37 GMT 54.10152 39.64295 38,000 288 439 0
2017-02-07 11:18:28 GMT 54.09533 39.67535 38,000 289 438 0
2017-02-07 11:18:18 GMT 54.08881 39.70927 38,000 289 439 0
2017-02-07 11:18:04 GMT 54.08057 39.75214 38,000 289 439 0
2017-02-07 11:17:55 GMT 54.07434 39.78455 38,000 289 438 0
2017-02-07 11:17:47 GMT 54.06958 39.80935 38,000 289 438 0
2017-02-07 11:17:25 GMT 54.05571 39.88077 38,000 289 439 0
2017-02-07 11:17:15 GMT 54.04871 39.91710 38,000 289 440 0
2017-02-07 11:17:00 GMT 54.03965 39.96358 38,000 289 440 0
2017-02-07 11:16:51 GMT 54.03402 39.99258 38,000 289 440 0
2017-02-07 11:16:45 GMT 54.03007 40.01260 38,000 289 440 0
2017-02-07 11:16:41 GMT 54.02747 40.02602 38,000 289 440 0
2017-02-07 11:16:34 GMT 54.02330 40.04736 38,000 289 440 64
2017-02-07 11:16:28 GMT 54.01932 40.06753 38,000 289 440 0
2017-02-07 11:16:24 GMT 54.01680 40.08048 38,000 289 440 0
2017-02-07 11:16:13 GMT 54.00967 40.11666 38,000 289 440 0
2017-02-07 11:16:03 GMT 54.00316 40.14970 38,000 289 440 0
2017-02-07 11:15:53 GMT 53.99668 40.18233 38,000 289 440 0
2017-02-07 11:15:43 GMT 53.98961 40.21844 38,000 289 440 64
2017-02-07 11:15:31 GMT 53.98267 40.25375 38,000 289 440 0
2017-02-07 11:15:22 GMT 53.97620 40.28670 38,000 289 440 0
2017-02-07 11:15:10 GMT 53.96885 40.32386 38,000 289 440 64
2017-02-07 11:15:00 GMT 53.96260 40.35498 38,000 289 440 0
2017-02-07 11:14:49 GMT 53.95549 40.39051 38,000 289 439 0
2017-02-07 11:14:36 GMT 53.94704 40.43314 38,000 289 439 0
2017-02-07 11:14:28 GMT 53.94150 40.46084 38,000 289 439 0
2017-02-07 11:14:17 GMT 53.93486 40.49415 38,000 289 439 0
2017-02-07 11:14:08 GMT 53.92839 40.52646 38,000 289 439 0
2017-02-07 11:13:57 GMT 53.92169 40.55991 38,000 289 438 0
We lost coverage of the aircraft here for a total of 9 minutes
2017-02-07 11:05:19 GMT 53.57185 42.23136 38,000 291 436 0
2017-02-07 11:05:02 GMT 53.56128 42.28298 38,000 289 437 0
2017-02-07 11:04:53 GMT 53.55635 42.31166 38,000 286 438 0
2017-02-07 11:04:49 GMT 53.55430 42.32483 38,000 283 439 0

Making use of Plane Finder data

You are free to use the raw flight data, aircraft information and images provided in this report for your own purposes provided the data is correctly attributed to Plane Finder. We ask that you please credit Plane Finder and link to planefinder.net in close proximity to the content.

Optionally one of the following logos (no smaller then 150x24px) can be used and must link to planefinder.net

Embedding the Plane Finder map

You are welcome to embed the Plane Finder playback map on your website to offer visitors a more interactive experience. We suggest using the following HTML code:

<iframe src="//planefinder.net/data/report/PK757-Escorted-To-Stansted/map" width="800" height="600" seamless="seamless"></iframe>

Where our data comes from

Plane Finder has a global network of data feeds and antenna radars that receive data broadcast directly from aircraft. The primary technologies used are ADS-B and MLAT. We also show feeds from the FAA and a FLARM glider feed.

Click here to find out more about the Plane Finder network.

How we collect our data